GFSCGP_850_thetae_000.txt.gz
Theta_e
323 323 324 328 326 327 330 335 338 337 334 345 346 347 347 346 347 347 347 347 347 347 347 347 347 346 346 346 347 348 348 347 349 349 347 347 344 344 345 345 346 347 348 348
322 324 326 329 330 329 328 332 337 338 335 335 346 348 346 346 348 348 348 349 348 349 347 347 347 346 346 346 348 348 348 345 344 344 341 342 339 334 341 342 342 343 342 342
321 324 329 331 331 331 327 335 335 337 338 337 345 346 345 346 347 347 348 350 351 351 350 349 348 348 348 349 346 346 346 344 344 338 338 338 340 336 337 339 341 343 340 336
322 324 328 331 331 329 325 327 336 339 340 341 339 348 342 344 342 341 346 348 350 350 351 351 351 348 348 349 346 347 344 334 332 335 334 336 341 339 333 340 342 339 337 327
322 325 326 328 331 327 327 326 327 339 339 336 341 342 344 338 337 337 343 346 348 349 349 351 352 349 349 351 352 349 335 335 334 331 321 332 340 330 333 336 336 336 330 332
322 326 326 327 329 327 328 329 324 326 326 334 337 336 338 342 340 338 338 346 346 347 349 349 350 348 350 352 352 351 334 334 335 323 326 335 333 325 329 333 333 333 329 326
324 325 326 327 326 325 327 322 323 325 325 325 323 339 337 340 339 336 337 345 346 346 348 349 348 350 351 351 351 348 341 334 335 328 343 322 322 315 317 328 332 326 321 329
322 324 326 325 324 324 323 322 323 328 332 329 326 328 329 338 340 338 338 344 346 345 347 348 346 344 344 348 349 347 341 343 337 337 348 324 323 319 321 320 321 325 331 326
320 323 325 325 326 324 325 325 324 327 328 329 328 330 336 336 338 337 338 340 343 344 346 346 345 343 344 345 346 346 342 340 340 340 328 324 326 320 321 325 330 333 332 325
320 322 323 327 325 325 326 324 327 322 329 331 329 333 333 341 340 338 337 336 339 343 345 346 345 344 343 343 343 345 344 340 340 337 326 323 328 325 321 322 328 324 319 323
320 321 324 326 325 325 328 327 324 323 324 327 328 329 330 339 340 339 338 339 338 341 343 345 345 344 344 343 345 344 346 346 344 344 328 325 331 329 326 327 321 321 322 323
319 318 323 323 325 324 326 326 324 325 327 324 325 330 333 333 334 339 340 341 341 339 342 343 344 344 344 344 346 344 347 347 346 349 329 325 332 330 328 326 323 320 320 322
322 319 324 323 324 325 327 326 326 322 322 326 329 331 331 331 332 334 335 340 341 340 339 342 343 344 344 344 345 345 346 347 348 349 330 327 332 330 327 322 321 319 319 319
325 318 322 325 324 325 327 327 327 325 325 325 327 331 333 333 332 332 334 337 339 339 341 340 342 343 343 343 343 344 345 347 349 348 338 330 330 330 329 323 321 319 319 321
322 321 324 323 326 328 328 328 327 327 325 328 326 329 330 332 333 334 336 336 338 341 342 341 341 343 343 344 346 347 346 346 348 347 341 335 330 333 331 326 323 322 320 323
319 323 324 326 327 327 328 329 330 330 328 330 328 331 330 333 336 336 337 337 338 338 339 341 341 342 343 345 345 345 345 345 349 348 343 337 331 334 332 326 323 323 321 325
322 323 324 325 327 329 330 331 329 330 332 329 327 327 328 332 332 333 334 335 335 335 336 338 347 345 346 346 345 347 347 348 350 348 344 339 336 332 333 328 321 322 322 325
325 322 321 325 325 329 327 330 333 334 334 333 330 330 330 333 335 335 335 334 334 334 333 333 333 338 345 347 349 350 350 350 351 347 342 337 336 333 334 329 320 321 324 327
330 331 333 325 324 326 332 332 333 333 335 334 334 333 331 333 333 333 334 333 332 331 332 331 332 334 334 345 350 351 352 351 351 346 339 337 334 334 335 326 321 323 328 331
329 329 334 334 330 330 330 333 333 331 335 332 333 332 331 333 333 332 334 332 332 334 334 333 332 330 329 338 348 351 352 352 349 344 339 337 333 335 332 322 323 327 332 336
331 333 333 333 334 330 331 334 333 333 332 334 332 332 333 332 333 334 337 337 336 335 333 333 332 332 329 338 345 351 351 351 349 344 339 336 335 334 327 327 329 333 337 336
338 338 335 333 332 333 332 334 338 333 333 333 333 333 332 332 332 332 332 331 332 336 338 337 335 332 333 340 347 350 349 345 342 338 337 338 338 338 339 334 336 336 335 334
338 336 340 338 337 332 330 330 331 331 332 332 333 333 332 333 333 333 331 330 329 328 326 335 339 335 346 349 349 348 342 341 340 340 340 337 334 331 333 336 335 337 334 333
333 335 336 334 333 334 330 329 330 331 330 330 330 330 331 332 332 331 328 330 333 333 327 327 339 339 343 349 348 346 343 343 341 338 335 333 330 326 327 331 334 333 333 331
333 332 336 335 334 330 328 327 326 326 328 329 328 327 327 327 331 337 337 338 336 337 338 340 344 345 349 348 346 343 340 338 335 330 325 325 325 324 327 332 335 332 328 328
329 332 334 334 332 329 327 324 323 323 322 322 323 324 324 327 338 334 333 342 342 341 343 346 347 346 344 341 337 333 325 325 324 325 325 322 323 326 330 331 331 329 327 326

GFSCGP_850_thetae_003.txt.gz
Theta_e
320 320 322 321 326 326 329 332 339 340 337 343 343 344 346 347 346 346 347 347 347 347 347 347 347 347 347 346 346 347 349 348 348 349 349 350 349 347 347 346 347 347 346 347
319 320 320 324 327 327 326 326 331 335 338 342 343 346 343 343 344 345 345 345 346 347 347 347 347 346 347 346 346 347 348 348 345 344 347 348 346 343 342 345 344 343 343 341
317 319 323 328 329 330 326 328 329 335 337 342 345 346 345 344 344 344 344 345 345 346 347 347 347 347 346 346 346 347 348 345 339 340 344 345 343 337 335 341 340 335 342 339
319 320 325 329 330 328 329 326 329 334 338 343 343 349 343 344 345 345 346 347 346 346 347 347 347 347 347 346 346 347 346 342 338 343 340 333 332 336 333 332 334 339 342 335
319 322 323 327 330 327 329 326 326 331 335 338 341 342 342 343 345 345 345 346 348 348 347 348 347 349 349 347 348 342 342 341 337 341 335 331 332 336 336 329 334 339 336 329
319 323 323 324 326 327 328 326 321 323 328 338 342 338 338 345 346 344 342 345 348 348 349 350 350 350 350 346 347 344 342 336 333 331 330 326 330 330 327 330 334 335 331 329
323 322 323 326 326 325 323 321 322 329 335 337 330 337 336 339 343 343 342 342 347 348 350 350 350 350 350 345 345 346 336 330 332 330 326 323 324 324 321 325 329 330 330 323
320 322 323 323 324 324 322 320 322 324 327 331 327 340 339 335 339 342 341 341 345 347 348 350 349 350 350 344 343 341 339 332 333 334 327 328 325 321 316 317 326 326 322 320
317 320 322 324 324 323 325 321 320 321 324 325 325 327 328 334 335 339 338 338 342 345 346 348 349 349 350 346 341 338 339 336 333 331 330 330 332 323 318 318 317 317 323 327
318 321 321 324 324 323 324 321 324 320 326 329 327 329 328 334 336 337 336 335 339 344 345 347 348 348 348 347 339 339 341 340 337 331 332 330 339 326 320 321 320 322 327 328
316 318 320 323 322 323 326 324 321 321 321 325 327 326 325 331 335 336 336 337 339 343 344 345 346 346 346 347 344 337 343 345 343 337 338 337 341 326 325 320 319 319 319 318
316 317 321 320 321 323 322 323 323 325 325 321 323 326 327 330 334 335 336 336 338 340 343 344 345 346 347 347 345 340 341 344 345 345 340 342 342 326 329 323 321 319 319 320
316 316 318 320 322 323 324 323 321 319 320 326 328 328 328 331 333 338 337 337 338 339 341 342 344 345 345 346 345 343 342 342 345 347 345 346 344 328 330 326 323 322 319 319
321 314 321 323 322 323 325 326 323 323 324 323 325 328 333 332 334 332 338 338 339 339 339 339 342 343 343 344 345 345 344 344 345 347 347 346 347 332 329 329 324 321 320 319
320 320 317 322 322 324 325 326 325 325 324 328 326 327 330 331 331 333 339 339 338 340 340 339 339 340 341 342 344 345 345 345 345 346 348 347 347 336 327 330 323 321 320 319
316 320 321 322 321 323 324 325 327 327 323 326 324 326 325 332 332 333 336 337 337 336 337 338 338 339 340 340 341 342 343 344 346 347 347 349 347 336 329 330 326 323 321 320
319 321 319 324 323 325 326 326 327 329 329 327 327 325 326 331 331 333 334 335 335 337 338 338 338 338 338 339 340 341 342 345 345 347 350 349 340 338 331 330 331 323 320 321
324 319 319 323 325 328 326 329 329 333 334 333 332 326 327 330 334 335 335 335 336 337 338 339 339 339 338 341 342 342 343 345 345 348 350 350 345 338 332 332 332 325 320 321
325 320 326 324 324 327 332 334 333 332 333 332 332 331 331 330 333 332 334 336 337 336 334 333 331 328 327 330 335 343 347 347 347 349 350 347 343 342 333 333 330 320 320 321
326 325 328 326 326 330 331 331 333 329 334 331 331 331 331 331 333 329 333 333 334 333 332 330 330 330 330 329 332 339 346 350 350 349 349 348 344 340 332 332 331 325 325 323
333 331 333 331 333 331 331 331 331 334 331 332 330 330 330 329 330 332 334 332 333 336 335 333 332 331 330 331 331 332 344 348 350 350 349 344 341 338 336 337 337 336 334 332
333 336 339 335 334 336 330 332 334 330 330 330 331 331 331 332 331 330 331 331 331 330 331 332 336 337 334 334 333 332 342 348 350 350 348 345 340 339 338 336 335 334 328 327
336 335 337 334 331 328 329 328 329 329 329 329 332 333 335 334 332 330 328 327 328 326 327 328 326 326 331 339 334 335 345 349 348 346 345 341 339 335 334 332 328 327 329 326
334 332 332 331 328 329 327 326 326 328 327 327 327 327 327 326 327 328 329 329 332 330 329 327 327 329 332 339 344 347 348 346 344 342 341 340 339 336 332 331 326 325 328 331
331 333 332 330 330 326 322 322 321 323 327 328 327 327 327 329 331 331 331 330 331 330 330 332 336 342 344 346 345 344 343 342 340 339 334 327 324 324 328 329 326 325 331 329
322 333 332 330 329 323 321 319 320 321 321 322 322 320 321 322 326 331 338 342 340 340 340 338 341 343 345 343 342 340 338 336 331 325 322 325 325 327 328 324 327 331 332 330

GFSCGP_850_thetae_006.txt.gz
Theta_e
318 318 318 322 324 332 331 337 340 339 338 340 341 343 349 346 345 346 346 347 349 350 349 350 350 350 348 347 349 348 349 348 347 346 347 348 347 347 347 348 347 344 345 344
318 317 318 321 324 327 333 332 336 334 337 340 343 345 347 346 346 345 345 346 346 348 349 349 349 350 349 347 348 347 346 347 347 346 346 348 350 350 350 348 347 346 345 344
316 319 320 325 325 325 326 325 326 336 339 341 343 346 344 346 346 345 345 345 345 346 346 346 347 347 348 347 347 346 346 346 347 346 347 349 351 346 341 338 339 341 336 340
316 318 322 324 327 326 326 324 326 334 340 340 339 341 342 343 345 343 344 344 345 345 345 345 346 346 347 346 346 346 345 346 347 346 345 345 342 337 334 328 330 332 334 339
318 319 321 326 326 325 327 325 326 333 335 338 344 338 337 342 344 343 342 342 343 345 346 346 346 346 346 346 346 345 345 345 346 346 344 344 340 338 339 336 334 332 338 337
319 320 320 321 325 327 323 321 321 322 328 335 337 340 335 344 345 343 342 344 344 344 345 345 346 346 346 346 347 346 345 340 341 344 344 343 336 337 336 332 326 327 334 332
319 319 322 323 324 324 320 321 323 326 333 334 331 340 338 335 341 342 342 343 345 345 346 346 346 347 347 347 348 345 343 334 335 338 336 331 329 329 333 328 320 326 330 329
317 318 320 321 322 323 322 321 322 326 327 334 332 342 340 337 335 341 341 343 343 345 347 347 348 347 349 348 349 342 338 331 331 332 328 326 329 324 323 321 318 324 329 327
316 318 319 321 322 322 321 321 320 319 321 324 326 326 328 329 331 336 340 342 342 344 346 347 348 348 350 349 348 340 334 329 328 328 326 327 327 328 322 319 316 320 321 318
317 319 318 321 323 322 321 319 323 317 324 328 325 326 329 329 332 331 336 339 341 342 345 347 348 348 349 348 347 346 338 328 327 329 327 328 327 327 325 321 318 317 317 321
315 316 318 319 320 321 321 321 318 318 319 322 324 324 322 326 329 332 333 338 339 340 343 345 346 347 349 348 348 348 343 337 329 328 329 330 332 336 335 325 319 319 319 320
314 316 319 318 319 320 321 320 320 323 321 319 321 323 324 326 327 332 333 336 336 338 340 342 344 345 347 348 348 348 347 342 338 333 337 335 335 336 343 329 322 320 318 318
316 314 319 318 317 321 321 320 317 316 317 321 325 325 324 325 329 333 334 336 337 337 338 341 343 344 345 346 347 347 348 347 342 341 343 346 343 342 343 336 326 321 319 318
326 313 318 321 320 320 323 323 320 320 320 321 323 325 327 330 332 332 336 336 336 337 338 339 341 342 342 343 345 346 347 347 347 342 343 346 348 345 345 341 328 326 321 320
315 319 317 322 319 321 322 323 322 322 322 325 325 324 326 329 330 331 337 337 336 336 337 339 340 340 341 342 343 344 346 347 347 346 342 341 345 348 347 344 330 326 323 322
316 318 315 321 320 320 322 322 324 324 323 323 324 324 322 328 330 332 335 337 338 338 338 338 338 339 339 339 339 341 343 344 346 346 345 345 346 348 348 340 340 332 326 324
322 317 316 321 318 318 320 322 322 324 323 324 325 326 323 328 330 331 333 337 339 339 339 339 339 338 337 337 337 339 340 343 344 345 346 347 349 350 348 335 335 338 327 320
331 319 315 322 321 322 322 323 323 325 330 328 328 325 325 328 331 333 334 335 337 338 338 339 336 336 336 337 338 338 339 340 341 343 345 348 350 349 347 337 335 335 331 324
326 318 320 320 319 323 332 332 331 332 332 331 332 331 330 329 330 331 332 333 333 335 336 335 337 338 330 328 332 334 336 341 343 344 345 347 348 349 346 338 332 336 336 332
326 325 325 322 323 330 329 330 331 330 333 329 329 329 328 329 329 328 331 331 334 335 337 336 330 329 328 328 329 328 331 339 340 344 346 348 348 349 346 342 333 336 338 338
332 333 333 330 330 330 330 329 330 333 329 328 328 329 330 329 329 332 333 333 332 332 332 332 333 332 333 331 332 332 332 332 337 343 348 348 348 349 345 339 338 338 337 337
332 337 338 333 334 335 328 330 331 330 329 330 330 330 329 330 334 331 329 328 328 328 328 328 327 326 326 326 331 334 334 339 335 344 348 347 347 346 342 339 338 337 335 334
335 334 334 331 331 327 326 325 328 329 328 327 327 327 330 331 331 330 330 330 330 330 330 329 328 327 326 326 331 326 340 339 344 347 346 344 342 341 339 337 334 333 331 328
333 327 332 331 328 326 322 324 325 325 325 326 329 331 331 331 331 333 333 332 330 331 331 332 332 332 332 332 340 342 345 345 346 344 342 341 338 336 332 328 327 329 329 328
328 330 329 328 326 324 320 321 320 320 321 323 325 326 327 329 329 331 333 336 336 338 335 332 331 330 335 338 343 344 345 344 341 339 339 337 339 337 335 332 330 327 327 325
320 327 328 327 325 326 321 321 321 322 321 322 322 321 322 323 324 325 328 330 337 337 335 336 332 333 332 332 336 341 341 339 337 334 331 332 335 331 330 329 330 328 326 323

GFSCGP_850_thetae_009.txt.gz
Theta_e
321 322 322 326 332 335 339 343 344 343 342 344 346 346 350 349 349 350 351 352 351 350 350 351 348 348 348 348 348 347 347 347 347 348 347 346 344 344 345 345 346 346 346 344
321 322 323 326 328 333 340 342 344 341 342 344 345 345 347 349 348 348 349 350 350 351 351 351 352 350 350 350 348 348 348 347 349 348 347 346 345 347 348 348 348 346 346 344
321 322 322 325 328 330 338 341 342 343 341 343 345 345 348 349 348 347 347 347 348 348 349 349 350 350 349 349 349 347 347 344 346 348 348 348 347 347 345 346 344 343 344 341
321 321 322 324 329 330 333 336 340 342 343 345 343 345 346 348 351 349 347 347 347 347 347 347 348 348 348 347 348 347 347 345 345 347 348 348 346 349 349 343 336 337 339 333
324 320 322 324 327 329 333 333 335 339 342 342 346 344 341 347 350 351 348 347 346 346 346 346 347 345 345 345 346 346 346 346 345 346 347 347 346 347 344 338 331 332 333 332
325 321 322 325 327 329 328 330 331 336 338 339 338 343 338 348 348 347 346 346 346 345 346 346 346 344 345 345 346 346 346 345 345 346 346 346 343 344 338 336 335 335 328 334
326 324 322 323 327 329 329 331 333 336 337 336 336 345 341 341 344 345 345 345 344 345 345 346 347 345 346 346 346 346 346 345 345 345 345 344 342 341 331 330 331 327 325 325
327 326 324 324 325 328 329 331 334 336 336 335 335 341 339 340 339 340 343 343 344 344 344 345 345 344 346 346 346 347 346 345 342 341 340 340 339 334 325 326 326 322 324 324
326 326 321 323 325 328 328 330 331 333 328 332 335 339 334 337 338 338 340 342 344 344 345 346 345 345 346 346 345 346 347 341 335 334 336 337 336 333 326 324 324 319 321 324
325 325 323 323 324 325 327 328 329 329 337 335 333 334 333 339 339 341 341 342 343 345 346 346 346 345 346 346 345 344 345 339 329 331 331 332 333 328 327 325 323 318 318 319
326 324 322 322 324 324 325 326 327 330 331 335 334 333 335 340 344 341 341 340 342 344 345 346 348 345 345 346 347 346 345 343 336 328 328 331 333 328 328 330 324 320 318 318
324 325 326 325 324 323 325 327 329 330 333 329 331 332 332 334 337 337 338 338 340 344 342 347 348 347 345 346 348 348 348 346 341 330 327 329 330 327 327 325 337 323 320 319
322 324 326 325 325 324 324 325 327 328 330 336 331 331 333 332 333 333 335 339 339 341 344 346 347 348 348 346 347 348 348 347 346 346 338 332 331 331 330 331 332 330 324 321
326 329 329 329 328 326 324 324 325 326 329 329 330 330 332 334 337 338 337 337 339 339 341 344 346 344 342 342 344 345 347 349 349 348 347 343 337 333 331 332 340 336 329 321
331 330 329 330 331 327 326 324 325 327 329 331 329 331 333 339 340 340 337 341 339 340 341 341 339 339 340 341 342 343 345 347 349 349 348 348 346 343 346 348 347 340 332 328
324 333 325 326 328 327 326 326 325 326 326 328 329 332 332 335 335 337 338 341 340 339 338 337 337 338 338 339 340 341 343 344 346 347 347 348 349 349 348 349 348 342 332 330
337 331 334 332 326 326 326 327 326 327 328 328 330 331 335 333 335 336 338 340 341 338 337 337 338 338 339 339 340 341 341 342 343 343 344 345 347 348 349 349 348 339 335 331
338 337 328 333 327 326 326 326 327 327 328 329 329 332 336 336 334 336 336 339 340 339 338 338 337 338 338 338 338 338 338 338 339 340 342 344 345 347 348 348 347 341 338 334
334 331 332 331 330 330 328 331 326 326 327 329 330 333 333 331 334 335 331 333 334 335 337 337 338 338 338 336 333 333 332 333 335 337 340 342 344 346 348 348 346 340 338 334
333 334 335 334 334 330 336 334 332 334 332 335 336 337 336 333 335 339 331 332 333 334 334 336 337 333 329 328 327 328 329 330 331 334 340 345 347 347 348 348 346 340 335 334
339 337 336 340 338 332 333 331 332 335 335 334 334 334 334 337 337 334 334 334 334 335 338 337 333 331 330 330 331 332 332 331 333 337 339 345 348 348 348 348 344 338 335 335
335 338 339 339 340 338 328 332 337 336 333 333 334 334 334 334 334 335 335 331 329 329 328 328 329 329 329 330 330 330 333 334 336 337 343 347 348 347 347 347 344 338 333 335
337 335 338 336 336 328 325 327 329 333 332 333 334 334 334 337 338 336 334 332 332 332 331 332 331 331 330 329 328 327 328 330 332 339 346 346 346 345 346 345 341 337 336 328
334 331 334 334 331 327 326 325 325 326 328 330 332 332 331 333 335 338 337 336 334 334 333 330 328 329 331 329 329 330 331 339 341 344 346 344 343 342 341 339 337 337 335 330
329 329 332 331 327 325 324 324 325 325 324 324 324 325 325 328 329 335 337 338 337 335 333 330 327 326 329 332 336 338 342 345 345 343 341 340 340 339 337 336 333 330 329 328
322 327 332 331 327 328 325 322 320 320 320 322 321 321 321 322 322 323 323 323 325 329 335 335 333 331 331 331 335 338 340 342 341 340 338 336 335 335 335 332 330 329 329 328

GFSCGP_850_thetae_012.txt.gz
Theta_e
322 325 326 329 332 334 337 339 340 340 345 347 345 345 348 349 349 348 350 350 348 346 346 349 351 352 352 353 354 355 354 354 352 351 352 352 351 351 351 351 348 349 348 346
324 324 326 328 330 333 336 337 339 341 345 346 345 346 346 348 350 348 349 350 350 347 347 349 351 351 351 353 355 356 356 354 352 353 353 352 352 350 351 351 350 349 349 347
325 324 326 327 328 332 336 337 338 343 345 345 344 347 346 345 347 348 348 348 350 349 348 348 349 350 351 352 355 356 356 355 355 354 353 353 352 351 352 350 350 350 347 347
324 325 325 325 327 331 336 335 337 341 344 347 345 346 343 344 347 349 349 348 346 349 349 348 349 349 351 352 353 355 354 350 354 354 355 354 351 348 346 347 346 347 347 348
326 324 324 324 326 329 334 335 337 338 342 343 346 347 342 343 346 348 349 348 346 344 347 348 348 348 350 351 352 354 349 347 351 355 351 355 354 348 348 348 347 342 346 344
327 325 324 325 326 328 332 334 336 338 339 343 343 345 341 341 345 343 346 347 347 344 343 345 346 347 349 350 352 352 350 346 347 349 348 353 354 351 348 348 345 343 344 344
326 326 324 324 325 327 331 335 339 341 340 341 341 343 341 338 339 340 340 344 347 344 343 343 345 346 349 350 351 352 351 345 346 346 345 346 354 353 352 350 345 342 342 342
328 326 326 325 325 328 330 334 338 341 339 339 339 341 340 339 337 336 339 341 346 346 342 343 344 345 348 349 350 351 351 344 345 345 345 344 345 353 351 350 343 341 340 339
329 328 327 325 325 328 330 335 335 337 337 337 337 339 338 337 338 339 339 341 344 346 343 343 343 345 347 348 349 349 349 342 343 345 344 343 343 344 350 350 342 342 340 339
329 329 328 326 326 327 330 332 335 336 342 339 337 337 339 338 336 336 341 342 343 345 345 342 344 344 346 347 348 350 351 350 344 345 339 341 341 338 339 342 331 329 335 323
330 328 327 327 325 326 328 331 333 335 335 337 339 337 336 336 336 336 337 341 341 344 346 345 344 345 347 347 347 349 351 353 351 345 336 338 340 337 333 331 324 324 322 319
331 330 329 325 326 326 328 330 333 335 338 336 336 336 335 336 335 334 334 335 337 341 345 347 347 346 347 348 347 348 349 350 350 335 331 333 339 335 335 328 327 327 325 321
330 331 332 330 326 325 325 327 330 332 334 340 337 336 334 334 336 336 338 337 339 342 345 347 348 349 349 348 349 350 351 350 349 349 348 343 340 344 337 329 332 332 330 324
325 329 330 331 330 328 327 325 327 329 334 334 334 336 335 334 334 334 333 336 338 344 345 347 348 350 351 350 351 351 352 352 352 352 354 353 344 343 346 338 337 332 333 330
325 334 333 330 330 329 328 327 326 327 328 333 333 334 335 335 335 333 332 333 339 344 345 347 348 350 352 352 352 353 354 354 353 354 355 356 357 356 354 351 339 337 340 338
329 336 335 334 332 331 331 330 329 327 326 328 329 331 332 333 332 332 332 333 336 345 345 347 349 351 354 354 355 355 355 355 356 356 357 357 358 358 353 353 348 343 342 344
331 333 337 336 332 333 333 333 332 331 328 327 328 329 330 333 332 333 332 335 338 343 345 346 348 350 353 354 355 355 355 354 355 355 357 357 359 357 353 351 349 347 346 346
335 337 337 337 337 338 332 332 332 332 330 328 328 329 330 333 331 332 333 333 334 343 345 346 347 349 352 352 353 353 351 343 346 348 351 355 356 354 352 348 347 347 347 346
332 336 337 337 336 334 334 337 334 332 330 329 329 329 330 330 331 336 339 339 340 343 346 347 347 350 351 349 350 346 346 340 339 339 340 342 343 350 348 346 346 346 345 344
333 335 337 337 336 337 339 335 333 336 338 331 330 330 331 330 335 335 340 337 338 341 345 346 345 346 343 345 345 342 342 335 337 335 336 339 345 350 347 347 347 346 345 343
338 338 335 337 338 336 336 333 335 340 335 339 330 330 329 333 338 341 340 341 341 342 344 345 346 347 346 344 342 342 346 348 345 335 334 337 346 349 348 348 348 346 343 339
338 338 335 335 340 340 331 334 340 339 339 338 338 336 337 340 340 342 343 344 346 347 347 347 347 345 342 344 346 348 347 337 333 333 337 339 341 348 349 349 348 345 341 338
336 334 336 336 337 332 330 330 331 335 339 339 339 339 340 340 340 342 341 342 342 341 340 341 342 344 343 345 341 333 328 328 328 329 337 339 346 348 347 347 346 343 340 338
335 335 337 337 335 332 330 329 330 333 336 337 338 338 339 339 340 341 342 343 342 342 342 342 342 333 328 328 328 329 329 330 333 335 339 346 347 345 345 344 342 340 339 337
334 335 336 335 332 329 327 328 328 328 329 330 331 334 339 342 342 343 344 343 342 342 342 340 336 325 325 325 325 328 333 339 344 345 347 346 344 344 344 341 339 339 337 337
324 332 336 335 329 331 327 323 323 325 325 326 326 326 327 329 329 331 332 334 339 343 344 344 332 331 330 333 336 338 342 345 345 343 344 343 342 341 339 337 337 336 334 332

GFSCGP_850_thetae_015.txt.gz
Theta_e
325 326 327 329 332 334 337 339 338 341 340 343 344 345 346 347 347 345 345 343 344 344 345 346 349 349 349 350 353 354 354 353 353 354 353 353 353 350 350 349 353 352 348 351
326 326 327 330 332 334 336 338 340 340 340 343 344 345 346 349 347 347 346 345 344 344 344 346 348 349 350 351 352 354 355 354 354 355 353 352 351 350 350 348 350 352 353 354
327 326 327 329 332 334 335 337 339 340 345 344 344 346 345 345 347 347 346 347 346 344 343 345 347 349 350 351 353 355 354 355 355 354 353 353 355 351 352 349 352 351 350 350
327 328 327 328 330 333 335 336 337 339 343 347 342 346 346 344 345 348 348 347 347 345 344 343 347 349 350 351 354 354 355 354 356 355 355 353 352 348 346 346 346 349 350 348
328 327 327 327 329 331 333 335 337 338 342 347 342 343 342 343 344 345 347 348 348 346 345 344 345 348 349 351 353 356 356 356 356 356 353 354 352 347 348 346 349 349 348 348
328 328 328 328 328 330 332 334 337 337 339 343 345 344 346 344 344 344 343 346 348 348 345 346 346 347 348 349 352 354 356 356 355 355 353 353 354 349 348 349 350 346 345 346
329 329 328 327 327 328 330 333 337 340 339 340 342 343 348 343 342 342 341 342 345 348 346 344 347 346 348 349 351 353 355 355 355 356 357 353 354 354 353 353 348 345 345 346
331 330 329 328 327 327 329 332 335 341 340 340 339 342 342 343 340 339 338 338 341 346 347 344 344 346 347 348 350 352 354 355 351 355 355 354 352 354 351 351 349 345 344 344
331 331 330 328 327 327 328 331 333 336 338 340 340 340 340 341 341 340 338 337 338 345 347 345 343 344 346 347 350 352 353 355 351 356 353 353 355 352 351 349 347 349 343 342
331 332 331 329 328 327 327 330 333 338 344 344 339 340 340 341 340 339 339 337 338 342 346 346 344 344 345 347 349 351 353 355 353 354 353 353 352 353 345 351 350 348 344 340
329 331 332 331 329 328 327 328 332 334 337 340 341 341 339 341 340 339 339 336 337 340 345 346 344 344 345 346 347 349 351 353 353 353 353 352 352 354 345 341 346 347 343 344
329 331 333 331 331 329 328 328 329 337 340 337 340 339 338 338 338 337 337 336 337 337 342 345 345 345 345 345 345 347 349 350 353 353 352 349 347 349 351 341 351 349 331 342
330 331 333 334 330 329 329 328 329 330 335 343 340 338 337 338 338 337 336 335 335 338 339 344 346 345 346 346 345 345 347 347 350 352 352 351 346 343 340 348 346 350 336 333
329 332 333 335 333 330 329 327 328 329 333 335 336 337 338 337 337 336 335 336 336 336 344 343 346 346 346 347 347 346 346 346 348 351 351 352 349 343 349 350 351 352 344 334
328 332 333 332 332 332 329 327 327 328 330 334 334 335 337 338 338 337 334 334 334 334 341 346 347 349 350 349 350 349 347 348 349 349 350 351 351 353 353 352 354 353 350 344
327 331 332 332 331 330 331 331 329 328 327 329 330 332 334 335 336 336 334 334 334 334 335 346 348 349 353 352 353 353 351 352 352 353 352 353 355 354 353 354 355 354 353 351
329 331 332 334 333 334 333 331 331 331 331 329 330 330 331 334 336 336 335 334 334 334 334 339 347 350 352 353 356 355 356 354 355 354 358 356 359 358 358 357 356 355 354 352
328 333 332 335 335 338 335 334 332 331 332 332 332 331 331 336 332 332 332 333 333 334 334 335 345 349 352 355 355 355 358 357 357 358 357 359 358 361 360 360 358 356 355 352
329 331 333 335 335 336 336 336 338 340 339 334 333 334 332 329 328 332 330 331 332 333 334 336 346 348 352 355 355 357 358 359 359 359 359 359 360 360 362 360 356 355 354 352
330 333 336 336 336 338 337 338 337 338 338 333 335 337 333 331 330 333 330 330 332 337 337 339 347 349 353 355 356 358 358 359 359 359 360 359 359 359 359 357 356 354 352 349
328 332 333 335 337 335 339 337 335 339 338 343 341 341 340 337 331 330 336 332 335 339 339 348 349 351 355 355 354 356 356 356 355 354 356 357 358 358 358 355 356 352 349 347
329 333 333 335 334 335 337 337 339 342 340 341 341 340 340 339 330 339 344 344 343 343 345 349 350 352 354 353 354 354 352 350 351 353 355 358 359 357 356 355 353 350 349 347
332 332 333 335 337 339 336 337 337 338 340 341 341 341 341 339 342 345 346 347 348 349 348 349 351 352 351 350 351 351 353 352 353 355 356 359 357 355 355 354 352 347 347 345
336 334 336 341 339 337 335 335 337 339 340 342 342 342 342 344 344 345 345 346 347 349 350 351 351 352 353 354 355 359 351 353 356 358 354 350 353 353 349 349 348 345 344 343
331 334 340 342 338 335 333 333 334 335 335 338 339 339 344 345 345 345 345 345 344 343 344 346 348 350 352 353 353 352 353 355 353 344 343 349 351 348 345 344 343 341 340 340
327 332 341 342 335 336 331 329 330 330 330 330 332 332 333 336 337 339 342 345 344 343 343 344 346 348 351 351 351 351 352 350 347 347 347 346 344 344 342 341 339 340 338 339

GFSCGP_850_thetae_018.txt.gz
Theta_e
329 328 328 329 329 332 333 337 338 341 341 340 349 347 344 343 344 342 342 342 343 345 345 346 347 347 347 349 350 351 351 351 355 354 353 350 352 351 348 349 351 350 350 346
328 328 328 329 331 331 333 335 339 341 343 343 344 351 347 347 345 343 343 342 342 342 344 346 348 348 348 349 350 351 352 352 351 354 353 351 348 351 348 349 348 351 349 346
327 327 327 328 330 332 333 335 337 339 341 342 341 342 346 345 345 345 344 344 342 342 342 346 347 348 349 350 351 352 353 353 353 352 352 350 353 354 354 352 348 351 349 348
329 328 327 327 329 332 333 334 335 337 342 344 342 346 349 346 349 347 346 346 346 343 342 343 346 349 349 350 351 352 352 353 352 351 356 352 353 353 351 352 349 346 351 346
328 328 327 327 327 331 334 335 336 336 339 345 347 346 347 347 349 350 348 346 346 347 344 343 346 347 349 350 353 353 353 354 352 352 353 356 353 350 345 346 347 348 351 348
328 329 329 328 328 329 332 333 335 336 337 341 344 345 346 348 346 343 346 346 346 347 347 344 344 346 348 350 353 353 354 355 354 353 352 354 355 348 351 348 348 348 349 346
330 329 329 329 328 328 329 330 336 338 340 340 341 347 347 346 345 344 343 345 346 347 348 346 345 347 349 350 352 355 355 355 355 352 354 350 356 350 351 349 348 349 340 347
330 330 329 329 328 328 328 329 335 339 339 339 340 341 346 346 344 342 343 344 344 347 348 347 347 346 349 349 351 354 356 356 356 354 354 351 350 354 347 353 351 349 345 345
330 330 331 329 330 328 328 328 330 333 335 338 339 339 338 342 345 342 341 341 341 346 348 348 347 348 349 350 349 352 356 356 354 354 351 352 348 347 349 351 353 350 345 346
330 332 331 331 330 330 328 329 328 330 337 340 339 342 343 344 347 345 343 341 339 338 347 348 347 348 349 350 350 351 354 356 355 354 351 348 344 338 340 351 350 349 351 345
328 331 331 332 331 330 328 328 328 329 332 337 341 342 343 346 348 347 344 340 339 338 345 346 348 346 348 350 351 352 354 356 356 355 354 348 345 335 335 349 353 351 348 347
329 329 333 332 332 331 330 329 328 329 335 333 336 341 339 342 342 344 342 340 338 338 339 344 347 346 346 347 349 352 354 356 357 357 354 350 346 335 333 339 349 351 350 346
331 330 333 331 332 333 331 329 330 328 330 335 336 338 338 342 339 341 341 339 339 339 340 345 347 346 346 347 348 351 353 355 358 359 355 355 345 339 331 333 335 347 347 342
332 330 332 333 334 332 332 331 330 329 329 331 334 337 339 343 343 341 340 337 338 336 344 344 344 347 346 347 347 349 351 353 355 359 357 353 346 337 330 334 338 338 341 335
329 332 332 331 331 333 333 331 330 331 332 332 332 336 339 339 345 342 339 336 336 338 339 339 341 346 347 347 348 347 348 350 351 354 356 354 346 345 343 345 346 348 347 344
328 333 332 332 332 332 333 332 331 330 330 331 331 331 334 337 337 342 336 336 339 337 339 343 342 344 348 349 347 348 347 349 348 349 353 352 353 353 352 353 353 355 354 354
330 329 334 333 332 333 334 334 333 330 329 329 330 333 335 335 336 340 340 336 339 337 336 337 344 345 347 353 350 349 348 348 348 348 350 351 351 353 352 354 354 354 357 356
333 332 332 334 334 335 333 333 332 332 332 331 331 333 333 334 332 331 332 335 336 336 335 334 335 347 347 348 355 354 351 349 349 348 351 351 351 353 353 354 353 354 357 356
328 332 333 335 333 331 332 333 334 333 334 333 334 337 335 332 331 332 330 330 331 332 338 336 334 334 345 348 353 355 357 353 350 355 351 356 354 357 357 357 357 358 358 358
326 333 333 334 335 337 336 334 338 337 338 339 340 339 339 339 341 340 331 330 330 330 332 334 335 336 345 349 353 355 356 360 355 355 357 356 362 364 364 363 362 361 361 360
330 332 333 332 333 331 336 338 336 340 340 343 342 342 340 342 343 341 339 336 332 335 329 330 335 346 348 349 355 358 357 361 361 359 362 363 362 363 365 365 364 361 357 355
329 329 333 336 337 337 338 337 337 343 341 340 341 340 340 340 339 339 338 340 340 340 335 335 346 349 352 353 356 360 360 361 362 363 363 362 362 363 362 361 360 356 354 350
327 329 329 333 334 346 337 341 340 339 341 345 346 343 339 338 339 340 344 346 345 345 345 347 353 357 359 357 359 360 360 361 360 360 360 360 359 359 359 356 355 353 351 348
330 334 335 334 339 340 339 339 340 341 344 344 346 348 348 344 346 347 348 350 350 351 351 351 354 356 357 357 360 359 358 355 356 357 358 359 356 354 357 354 353 349 348 347
332 331 338 341 342 338 338 338 338 339 340 339 340 340 342 344 345 348 347 349 351 352 353 353 354 355 358 359 359 358 358 357 359 357 355 356 358 356 353 349 347 346 344 344
324 332 339 344 335 337 336 334 333 332 334 334 335 334 335 337 335 336 340 345 345 348 350 353 355 356 357 358 357 356 356 352 350 352 355 352 349 347 347 347 345 343 341 341

GFSCGP_850_thetae_021.txt.gz
Theta_e
326 324 326 324 323 326 328 329 330 332 338 343 344 342 341 339 339 340 344 344 345 345 345 347 347 347 347 348 348 350 350 350 352 352 351 347 347 348 348 347 346 350 349 350
324 325 326 327 326 326 327 328 330 332 339 343 346 344 341 337 337 339 342 344 344 345 345 346 346 347 347 348 348 349 349 350 353 353 352 350 348 351 349 347 350 353 350 348
324 327 328 327 327 328 327 327 329 332 339 341 346 347 343 337 340 341 342 343 344 344 345 345 346 347 347 348 348 348 349 349 351 354 353 353 352 347 350 350 350 348 347 350
325 326 327 326 326 326 327 329 330 332 334 341 344 350 345 339 343 343 342 341 343 344 344 345 346 346 347 347 348 349 349 350 350 352 353 353 348 346 350 352 349 347 348 349
325 327 326 326 325 325 327 329 330 331 332 340 341 340 346 344 345 344 342 342 341 342 344 345 346 347 347 348 348 348 349 350 351 350 350 350 345 346 351 352 351 351 349 350
325 327 326 326 326 325 326 328 329 330 331 336 339 341 343 345 346 344 343 344 343 341 342 342 345 347 347 348 349 349 349 350 351 351 350 349 352 350 350 345 345 346 350 348
328 327 325 327 325 324 324 322 327 330 332 332 335 339 343 342 341 345 345 345 345 344 342 341 345 347 347 348 350 350 349 350 351 352 351 348 353 353 346 347 351 349 347 347
325 327 328 327 326 323 323 323 325 328 331 332 331 339 341 341 341 346 345 344 345 346 344 343 342 346 347 348 349 350 351 351 351 352 352 348 351 351 347 352 354 348 347 346
324 326 329 328 328 326 324 323 323 322 326 329 332 332 332 341 340 341 341 341 343 343 347 345 344 345 347 348 348 350 352 352 351 352 353 350 347 349 346 350 351 351 348 343
324 327 327 329 328 327 325 325 322 323 324 328 330 332 335 335 341 341 339 340 342 342 345 347 345 344 345 346 346 349 351 352 352 352 353 352 345 348 346 347 349 353 352 346
324 324 326 328 328 326 325 324 322 322 324 326 329 331 331 336 342 341 340 340 340 342 343 348 347 345 345 347 347 348 351 353 354 353 352 353 350 344 347 345 346 350 352 346
325 324 325 326 327 328 326 325 322 323 323 325 324 327 330 330 339 341 340 339 340 340 345 348 348 347 347 347 349 348 349 351 352 353 352 351 351 344 342 343 342 345 349 350
327 326 325 325 325 327 327 326 324 323 321 323 327 327 327 328 337 337 340 341 340 339 345 348 348 349 348 348 349 349 348 349 351 352 352 352 351 348 338 337 333 336 342 346
330 327 325 326 326 328 330 328 327 324 324 324 323 323 325 335 338 334 337 339 339 340 339 348 348 348 349 349 349 350 350 349 349 350 351 352 351 345 335 333 331 334 334 346
322 328 327 326 327 328 328 330 328 326 324 325 324 324 324 327 338 337 339 339 338 337 338 345 348 347 348 348 348 349 350 350 348 349 350 349 347 347 342 337 334 332 339 340
318 327 329 329 327 327 327 329 331 328 327 327 327 326 327 328 338 338 338 338 337 336 343 344 349 347 346 346 346 348 349 350 348 348 347 348 351 351 347 342 340 341 339 343
319 322 328 327 329 330 327 327 329 331 329 328 327 326 327 327 332 337 340 337 336 336 338 343 344 347 346 346 345 346 346 349 349 347 348 347 351 351 349 348 348 349 349 350
319 321 326 327 331 333 331 330 330 331 332 328 327 327 328 328 331 331 330 331 334 331 339 340 338 340 348 347 346 346 347 348 349 347 347 347 346 348 350 351 350 352 354 353
321 321 325 329 329 329 330 329 332 331 330 333 336 335 336 338 332 330 331 330 330 329 334 334 341 339 342 345 350 347 347 348 348 348 346 347 347 347 350 351 353 353 354 355
321 322 327 327 328 329 329 330 331 336 338 342 341 340 340 338 336 335 339 338 336 332 330 330 336 337 340 343 346 351 351 348 348 347 347 346 348 348 349 352 353 354 356 356
325 331 330 327 326 328 330 328 335 338 338 341 341 342 342 341 340 339 337 335 334 336 333 331 334 333 335 338 345 350 355 352 350 347 349 348 348 349 351 352 354 356 357 358
330 327 330 330 330 332 337 335 336 336 343 343 341 340 340 339 338 336 337 337 332 335 341 334 332 329 329 333 341 348 356 355 352 350 352 351 353 356 356 359 359 359 359 358
328 329 334 332 341 338 340 341 340 346 347 349 349 347 345 349 350 351 353 352 350 347 345 340 334 333 334 336 346 349 355 358 360 356 355 361 362 364 365 366 361 358 361 359
326 329 333 335 335 336 337 334 343 342 342 343 345 346 346 347 349 352 353 354 354 354 355 357 356 358 360 355 354 354 358 358 362 362 362 365 364 365 365 364 360 361 358 353
327 327 332 334 336 334 340 341 340 339 337 339 339 340 343 345 345 347 348 351 354 356 357 357 356 358 359 360 361 362 361 362 362 363 364 363 362 361 361 360 359 356 351 349
324 329 333 336 328 330 331 333 336 335 333 333 336 335 337 339 339 344 345 347 349 351 351 356 359 359 360 360 361 361 360 360 361 361 356 358 358 358 357 356 352 350 347 345

GFSCGP_850_thetae_024.txt.gz
Theta_e
323 323 325 322 321 323 325 325 325 326 329 339 340 339 338 347 348 348 348 348 348 347 345 345 347 348 349 346 348 350 351 351 350 349 345 344 344 348 346 346 348 347 349 348
320 321 322 323 323 322 323 324 325 325 327 339 340 341 337 341 344 346 346 346 347 347 347 346 346 346 350 348 348 349 350 349 351 351 351 349 345 343 344 347 349 347 349 350
320 321 323 325 325 324 323 323 324 325 327 343 341 342 342 338 337 341 344 345 345 346 346 347 347 346 348 348 348 348 348 349 350 350 351 351 350 345 346 349 347 346 350 347
320 323 324 324 326 324 321 324 325 326 327 334 339 341 343 340 335 337 341 343 344 344 345 345 347 347 346 346 347 348 348 348 349 349 351 352 351 348 346 349 347 347 345 348
323 324 324 325 326 325 324 324 325 327 326 327 331 339 339 341 341 337 337 342 342 344 344 344 345 346 346 346 346 347 347 348 348 349 349 351 352 349 347 344 350 350 348 349
323 325 324 324 325 325 325 322 323 326 326 328 329 338 338 340 341 338 339 340 342 343 344 344 344 345 346 346 346 346 347 348 348 348 349 349 349 349 347 344 351 351 349 350
326 325 323 325 323 323 322 319 320 323 325 327 326 335 338 338 340 339 341 341 340 342 343 343 344 345 345 346 346 346 346 347 348 348 349 350 348 348 343 346 351 348 347 347
325 326 325 323 322 324 320 319 320 322 324 326 325 333 336 336 340 341 342 342 341 340 342 343 343 344 345 346 346 346 346 347 348 349 349 350 350 347 343 347 350 345 345 347
319 323 324 326 324 323 322 319 319 318 321 323 325 328 328 333 336 340 342 342 341 340 340 342 343 344 344 345 346 346 347 347 348 349 349 350 351 347 342 348 347 346 349 348
320 320 321 324 325 326 322 320 320 315 320 322 322 327 330 329 334 336 340 342 342 342 341 341 341 342 344 344 345 346 347 347 348 348 349 350 351 349 342 348 346 350 350 349
321 319 321 323 323 325 325 322 318 318 319 321 321 324 323 326 328 334 341 343 343 343 343 342 341 341 342 343 346 346 347 348 348 348 349 350 350 351 343 342 345 349 351 351
319 319 320 321 322 325 325 324 319 322 319 319 322 324 327 325 326 332 337 341 343 344 343 344 344 342 343 345 346 345 346 347 348 348 349 350 350 351 347 341 342 347 349 351
322 318 321 320 320 320 323 324 323 314 316 321 322 322 322 322 326 338 338 339 339 340 340 342 345 343 344 345 346 345 346 346 347 349 350 350 350 351 350 341 340 341 346 348
316 321 321 324 324 322 322 324 323 322 323 322 322 322 323 322 326 328 330 331 340 339 340 340 345 345 345 345 345 346 346 345 346 349 351 350 350 349 348 343 338 336 340 346
314 316 320 320 322 324 325 325 325 323 324 323 324 319 319 320 320 323 327 334 339 339 339 341 345 345 346 346 346 346 346 346 345 348 349 350 349 348 347 345 341 337 336 340
312 316 317 323 325 324 325 325 326 325 325 323 321 321 319 321 322 327 329 329 336 339 339 337 342 345 347 347 347 347 347 346 347 348 348 348 349 349 348 346 343 339 336 336
313 314 316 320 323 324 325 326 326 326 325 324 322 322 321 322 325 328 331 334 336 336 338 339 343 343 346 347 347 347 347 347 348 348 348 348 347 347 347 345 345 342 337 336
315 316 315 320 321 325 324 325 325 324 326 325 324 323 323 324 326 328 330 337 336 334 333 341 343 345 347 347 347 347 348 348 348 349 348 348 348 346 344 343 342 343 343 342
315 317 319 321 324 325 329 327 326 324 325 327 324 325 325 328 328 336 332 329 331 333 334 335 340 345 345 347 347 347 348 349 350 350 348 348 347 347 345 342 339 344 348 348
317 317 320 322 325 327 326 328 328 328 330 339 335 335 334 330 327 329 337 335 333 329 333 333 334 342 347 344 345 347 347 347 347 347 346 346 347 347 346 343 345 346 348 349
327 325 322 322 327 322 324 327 333 333 332 339 338 337 335 336 334 339 337 336 334 334 332 332 330 333 336 343 346 346 345 346 345 345 346 350 348 348 346 347 348 349 349 352
327 329 329 327 328 327 329 333 330 330 340 339 340 338 338 343 347 347 342 335 332 333 331 334 335 331 335 335 337 338 347 344 344 346 348 350 350 349 350 349 350 351 353 354
327 327 330 328 333 326 335 338 344 345 346 346 346 346 345 348 350 347 348 349 348 341 339 337 332 334 331 331 334 337 343 344 347 348 348 349 350 350 350 350 352 354 354 355
325 327 329 329 331 330 327 330 337 341 343 345 346 346 348 351 352 353 351 349 347 349 352 346 339 335 333 332 332 336 333 336 347 350 350 350 349 350 351 352 352 353 355 356
325 326 329 330 329 329 326 327 334 334 339 341 341 343 344 347 349 352 353 353 352 354 358 360 360 356 356 350 333 334 338 347 352 353 352 354 353 357 358 358 359 358 358 354
323 327 328 332 327 325 325 327 330 329 330 334 337 338 340 344 345 347 349 350 350 350 351 353 352 350 356 360 361 353 353 356 357 355 354 357 361 363 364 362 360 355 350 351

GFSCGP_850_thetae_027.txt.gz
Theta_e
323 323 321 322 319 321 324 325 324 325 329 338 337 337 349 347 346 347 350 351 352 351 350 351 350 348 347 347 347 344 346 347 347 346 347 348 348 349 349 348 347 347 348 348
319 323 323 322 321 322 322 323 323 323 328 336 335 338 340 348 347 346 347 348 350 351 350 350 350 350 349 347 346 346 345 348 349 349 346 345 344 347 347 348 347 347 348 348
322 320 321 323 323 322 321 321 323 323 325 336 337 339 338 347 348 348 347 347 347 347 347 346 347 347 348 349 348 348 346 348 349 349 349 348 346 344 345 346 346 347 348 346
317 319 321 322 323 322 321 321 323 324 324 324 336 342 339 344 348 347 347 347 347 347 346 345 346 346 346 346 348 348 347 348 350 349 349 349 349 348 346 342 345 346 345 346
319 319 320 322 323 322 324 323 323 324 323 324 328 336 334 339 344 342 343 345 346 346 346 345 345 344 345 345 346 348 348 348 349 349 349 349 349 348 348 341 346 345 346 345
321 322 320 321 322 322 324 323 320 322 320 323 325 326 327 340 339 338 336 342 344 344 345 346 345 345 345 346 345 346 347 347 347 348 349 349 349 348 347 349 345 346 347 348
321 321 321 322 322 322 322 318 320 319 321 324 321 326 327 330 338 338 337 337 342 343 344 344 344 345 346 346 346 346 346 347 347 348 348 348 348 348 347 347 348 343 350 350
323 324 322 320 322 322 319 319 317 319 320 323 322 326 327 330 335 338 339 339 338 341 342 343 343 344 344 346 346 346 346 346 347 347 347 347 348 348 348 347 347 342 349 348
321 323 322 324 321 323 321 320 319 317 319 319 322 323 325 329 332 334 337 337 338 339 341 342 343 343 343 345 345 345 346 346 346 346 347 347 347 348 349 346 345 342 348 345
318 320 319 323 323 320 321 316 320 311 321 322 318 322 323 327 329 330 336 337 339 339 340 341 342 342 343 343 343 344 345 345 345 346 346 347 347 348 349 348 340 344 346 346
316 316 320 320 320 324 322 320 317 315 314 320 319 321 320 324 327 329 332 338 340 340 340 340 342 342 342 342 344 344 344 345 345 346 346 346 347 348 349 350 341 342 344 344
317 312 320 322 319 322 322 323 317 318 318 316 321 320 323 322 324 324 328 334 338 341 341 341 341 341 342 343 343 344 344 344 345 345 346 346 347 348 349 350 347 336 343 343
318 316 316 317 318 318 320 321 322 320 316 322 320 320 318 321 324 329 329 337 337 338 341 340 340 340 340 342 343 344 344 343 344 345 346 346 347 348 348 349 349 336 341 343
314 313 317 319 318 319 318 321 322 321 322 323 322 321 321 320 320 321 330 330 336 340 342 342 341 340 340 340 341 343 344 344 344 345 346 347 347 347 348 349 349 342 335 340
311 315 315 317 318 320 321 320 321 320 323 323 324 318 318 319 319 319 326 325 326 332 340 342 343 343 343 341 342 342 344 344 344 345 346 346 346 346 348 348 349 348 339 336
309 315 314 317 319 320 322 321 322 322 323 321 322 318 317 320 321 320 324 326 326 328 334 339 341 343 343 343 343 343 345 345 345 345 344 346 346 346 348 348 348 349 345 338
311 314 315 317 317 319 322 322 322 322 322 322 322 321 318 318 318 318 322 324 325 326 328 338 340 340 339 340 341 343 344 345 346 346 346 346 345 345 347 349 349 348 348 346
311 312 314 316 317 324 322 322 323 323 323 321 321 320 320 320 324 325 326 328 328 329 331 337 340 340 340 338 340 340 344 345 346 346 347 348 346 345 346 348 348 349 347 345
310 312 315 318 319 320 323 324 323 322 322 323 323 321 320 322 324 326 326 327 328 329 332 335 338 338 337 337 337 343 345 345 347 346 346 347 345 346 346 347 348 349 350 348
310 311 317 318 320 324 323 329 329 327 324 323 323 323 322 322 322 323 330 329 332 335 334 335 336 336 338 340 342 345 346 346 347 346 346 346 346 347 346 346 347 348 349 348
314 315 317 319 322 322 327 332 333 329 326 335 328 325 325 324 325 328 334 335 333 331 331 332 333 334 336 340 344 344 346 346 346 346 346 348 348 348 347 347 349 348 348 350
320 323 321 319 324 324 330 332 338 334 336 336 334 333 332 335 337 337 336 336 335 333 333 334 337 333 332 337 344 345 346 342 344 347 347 347 348 348 350 350 352 351 352 353
319 321 323 323 325 326 328 330 328 330 335 340 337 339 344 346 343 342 342 338 336 334 333 334 335 338 336 335 345 344 345 343 344 346 347 346 347 349 352 352 351 353 355 355
317 320 323 327 329 329 331 329 330 331 334 339 344 347 348 350 350 349 347 346 346 346 343 341 339 341 344 343 340 334 340 345 345 346 345 345 346 348 352 354 355 355 356 356
317 320 322 327 328 328 329 326 328 329 333 339 342 345 346 349 349 351 352 353 353 354 353 352 351 351 351 351 351 351 348 340 343 346 346 347 348 350 353 353 354 355 356 356
319 321 324 327 326 326 326 324 326 328 329 333 336 338 340 344 346 349 350 349 349 349 348 348 347 347 347 342 338 335 342 355 351 350 348 348 349 350 352 353 356 356 356 356

GFSCGP_850_thetae_030.txt.gz
Theta_e
322 321 322 320 318 320 322 323 325 324 326 336 335 337 346 347 348 349 349 349 349 348 346 346 345 345 346 346 345 345 346 343 344 344 338 344 346 346 347 347 347 346 346 346
317 322 322 321 319 321 321 322 322 322 323 333 333 335 345 347 347 348 349 349 349 348 349 347 347 346 346 346 344 344 344 345 345 346 342 340 344 344 346 347 348 347 346 347
321 320 322 323 321 321 320 322 322 324 323 329 334 334 338 347 346 347 349 349 349 349 349 349 348 348 347 346 346 345 345 343 344 346 347 344 345 346 345 347 348 348 346 346
318 320 323 321 323 320 319 319 322 322 321 323 330 332 336 340 347 345 345 348 349 349 349 349 348 349 349 348 348 347 346 346 344 346 347 348 346 345 344 344 346 348 346 346
319 317 320 322 323 320 323 321 320 321 320 321 325 330 331 335 348 348 346 346 346 348 348 349 347 345 347 349 348 348 348 346 346 345 347 348 348 347 346 346 345 343 345 345
318 319 320 319 320 321 321 322 317 317 317 321 321 326 322 339 341 346 346 347 347 346 346 347 346 346 346 347 347 347 347 347 347 346 347 348 348 348 347 347 348 341 344 345
320 320 319 318 320 320 321 318 320 321 321 324 319 322 326 328 337 341 343 344 346 347 346 346 346 345 344 344 346 345 345 346 347 347 346 348 348 348 348 347 347 344 344 345
320 320 320 319 319 319 318 317 318 322 320 323 318 322 323 324 332 337 339 340 341 343 345 346 346 345 345 342 343 345 344 345 345 347 347 347 348 348 348 348 348 345 343 342
318 320 321 320 320 320 318 320 316 316 316 316 318 320 322 324 325 333 335 337 338 337 342 344 345 345 345 344 342 342 343 343 344 345 346 346 347 347 348 348 348 348 344 342
319 321 320 321 320 320 318 316 320 312 321 320 318 319 324 325 327 327 332 335 337 337 337 340 342 343 344 344 343 343 344 343 343 343 344 345 346 346 346 347 348 347 345 345
314 316 319 319 321 322 318 317 315 317 314 319 318 320 317 323 325 326 328 334 335 337 338 338 339 340 341 342 343 343 343 344 344 344 344 345 346 346 346 346 347 348 346 343
318 310 318 319 319 321 323 321 314 318 317 312 315 320 319 319 323 324 326 328 331 333 334 338 338 339 341 342 342 342 343 343 343 343 344 345 345 345 346 346 346 347 349 341
316 314 315 316 318 318 319 321 316 319 314 320 319 321 321 318 320 323 324 327 331 332 335 338 338 339 340 340 341 342 342 342 342 343 343 344 345 345 345 345 346 347 348 346
313 312 314 318 319 317 317 318 319 320 322 322 320 319 320 319 320 320 324 326 328 335 332 335 338 339 339 340 341 341 341 342 342 343 343 343 343 344 344 345 346 346 348 349
310 315 315 316 316 317 318 319 319 319 321 322 323 322 321 319 318 320 325 326 330 329 331 331 336 339 340 340 340 341 341 342 342 343 343 342 343 344 344 345 345 345 347 348
307 314 314 316 317 317 318 319 320 320 319 319 321 320 317 320 321 320 322 323 324 326 327 326 329 339 341 340 340 340 341 341 342 342 342 343 344 343 343 344 345 346 345 348
308 312 313 316 316 317 319 319 319 319 319 319 320 320 319 318 318 319 321 324 324 326 326 326 327 329 336 341 342 341 341 341 342 342 342 343 344 344 343 344 345 346 346 347
308 310 311 314 315 319 318 317 320 320 320 319 318 320 320 321 323 325 326 325 326 326 326 326 326 328 330 335 341 342 342 342 343 342 343 344 345 344 345 344 344 345 345 346
307 308 311 315 316 317 317 326 330 330 328 321 321 320 319 321 321 322 324 324 325 327 327 328 328 330 335 338 339 342 342 342 343 344 345 344 345 345 345 345 344 345 345 346
307 308 311 313 317 320 321 330 330 331 333 327 326 321 321 319 320 322 327 325 326 327 327 328 330 334 336 339 340 340 340 341 341 342 342 343 345 345 346 345 345 345 345 346
308 310 311 312 318 318 319 328 332 330 329 332 332 333 322 321 324 327 327 325 326 328 329 333 333 333 335 337 338 338 339 340 339 341 343 345 346 346 346 347 348 347 348 347
310 312 312 312 317 317 324 328 335 330 331 332 332 335 336 323 325 326 328 333 333 332 332 334 332 331 332 337 340 341 342 342 343 345 346 347 346 346 347 349 350 352 353 352
312 314 316 313 314 316 323 329 330 329 331 332 331 335 340 328 329 334 338 341 340 338 336 337 336 337 337 334 340 343 345 346 346 347 347 347 348 350 352 352 353 350 353 353
311 312 315 318 319 322 325 328 328 330 331 333 333 340 345 339 348 351 353 354 354 353 353 351 348 349 349 349 348 345 339 342 344 344 344 346 348 350 353 354 354 354 350 339
309 309 312 315 318 326 327 326 330 329 335 332 338 345 344 349 350 351 350 350 348 348 347 347 347 346 344 342 341 339 339 338 340 347 345 346 345 347 350 353 355 354 355 355
307 309 311 314 317 324 325 325 329 329 330 330 336 341 341 342 342 344 344 344 345 345 345 344 340 338 336 334 334 333 334 333 333 334 334 337 346 346 348 351 353 355 356 355

GFSCGP_850_thetae_033.txt.gz
Theta_e
322 323 324 324 323 323 323 324 328 328 328 336 337 339 341 347 349 350 350 348 347 347 347 347 347 348 345 343 343 344 343 339 338 335 332 330 335 336 344 344 343 346 346 347
323 323 323 323 323 323 322 323 326 327 327 329 332 338 339 347 349 349 350 350 349 348 347 347 347 348 347 344 344 344 343 342 336 335 336 333 334 339 345 344 347 346 346 346
322 322 322 323 324 324 324 323 324 326 327 328 332 333 337 344 347 348 350 350 349 349 348 348 348 348 347 345 343 343 342 343 340 342 342 338 337 340 345 345 347 347 347 346
321 323 323 323 324 324 324 323 323 324 326 330 332 335 337 339 349 349 348 350 350 349 349 349 348 349 347 345 345 344 343 344 344 344 345 345 339 340 342 344 344 346 348 347
322 323 323 324 324 325 324 324 323 324 327 328 329 332 334 339 347 349 348 349 349 349 350 350 350 344 346 347 345 346 345 344 345 344 344 345 346 345 344 345 344 344 346 347
322 320 323 325 325 325 325 325 325 325 326 328 329 330 333 335 339 344 347 347 348 349 349 350 350 349 349 345 346 346 347 346 345 345 345 344 346 347 347 346 345 345 345 346
323 322 322 324 325 325 325 325 327 327 327 327 330 330 332 333 335 336 343 346 347 347 349 350 351 350 347 348 343 344 346 347 348 347 346 345 345 346 347 347 347 346 347 343
324 324 323 323 325 324 325 325 324 326 326 326 328 330 331 330 330 334 336 341 346 347 347 348 348 348 346 346 346 344 343 343 345 347 347 347 346 345 347 348 347 347 347 343
324 324 322 322 323 324 324 327 325 324 322 324 327 328 328 329 331 333 336 338 342 344 346 347 347 346 345 345 345 343 341 341 343 343 344 346 347 346 346 347 347 348 348 347
324 325 324 323 323 324 324 324 323 325 324 325 326 327 329 333 332 332 334 336 338 340 342 345 347 347 346 345 345 345 342 338 338 342 342 343 344 346 347 346 347 347 348 348
321 323 323 324 324 324 322 325 324 325 324 324 324 325 328 332 336 335 334 333 335 337 338 340 342 343 344 346 345 345 345 343 341 339 341 342 343 344 346 346 346 346 347 348
320 321 326 325 325 325 324 325 325 325 327 325 325 325 326 328 330 333 332 332 334 337 336 337 337 341 344 345 345 344 344 344 344 342 341 341 341 342 344 345 345 346 346 347
319 322 327 326 325 322 325 325 325 326 326 328 325 325 327 326 326 328 329 330 328 328 330 333 337 339 339 340 342 343 342 341 342 343 343 343 343 343 343 344 345 345 346 346
316 319 324 327 326 322 324 324 325 326 328 327 327 326 327 327 327 329 328 327 328 328 327 329 332 335 336 338 339 340 341 342 342 343 342 343 343 343 343 343 344 345 345 346
316 319 318 319 318 319 321 321 322 324 327 329 327 328 327 327 328 328 328 329 327 328 325 329 332 331 333 337 338 339 340 341 341 342 342 342 342 343 343 343 343 344 345 345
312 316 316 317 316 318 320 321 321 322 323 323 325 327 327 326 327 328 327 328 327 327 325 330 328 331 330 334 337 339 339 340 341 341 341 342 342 343 343 343 343 343 344 344
312 313 315 316 317 318 320 321 321 322 322 323 324 325 325 326 327 327 326 327 328 326 325 326 326 327 326 326 329 336 339 340 340 341 341 342 342 343 343 343 343 343 343 344
311 315 315 314 315 318 321 321 322 324 323 323 323 324 325 326 327 327 325 326 327 326 326 327 327 326 326 326 327 330 338 340 340 341 341 342 342 343 343 343 343 343 343 343
309 311 313 313 315 317 317 319 327 331 328 332 328 324 324 324 325 328 327 325 325 325 326 326 327 326 327 327 327 331 337 340 340 340 341 341 341 342 343 344 343 343 343 344
309 310 312 313 313 316 321 321 325 333 329 335 336 336 330 325 328 327 326 325 325 325 325 326 326 326 327 328 331 333 336 338 340 341 342 342 342 343 344 343 344 345 345 344
311 310 311 311 313 314 317 322 331 334 330 336 337 337 338 339 330 327 327 328 325 326 325 325 326 326 329 335 334 336 338 339 340 341 342 343 345 345 346 348 349 350 350 351
310 313 312 312 312 312 316 318 321 332 332 332 333 336 338 338 338 338 331 327 327 328 328 328 328 330 332 333 335 337 339 340 340 340 341 342 342 345 348 349 350 350 351 354
312 311 314 313 311 313 315 319 320 327 328 330 334 336 337 337 338 340 333 343 343 338 335 335 333 331 331 334 339 339 340 341 342 343 344 344 345 346 349 350 351 350 347 352
310 312 314 314 312 315 313 314 318 328 329 333 334 336 336 337 341 340 346 348 351 345 343 346 346 341 338 336 336 338 340 340 341 343 344 345 346 347 350 353 351 351 354 354
310 311 312 313 313 313 313 314 318 323 327 329 335 335 335 341 345 347 351 351 349 347 346 344 343 343 343 342 342 341 341 339 339 341 343 344 344 344 346 349 352 345 343 354
309 311 312 312 312 314 315 316 320 327 327 331 334 334 336 341 343 346 345 344 343 341 339 339 338 337 335 335 334 334 334 333 333 333 333 334 336 340 346 350 347 351 352 354

GFSCGP_850_thetae_036.txt.gz
Theta_e
324 326 328 328 329 331 332 333 334 335 335 334 336 338 338 343 347 348 350 350 350 349 348 347 348 347 348 349 349 350 350 347 346 345 347 346 344 343 343 346 346 345 345 346
324 325 325 326 327 327 329 329 332 334 333 332 336 338 338 343 347 348 349 349 350 350 349 348 348 348 348 349 350 352 350 347 341 348 345 345 343 342 343 347 349 343 345 346
324 324 325 325 326 327 327 329 331 332 333 332 333 336 337 338 344 346 348 349 349 350 350 348 347 347 348 349 350 351 348 346 342 347 348 346 344 343 344 347 351 351 346 347
325 325 324 325 325 326 328 327 328 329 331 333 335 339 339 338 341 343 344 349 349 350 350 349 347 347 348 350 351 351 349 345 346 342 347 344 344 344 344 347 350 351 348 349
324 324 324 325 325 325 325 326 327 328 328 331 333 335 337 338 339 341 343 345 349 350 350 350 349 346 347 349 350 352 351 343 346 343 344 346 347 346 346 348 350 351 352 348
325 324 324 325 325 325 325 326 326 327 327 331 333 335 337 338 339 339 341 344 347 349 349 350 350 348 347 348 351 353 352 343 343 343 343 344 348 349 349 350 351 352 352 352
324 325 325 325 326 326 325 327 328 327 328 329 332 334 336 336 337 338 339 341 346 349 349 350 351 351 349 348 350 353 354 346 344 344 344 344 344 345 350 353 353 352 351 350
327 326 325 326 326 327 326 327 327 329 328 328 330 333 335 335 334 334 335 336 342 347 349 349 350 352 352 351 349 350 350 345 346 346 345 345 345 348 351 352 353 354 351 350
329 328 326 326 326 327 328 328 327 327 328 329 329 330 331 333 334 335 334 335 337 345 348 349 350 351 353 354 353 351 346 339 343 345 346 347 346 346 352 351 350 354 353 352
328 330 327 325 326 327 328 327 327 327 329 329 328 330 332 333 333 334 335 336 336 340 346 347 349 350 352 353 354 354 345 340 336 340 343 345 347 347 347 347 347 349 353 351
327 329 330 327 326 327 327 328 328 328 328 329 329 329 331 332 334 334 335 335 336 339 343 346 346 347 349 351 353 354 355 348 344 340 338 340 342 344 344 346 346 346 347 349
326 328 331 328 327 326 327 327 328 328 330 328 329 329 329 330 331 334 333 334 335 336 338 341 343 345 347 349 350 351 353 355 353 344 340 337 338 340 341 342 344 345 346 346
326 327 331 330 329 327 327 327 328 328 329 331 329 328 330 330 331 331 332 333 334 335 338 340 341 341 344 347 350 350 351 352 353 353 347 343 338 339 341 340 340 342 344 346
319 327 330 332 330 329 328 328 328 328 331 329 331 330 329 328 330 330 329 330 332 334 335 336 338 339 340 343 346 349 349 350 352 353 354 351 343 340 339 339 339 341 343 345
320 327 326 329 326 325 329 328 328 329 329 330 330 331 331 330 330 330 330 329 329 331 334 335 338 339 344 344 346 349 350 349 350 352 354 353 343 343 342 341 341 342 343 343
316 324 323 325 323 323 325 326 327 328 329 330 330 331 331 330 329 329 329 329 329 330 329 330 333 341 344 341 343 348 349 348 349 350 350 352 350 345 343 344 344 343 343 343
315 318 321 326 324 323 325 326 327 327 328 329 331 330 330 330 330 329 329 329 329 330 330 331 332 336 339 341 332 336 334 347 348 345 347 348 349 346 344 347 347 344 343 344
315 316 318 323 323 325 326 327 327 326 327 327 328 328 329 329 328 327 328 328 328 328 328 331 331 332 334 337 337 340 346 340 340 342 345 342 345 345 348 348 344 344 345 345
312 315 317 320 322 324 324 323 324 326 328 327 328 328 328 326 326 327 326 327 329 329 330 331 331 331 332 334 335 337 343 348 347 340 340 342 343 352 356 350 348 353 356 355
311 313 315 317 320 323 323 323 322 325 331 329 332 333 336 335 330 329 327 328 329 329 330 330 330 331 332 330 333 336 342 346 343 334 342 345 344 346 346 346 351 352 357 357
311 313 314 314 316 319 320 324 328 329 338 334 334 336 337 340 340 339 338 337 336 335 333 333 334 333 333 330 329 328 339 343 344 352 353 352 343 343 344 345 346 347 346 354
313 313 313 314 315 316 316 317 321 325 324 329 330 330 332 333 334 336 338 341 341 339 333 335 338 334 333 332 330 333 335 340 346 352 354 353 347 352 356 350 349 350 355 354
313 312 313 313 314 315 315 316 318 318 319 321 326 327 330 332 334 335 337 342 344 338 338 343 340 341 333 330 332 335 336 343 348 348 345 352 356 355 354 355 356 358 357 356
311 312 314 314 313 314 313 314 314 315 316 321 322 323 326 330 331 334 340 346 343 346 351 351 353 350 350 338 342 341 338 339 340 341 345 352 356 356 356 358 359 359 359 358
312 313 313 314 315 314 312 312 313 315 314 315 317 323 325 326 331 334 344 348 349 354 355 356 356 354 353 353 353 352 344 343 348 349 355 357 356 353 357 354 359 359 358 358
310 312 313 314 313 313 314 313 313 312 312 318 320 325 325 326 334 341 347 350 353 351 349 348 347 346 344 343 342 342 346 355 354 353 353 353 353 356 357 358 359 357 357 356

GFSCGP_850_thetae_039.txt.gz
Theta_e
332 336 339 335 340 338 335 338 339 341 339 339 339 340 340 341 345 347 350 351 351 349 347 346 347 347 346 347 349 350 350 349 350 350 350 348 347 347 346 345 346 350 352 353
334 336 333 332 333 337 338 338 340 339 338 339 339 340 339 341 345 347 349 350 350 350 349 347 347 347 346 347 349 350 351 350 350 350 349 348 346 345 345 344 347 351 354 354
330 331 330 328 331 336 335 336 337 338 338 338 338 339 340 340 343 347 348 349 350 350 350 349 347 347 347 348 349 351 351 351 350 351 350 349 347 345 344 344 347 351 353 355
328 328 327 327 328 329 331 332 334 334 337 340 337 339 339 339 342 345 348 348 349 350 350 350 348 347 347 348 350 351 351 351 351 348 350 349 346 344 344 344 345 351 353 355
329 326 327 327 327 327 328 329 331 332 334 336 338 340 339 339 340 343 344 346 348 348 350 351 350 348 346 348 349 352 353 353 353 351 348 350 348 345 345 345 346 349 353 354
329 326 328 327 327 327 328 328 329 331 332 335 336 337 339 338 340 341 341 341 345 348 349 350 350 349 347 347 349 351 353 352 352 352 346 350 350 346 347 347 348 351 352 355
328 329 327 327 328 327 327 328 328 329 332 333 334 336 337 338 338 339 340 341 341 346 349 350 350 350 348 346 348 350 353 354 354 351 352 343 346 346 351 348 350 350 350 349
328 329 328 328 328 328 327 327 328 330 330 330 332 336 336 336 337 337 338 339 341 343 348 350 351 350 349 347 348 349 352 353 351 345 346 343 341 352 352 352 352 352 350 349
330 330 329 328 328 328 329 330 328 329 331 330 330 332 333 335 336 337 338 338 339 342 347 349 350 351 351 349 349 350 351 351 344 342 343 343 343 343 354 354 352 356 354 350
331 333 331 328 328 328 330 330 328 329 333 332 331 333 333 334 336 337 338 338 337 340 345 349 349 351 352 352 350 350 352 354 344 343 344 344 344 344 345 353 353 356 355 354
330 333 333 332 329 329 329 331 329 329 330 331 333 333 333 335 336 335 337 336 336 337 343 348 349 350 352 353 353 353 353 355 354 345 346 347 345 345 345 346 348 349 351 355
329 331 333 333 329 329 329 330 331 331 333 330 332 333 332 333 334 335 335 336 336 337 340 346 347 349 350 352 354 355 356 356 357 355 348 344 343 343 344 345 347 347 347 348
329 331 334 335 332 330 330 330 330 331 331 333 331 332 333 332 332 334 335 335 336 338 339 342 345 348 347 349 352 354 356 357 357 358 357 354 346 344 342 342 341 344 345 347
322 329 333 336 335 331 330 330 330 331 334 332 333 332 332 332 334 334 334 335 336 337 338 340 342 343 344 346 349 351 353 355 356 357 359 359 357 346 340 340 338 338 340 342
324 330 331 332 333 332 331 330 330 331 331 332 332 333 333 333 333 333 332 333 334 335 336 336 338 340 342 344 347 351 351 351 353 355 357 358 359 358 354 346 339 336 338 339
322 326 330 333 332 331 330 332 331 330 330 331 332 333 333 333 331 331 331 331 331 332 332 334 336 339 342 343 344 347 352 351 351 353 355 357 358 360 359 356 348 339 337 337
319 324 329 332 331 330 331 331 332 331 331 331 332 333 333 333 333 332 332 332 332 332 331 332 332 333 338 343 347 347 349 352 352 351 355 355 357 358 360 359 358 351 342 340
317 321 324 328 330 334 331 331 330 331 331 331 332 333 333 333 332 332 332 331 331 331 331 331 331 332 338 338 337 345 348 351 350 353 352 355 356 359 358 357 358 359 357 351
315 317 322 325 329 330 329 329 330 330 330 330 331 331 331 330 330 330 330 330 330 330 331 332 332 332 332 334 335 338 343 347 350 347 348 350 358 358 360 354 351 354 359 357
314 316 318 323 326 331 329 328 326 329 331 330 330 331 331 330 332 331 332 336 339 338 338 338 333 332 333 334 334 336 337 339 346 344 346 350 354 359 360 357 355 354 357 356
313 315 317 319 323 325 326 328 326 329 339 332 331 332 334 337 339 339 338 338 339 341 342 341 340 337 338 338 336 337 339 341 339 348 353 356 354 358 357 354 358 355 356 360
317 315 316 318 319 322 322 322 327 327 327 327 331 332 332 333 335 335 336 337 339 340 343 343 341 336 340 342 340 340 341 338 344 346 352 355 356 357 359 356 358 359 360 360
313 315 317 316 318 319 319 319 319 320 321 321 322 325 327 328 329 331 334 335 337 343 346 345 339 338 343 344 347 349 346 347 348 350 352 355 358 357 357 359 360 362 361 360
313 314 315 315 316 316 315 316 316 317 317 318 318 320 321 321 324 328 329 334 337 344 348 347 348 348 350 353 354 354 354 358 355 354 355 356 359 359 360 361 363 362 362 362
313 314 314 314 314 314 314 314 315 315 315 315 316 318 317 319 322 327 329 334 338 345 351 354 355 357 356 359 359 359 360 360 359 360 361 361 362 362 363 361 362 362 361 361
311 313 315 315 314 315 315 314 315 315 315 315 316 316 316 322 325 328 330 337 341 348 354 355 354 355 353 355 357 361 362 360 360 360 361 360 360 362 362 363 363 361 361 361

GFSCGP_850_thetae_042.txt.gz
Theta_e
332 332 335 334 337 340 341 340 339 342 343 340 340 340 342 341 343 350 350 351 349 348 348 348 347 346 347 346 347 347 347 347 349 349 349 350 347 347 347 347 345 347 349 347
334 335 333 334 336 338 340 339 336 339 340 341 340 340 339 343 344 350 351 352 351 349 348 348 348 347 346 347 348 348 347 348 350 348 349 347 349 347 347 346 346 345 348 348
335 334 333 334 336 336 339 339 337 338 341 341 341 341 341 341 340 345 349 350 351 350 349 348 348 347 347 348 348 349 349 349 349 349 350 349 348 347 347 346 344 346 348 350
334 334 333 334 335 333 338 339 338 338 340 342 340 342 344 340 342 346 347 349 351 351 350 348 348 348 347 348 348 348 349 349 349 349 351 350 347 347 347 346 345 346 347 346
336 333 333 334 333 332 332 333 337 337 337 338 339 340 340 340 341 346 347 348 349 351 350 350 348 348 348 347 350 348 348 349 350 347 352 350 350 346 345 345 344 345 349 352
335 331 330 329 330 329 329 332 333 333 335 338 336 339 342 341 342 341 344 348 348 350 351 351 350 348 348 348 351 351 349 350 349 348 345 353 349 348 345 345 345 345 350 354
335 335 330 329 328 328 328 328 330 331 334 334 335 336 340 339 341 341 345 343 348 348 350 352 352 350 348 349 350 352 350 351 350 348 341 344 352 350 346 346 346 347 350 351
332 333 333 328 328 329 328 328 329 333 332 331 333 336 337 337 338 338 341 341 343 346 349 351 353 352 349 349 350 352 352 351 351 349 344 339 345 351 344 346 350 348 350 352
332 331 331 330 329 330 328 329 328 328 330 330 331 332 333 337 337 338 337 340 342 344 347 349 353 352 351 349 349 350 352 350 350 346 343 341 340 342 339 345 348 352 350 352
329 331 330 330 330 329 329 329 328 329 332 334 331 336 335 336 339 338 339 339 341 343 345 350 352 353 352 349 349 350 351 350 348 347 340 336 334 337 339 340 350 350 355 350
327 330 331 331 331 330 329 330 329 328 329 331 333 334 337 339 338 339 339 338 339 343 345 348 352 353 353 351 350 350 352 354 353 351 344 341 339 340 339 340 343 350 352 358
329 328 331 331 332 330 330 329 331 333 335 332 334 333 334 336 338 338 338 338 337 340 345 347 350 352 353 353 352 351 352 354 354 351 349 343 340 341 342 342 343 344 349 350
324 330 332 332 334 332 331 330 330 331 330 336 334 332 335 336 338 337 338 336 338 339 343 347 349 351 353 354 354 353 353 354 357 360 359 357 351 350 345 343 343 344 344 346
321 328 332 335 335 335 333 330 331 330 334 332 333 334 333 333 333 339 337 336 338 340 339 346 347 350 351 353 355 355 355 355 356 358 361 360 359 357 354 350 347 344 345 344
325 330 331 332 333 334 331 330 330 332 334 334 333 334 335 336 336 337 336 337 338 340 341 344 346 349 350 351 354 355 355 357 357 356 360 359 359 359 359 359 355 349 345 344
321 327 330 333 333 333 334 331 331 331 330 332 333 333 335 336 334 336 336 335 336 337 338 339 339 341 342 351 351 352 354 356 356 358 358 359 359 360 360 359 358 357 353 349
319 324 328 332 332 334 335 334 332 332 332 331 334 336 336 337 337 337 334 333 333 333 333 334 336 337 340 342 348 353 352 353 354 356 357 359 360 360 360 359 360 360 355 354
316 320 325 329 332 336 334 333 333 333 332 332 333 335 337 338 335 333 333 333 333 333 333 332 333 333 333 335 340 345 351 354 351 353 353 355 358 360 360 360 360 360 360 357
315 317 322 328 331 333 333 332 333 332 333 332 334 334 333 333 334 334 333 333 332 332 332 332 334 333 333 337 341 344 344 348 352 352 353 353 356 358 359 360 359 360 360 360
315 317 319 325 329 332 333 331 331 331 333 334 332 332 333 332 333 342 341 341 341 342 343 342 343 339 338 339 337 340 343 346 346 343 342 348 351 354 358 360 360 360 359 359
315 316 318 321 324 328 329 327 328 332 338 334 335 335 332 336 340 339 339 339 340 341 342 342 343 342 337 335 335 336 341 342 343 342 344 347 346 346 352 359 363 362 361 362
316 316 317 319 322 326 323 324 330 331 326 326 328 329 332 333 334 333 333 335 337 338 340 346 345 343 339 333 337 338 336 337 337 340 342 347 348 349 352 360 363 365 364 363
314 317 318 318 320 325 319 320 319 320 322 323 322 322 325 327 326 325 327 330 331 336 339 346 350 344 340 339 344 343 339 338 339 344 349 347 350 352 356 361 363 366 365 364
314 314 316 316 317 319 317 317 317 317 318 318 318 319 319 322 322 321 323 328 331 334 338 343 351 354 351 350 353 351 346 346 348 345 347 353 355 356 359 359 363 363 363 363
312 313 314 315 316 316 315 315 316 316 316 317 317 317 318 319 320 319 324 328 330 336 337 346 355 359 361 358 360 360 360 356 358 357 358 357 358 360 362 360 364 364 362 365
311 312 314 316 315 315 316 315 316 317 316 316 317 317 318 318 319 321 321 325 330 336 344 349 354 353 358 357 361 363 362 362 362 361 360 360 361 362 362 365 359 363 364 362

GFSCGP_850_thetae_045.txt.gz
Theta_e
326 326 326 324 327 330 338 341 341 340 343 342 341 337 347 344 348 349 349 349 349 348 349 350 349 348 348 345 343 343 344 346 347 347 340 338 337 344 346 347 347 345 347 348
328 329 327 328 328 329 336 339 341 339 338 340 338 338 339 345 349 349 349 349 349 348 348 348 347 348 346 345 344 344 344 346 346 347 346 339 338 340 341 346 347 346 346 346
329 331 331 331 329 330 333 337 338 338 335 336 339 339 339 346 347 343 346 348 349 349 348 348 346 346 346 345 344 344 345 345 344 346 347 345 342 347 346 346 345 347 346 345
329 331 332 332 331 331 333 335 338 339 337 340 340 341 338 339 347 348 351 351 347 348 348 348 346 346 346 346 346 345 345 345 344 345 348 347 340 345 346 347 346 344 345 344
329 332 332 332 332 332 334 333 335 337 338 337 340 340 339 336 339 349 351 349 346 349 348 348 347 347 347 347 347 346 346 347 346 346 347 346 342 343 345 348 347 345 344 346
328 333 332 332 331 332 333 332 331 335 336 338 334 340 340 338 338 349 349 349 348 350 349 348 348 347 347 347 348 347 347 347 347 346 347 346 343 344 345 345 347 345 344 345
328 329 333 332 332 331 331 329 329 330 333 336 330 332 332 336 336 339 345 348 348 349 346 349 349 348 348 347 348 348 347 347 347 346 345 346 341 344 342 342 343 345 345 345
328 330 332 333 330 329 331 329 327 331 332 332 328 330 331 331 334 337 344 348 348 348 350 350 349 348 347 348 347 348 347 347 347 347 344 343 345 345 344 340 342 344 345 346
324 326 333 333 329 327 327 327 324 323 326 326 327 327 328 329 331 331 336 347 347 347 350 350 349 349 348 348 348 348 348 347 347 347 346 340 340 341 340 341 342 345 346 348
324 322 330 333 333 328 325 324 324 323 324 326 327 328 329 328 328 330 331 340 346 348 351 351 350 349 348 347 347 349 348 348 347 348 348 339 335 339 340 338 338 344 347 347
319 322 322 327 331 331 325 325 324 322 322 325 328 329 328 329 329 330 331 335 341 347 351 353 352 350 350 349 348 348 349 349 349 348 349 348 341 337 338 338 334 338 347 349
318 321 323 323 327 330 327 325 324 325 324 323 323 327 330 331 330 330 332 334 340 345 350 353 352 351 351 350 349 348 348 349 349 348 347 347 346 340 338 338 335 334 338 347
318 321 326 325 324 326 328 326 325 323 324 325 325 326 332 330 331 331 334 334 338 344 348 352 353 352 352 351 350 349 348 348 347 349 348 347 347 344 336 334 335 337 335 338
318 320 322 328 326 327 329 328 326 324 326 326 328 328 331 332 332 333 336 338 336 341 348 350 353 353 353 352 351 350 349 349 348 348 348 348 345 343 338 334 336 339 339 338
314 318 323 327 328 330 330 329 328 326 325 329 327 330 331 336 335 336 336 337 338 339 346 350 352 353 353 353 352 351 351 350 350 350 349 347 346 344 342 341 338 338 341 342
311 318 323 331 330 330 332 331 329 328 327 327 328 327 331 333 337 335 336 338 340 341 346 348 350 352 354 354 353 352 352 352 352 352 352 353 353 354 352 349 344 341 340 342
311 315 320 329 331 332 334 333 330 328 328 327 327 328 333 334 335 333 334 333 333 333 334 338 339 349 352 354 354 353 353 353 353 353 354 354 355 356 356 356 357 352 347 347
311 313 318 326 330 334 331 332 333 330 329 328 327 334 332 333 337 335 333 332 333 336 333 334 335 335 337 348 354 353 353 354 354 355 355 355 356 356 357 357 358 358 357 355
311 312 317 325 330 331 332 328 328 333 336 334 337 334 335 337 339 341 341 341 342 342 342 341 340 338 338 336 336 350 355 354 355 356 356 356 357 357 358 358 358 358 358 359
312 314 318 322 330 335 326 325 323 328 334 328 332 338 334 338 342 340 338 339 340 341 342 341 338 339 337 338 339 342 341 346 355 355 354 355 357 357 357 357 359 359 359 358
314 315 317 319 324 328 321 321 327 334 332 324 324 328 329 330 331 330 332 335 336 338 342 342 339 339 342 337 335 338 348 350 346 344 349 352 351 352 353 354 356 358 359 360
317 318 317 318 322 327 319 320 321 325 323 322 321 321 324 323 322 321 327 331 332 333 335 346 344 341 342 341 335 332 333 339 347 350 348 344 344 344 346 349 353 357 360 361
315 314 314 316 316 317 317 318 317 318 318 318 318 318 319 320 321 320 321 329 329 332 334 341 348 352 350 346 339 337 338 338 340 336 343 347 347 345 348 349 350 358 361 363
311 312 312 313 314 314 316 316 316 316 316 317 316 317 317 318 319 320 321 325 328 331 331 342 351 357 359 359 355 350 346 345 345 342 343 341 342 348 350 353 354 356 360 364
310 311 310 310 311 311 314 312 312 313 313 316 317 318 317 317 319 319 321 321 322 325 328 334 345 351 354 356 359 359 357 354 349 347 347 346 342 349 354 357 360 359 362 363
308 308 310 310 309 309 309 310 310 310 311 313 315 316 318 318 317 320 320 320 320 322 324 327 335 350 355 352 349 353 357 361 362 363 359 358 358 359 358 358 359 361 365 362

GFSCGP_850_thetae_048.txt.gz
Theta_e
320 318 319 320 320 322 329 333 336 338 340 347 345 346 345 351 350 351 350 349 349 348 346 347 347 344 346 346 345 345 343 345 343 342 342 340 346 344 345 346 347 347 346 347
322 321 320 323 322 322 325 328 334 337 337 340 344 345 345 350 350 350 350 350 350 349 349 348 347 345 345 346 346 346 344 344 344 345 343 338 343 341 343 345 347 347 346 346
323 326 325 325 325 324 325 326 328 336 337 336 340 342 346 345 349 350 350 350 350 349 349 349 349 345 344 346 347 347 344 343 344 344 345 341 336 340 341 344 346 346 347 347
324 325 327 327 327 326 325 326 328 333 336 337 338 344 340 345 348 348 349 349 349 348 348 349 350 349 348 348 347 347 343 343 343 343 343 343 337 334 334 339 345 346 346 348
322 325 326 327 328 328 327 327 328 331 334 335 336 340 340 345 352 348 345 344 343 348 348 347 348 350 349 348 348 344 343 343 343 344 344 340 342 334 334 339 344 345 344 345
322 324 326 328 329 329 328 329 330 330 330 336 335 337 338 348 351 348 344 344 342 347 348 347 347 347 348 348 347 344 343 343 344 344 344 343 340 339 335 340 345 347 345 344
322 322 325 329 329 329 329 328 332 331 332 333 331 331 335 344 348 346 345 346 346 348 347 348 347 346 346 346 346 345 344 344 344 344 345 344 340 341 335 338 343 346 346 344
320 321 323 326 329 331 329 328 329 334 330 330 326 332 333 330 335 347 346 347 349 345 346 347 347 347 346 346 346 346 345 345 345 345 346 345 341 340 339 335 338 345 345 344
317 321 326 327 328 329 329 329 324 322 322 324 326 327 326 326 327 344 348 349 349 346 344 348 347 347 347 346 346 346 346 346 346 346 346 346 343 339 338 335 337 338 341 342
316 318 322 327 326 328 327 325 326 318 327 323 323 324 329 326 325 325 346 349 349 347 348 347 347 348 347 347 347 347 346 346 346 346 346 346 345 342 339 338 336 337 338 343
313 314 321 322 322 329 325 327 324 324 318 324 322 325 322 324 324 324 333 347 348 347 349 346 348 348 347 347 347 347 347 346 346 346 346 346 346 346 343 339 337 337 337 340
313 316 320 322 322 322 331 322 321 323 320 318 320 325 326 324 324 324 326 345 346 347 348 346 348 348 348 347 348 347 347 347 346 345 346 346 346 346 345 340 336 334 335 337
313 319 319 321 320 321 322 327 320 318 317 319 323 324 322 324 325 328 328 328 345 347 347 346 349 348 348 347 348 347 347 347 347 346 347 347 347 347 346 342 337 334 334 335
313 316 317 321 321 320 322 323 322 322 322 321 322 324 324 324 325 329 328 328 336 345 346 347 350 349 348 348 348 348 348 348 348 347 346 346 347 347 345 342 339 335 333 334
311 314 312 314 316 319 321 327 325 322 322 323 323 324 324 323 326 328 330 331 337 345 348 350 350 350 349 349 349 349 349 349 349 348 347 343 342 344 343 340 338 335 333 333
308 311 310 312 320 323 326 330 329 324 324 324 322 323 323 327 332 334 337 334 339 345 349 351 351 350 350 350 349 349 350 350 349 349 349 348 346 342 341 340 337 335 333 332
309 309 310 317 324 329 330 325 330 326 323 323 324 322 330 332 336 337 329 335 340 344 348 351 351 351 350 350 350 350 350 350 350 349 349 349 349 348 346 345 344 342 340 336
309 309 308 315 321 332 325 321 322 328 326 326 331 332 332 339 339 340 342 343 342 342 344 347 351 351 351 351 351 350 350 350 350 350 350 350 351 351 352 352 353 352 352 351
309 311 309 319 326 329 325 322 321 321 324 321 326 335 339 338 337 336 338 341 345 344 342 340 342 349 351 352 352 352 351 351 351 351 351 351 352 352 352 353 355 355 356 356
310 312 310 314 328 331 321 320 319 323 323 319 321 322 328 333 334 332 334 337 340 344 344 342 340 338 340 344 353 354 354 353 352 352 352 352 352 353 353 353 354 355 356 356
312 314 315 317 327 325 317 318 321 326 324 318 318 320 320 320 322 328 331 335 335 341 345 345 341 339 338 336 337 342 351 355 354 354 354 354 353 354 354 355 356 356 357 357
315 317 315 316 324 325 315 317 318 315 315 315 317 317 318 319 321 324 326 329 333 337 346 349 349 348 343 336 334 332 338 343 348 355 355 355 355 356 357 356 356 356 357 358
313 311 314 312 316 314 313 315 315 313 312 312 314 316 317 318 319 319 321 322 325 328 339 348 353 355 354 348 334 333 337 338 341 340 343 352 354 355 355 354 353 354 355 358
309 309 309 308 310 309 309 311 312 310 310 310 312 314 317 318 318 319 319 320 322 322 329 337 350 354 355 355 357 353 352 349 346 345 343 337 340 346 349 350 350 351 351 352
308 308 309 308 308 309 310 311 309 310 311 311 311 311 315 317 319 319 318 318 319 320 321 326 336 349 354 353 352 349 347 353 357 355 350 344 340 338 341 346 351 353 353 354
308 308 309 310 308 308 308 308 310 311 313 312 311 311 313 316 317 318 318 317 317 317 317 319 324 330 348 354 353 351 343 340 339 347 356 358 355 352 353 352 353 358 358 357

GFSCGP_850_thetae_051.txt.gz
Theta_e
317 314 316 316 319 321 326 332 335 335 336 346 347 345 354 350 350 349 348 347 348 348 346 346 346 347 347 346 346 341 340 342 340 342 343 344 345 345 345 343 345 346 346 346
316 317 316 317 319 320 321 322 327 330 333 344 346 347 352 351 350 349 348 347 348 347 347 345 346 347 347 347 346 343 342 341 342 341 342 341 343 345 344 345 345 347 347 347
319 320 318 320 320 321 320 321 323 328 334 338 339 347 346 352 351 350 349 348 348 348 346 346 346 346 347 347 346 344 345 344 341 343 342 343 341 344 344 344 345 345 345 346
320 320 321 319 322 321 320 321 323 326 331 337 335 342 347 351 352 350 350 349 348 348 347 346 346 347 347 345 345 345 345 345 343 343 343 343 342 339 342 342 344 345 346 345
321 322 322 322 323 323 324 322 324 325 327 332 333 335 341 348 354 351 349 349 349 349 348 347 346 346 345 344 343 344 345 345 345 343 343 344 344 338 335 339 339 344 346 345
318 320 322 323 324 324 325 325 325 326 326 332 331 333 333 348 347 350 349 349 349 349 349 348 348 348 344 343 343 343 344 345 346 343 343 344 343 340 335 332 335 340 344 344
320 321 320 323 324 324 325 323 326 328 329 332 328 331 334 340 342 344 347 349 348 348 348 348 348 348 349 345 341 344 345 346 347 344 343 343 343 342 338 333 332 336 343 344
318 322 321 321 324 325 325 324 325 330 330 333 326 330 332 337 340 342 345 347 347 345 345 348 347 348 348 349 346 344 345 345 347 345 343 343 344 343 342 337 335 336 342 344
318 319 316 318 322 326 326 328 325 324 320 326 329 325 327 333 339 341 344 345 345 344 344 344 347 346 347 348 349 348 347 347 347 345 343 343 344 344 343 338 335 334 339 344
315 317 315 318 320 324 327 324 327 321 327 325 322 325 333 326 328 340 344 345 345 344 344 346 347 346 346 346 347 347 347 347 346 345 344 344 344 344 344 342 336 334 335 340
313 314 317 318 320 322 324 328 326 326 323 332 323 324 321 326 325 333 338 342 344 345 345 345 346 347 346 345 346 346 347 347 346 345 344 344 344 345 345 343 339 336 335 336
313 316 319 319 319 318 318 324 320 330 327 318 327 330 322 322 321 330 339 342 344 345 346 346 344 346 347 346 345 346 346 346 345 345 345 345 345 345 345 345 341 337 336 337
313 316 316 320 318 318 318 321 325 320 318 322 330 329 320 319 321 322 325 333 342 346 347 347 345 346 346 346 346 346 346 346 346 346 346 346 346 345 345 345 345 342 337 336
312 315 315 318 317 315 316 316 316 317 325 320 323 326 321 321 320 320 323 327 333 341 346 347 346 346 347 347 346 346 347 347 347 346 346 346 346 345 345 345 345 345 340 336
311 312 313 312 312 313 313 314 315 318 320 323 323 318 318 319 320 323 331 332 329 330 343 346 347 346 347 347 347 347 347 347 347 347 346 346 346 345 345 345 345 344 340 337
308 311 310 312 312 312 314 315 317 318 323 319 319 319 318 330 337 338 337 330 327 332 343 345 346 347 347 347 346 347 347 347 348 347 347 347 346 345 343 343 343 342 340 337
309 309 311 312 313 317 321 322 323 323 320 324 321 325 329 337 337 336 338 337 330 339 343 345 346 346 347 347 346 347 348 348 348 348 348 348 347 345 342 341 342 342 339 338
309 311 311 310 312 330 321 320 320 320 319 319 324 329 337 335 334 334 335 339 341 340 343 344 345 347 347 347 347 348 348 348 348 348 349 349 348 348 348 346 345 343 343 342
308 310 313 311 317 325 323 319 319 319 318 317 319 321 329 335 335 333 334 339 342 344 345 347 347 348 348 348 348 348 348 348 348 348 349 349 349 349 349 349 349 349 349 349
309 308 312 314 321 334 322 317 316 319 320 315 316 317 321 330 333 328 332 338 346 348 344 347 350 350 350 350 350 349 349 349 349 348 349 349 349 349 350 350 350 351 352 353
312 311 312 315 318 323 318 315 317 321 318 313 313 314 315 319 319 322 323 335 342 352 354 346 347 349 350 351 351 351 350 349 349 349 350 350 350 350 350 351 351 352 352 353
314 315 316 317 324 326 314 317 317 313 313 311 311 311 313 317 320 319 320 323 334 347 357 353 346 340 338 344 351 352 352 352 352 352 352 352 352 352 352 352 353 353 354 355
313 310 312 312 315 313 310 314 310 310 311 311 311 311 311 316 319 318 318 318 319 328 344 356 358 354 347 341 340 344 347 346 346 347 354 355 356 356 356 356 356 356 356 356
309 308 309 309 309 308 309 311 311 311 310 311 313 312 311 312 317 318 317 317 317 320 328 343 353 353 353 353 353 351 351 348 345 343 343 342 344 350 353 355 357 358 357 356
308 308 307 309 309 310 311 311 311 310 312 313 314 312 311 311 315 318 317 317 317 318 324 328 333 347 352 352 348 345 344 345 352 351 349 348 346 344 344 347 350 352 353 354
306 306 308 311 311 311 310 313 312 312 314 314 313 312 313 312 312 315 318 318 317 317 318 323 326 331 343 352 351 349 344 339 338 341 346 349 348 348 347 345 345 345 345 347

GFSCGP_850_thetae_054.txt.gz
Theta_e
315 313 315 315 318 321 323 328 332 332 333 344 345 346 353 348 346 344 341 339 338 338 342 345 346 345 345 344 341 342 336 329 330 337 341 343 343 344 344 342 344 344 345 344
314 315 315 314 315 319 320 321 326 329 332 342 343 345 352 349 347 346 346 345 343 342 341 342 343 345 344 343 343 344 338 331 333 337 339 341 343 342 345 344 343 344 345 346
315 316 316 316 317 317 318 319 321 328 329 335 342 344 351 351 349 348 347 346 346 346 346 344 343 344 345 344 344 345 340 337 338 338 340 341 343 345 345 344 344 344 345 346
317 318 317 316 317 317 316 320 322 322 326 330 337 340 341 353 351 349 348 347 346 346 347 345 344 345 345 344 345 344 343 340 340 341 340 341 342 342 343 345 344 344 345 345
321 320 319 317 317 317 317 319 320 321 325 326 327 334 332 347 354 351 348 348 347 346 347 346 345 344 345 345 345 344 344 341 341 342 341 342 342 342 342 343 344 344 344 344
315 318 319 321 320 318 321 322 320 322 321 327 325 330 332 346 350 351 349 349 348 347 346 346 346 345 345 346 345 346 345 341 342 344 345 342 342 342 342 342 341 342 341 343
318 318 318 319 320 320 321 320 322 324 326 328 325 327 331 331 342 347 349 349 349 348 347 346 346 345 345 345 345 345 346 343 341 342 344 345 342 343 343 343 337 336 338 337
318 321 319 318 319 320 322 320 320 325 326 329 324 329 330 329 335 344 345 348 348 349 348 347 345 345 344 345 345 343 342 342 342 342 343 345 344 343 343 342 340 333 331 331
315 318 315 316 318 320 322 323 320 322 321 324 329 326 327 328 331 336 340 342 347 348 348 348 348 347 345 346 346 343 341 341 342 342 343 345 346 343 343 343 343 339 332 331
314 315 315 316 318 319 320 322 325 321 329 325 324 325 332 329 331 334 338 340 344 347 348 348 348 348 348 347 347 347 344 342 343 344 344 345 346 345 342 343 343 342 337 334
312 312 315 316 319 319 319 322 323 323 322 326 326 327 322 329 330 331 336 340 342 345 347 347 346 347 347 347 347 347 347 346 343 344 345 345 345 346 343 343 344 344 340 336
313 314 316 316 316 316 317 319 321 328 326 322 323 327 322 325 325 328 329 336 340 343 344 345 345 344 346 346 347 346 347 347 347 347 346 346 345 345 343 343 344 344 343 338
312 315 313 317 315 315 317 314 313 313 318 326 329 327 323 320 320 323 325 331 335 337 342 344 343 344 345 345 346 346 346 346 346 347 347 347 346 345 344 343 344 344 345 342
312 309 313 316 315 313 314 314 314 313 315 325 327 327 323 325 320 319 323 325 327 336 339 342 343 344 345 345 345 345 346 346 346 346 346 346 346 345 344 344 344 344 345 344
308 308 309 311 312 313 313 313 314 314 314 318 323 323 322 322 322 319 322 327 329 327 334 342 343 345 344 345 345 345 345 346 346 346 346 346 345 345 345 345 344 344 345 344
306 308 311 311 311 312 314 314 315 316 316 316 318 318 321 335 335 335 336 337 338 336 331 333 334 343 344 344 345 345 345 345 346 346 346 346 346 345 345 345 344 344 344 344
306 307 312 311 311 312 317 316 320 319 317 320 320 320 323 334 333 331 332 335 338 339 337 331 333 338 344 345 345 345 345 346 346 345 346 346 347 346 346 345 345 344 344 344
306 307 311 311 313 319 321 319 319 317 317 316 318 320 334 333 332 328 327 329 336 341 337 333 330 339 340 344 345 345 345 346 345 345 346 346 346 345 346 345 345 343 343 342
304 308 312 312 316 318 322 318 318 318 317 314 314 316 318 327 330 331 325 330 334 341 343 341 341 344 345 345 345 346 346 346 345 346 346 346 347 347 347 347 345 343 342 342
307 308 310 315 318 333 321 314 315 316 319 314 312 312 315 328 324 321 320 327 343 346 346 343 344 344 345 346 346 346 346 346 345 346 347 348 348 348 348 348 348 348 348 348
310 310 310 312 318 318 313 313 316 323 317 311 310 310 311 317 318 318 318 331 341 344 347 345 345 345 346 346 346 346 346 346 346 347 347 348 348 348 349 349 349 350 350 350
312 312 315 315 319 324 310 314 317 312 311 311 311 311 310 315 317 316 317 328 336 347 347 345 346 348 348 348 348 348 347 347 347 348 348 348 348 349 349 350 350 350 351 351
313 310 310 311 313 310 309 310 311 311 310 311 312 312 311 314 317 317 317 322 328 333 348 353 353 348 348 349 349 349 349 350 349 349 349 350 351 351 351 351 352 352 352 352
309 307 309 309 310 311 310 310 311 311 310 312 313 312 312 313 316 318 318 317 319 327 331 341 349 349 350 353 353 352 350 350 352 352 352 354 354 354 354 355 355 356 355 355
308 307 306 308 310 310 312 313 312 312 312 313 314 313 314 312 314 316 317 317 317 317 320 325 328 336 348 348 346 344 347 354 352 350 349 349 349 350 352 354 355 356 356 356
309 307 309 310 311 312 312 313 313 314 313 314 314 314 315 315 314 313 314 316 316 316 316 317 318 320 323 339 348 346 342 340 342 346 348 351 351 349 346 344 343 344 346 349

GFSCGP_850_thetae_057.txt.gz
Theta_e
317 318 321 319 320 322 327 329 329 340 342 344 346 345 353 349 346 346 345 345 344 343 342 344 345 346 346 340 336 335 330 328 328 330 336 342 343 344 345 344 343 344 344 341
317 317 318 318 317 320 323 327 332 332 335 342 345 345 349 351 349 346 345 344 344 343 342 344 345 345 346 343 340 336 333 329 328 332 340 342 341 343 343 343 343 343 345 345
319 319 317 317 317 319 321 323 327 331 333 336 343 345 347 352 350 349 345 344 343 342 342 344 345 345 346 346 343 339 336 335 329 329 337 340 341 342 344 344 342 344 345 345
322 320 318 318 318 318 319 320 324 326 328 339 339 349 346 349 354 351 349 346 343 342 341 341 345 346 346 346 344 343 338 341 331 330 331 338 339 340 341 343 344 344 344 345
324 322 321 320 319 318 319 319 318 323 328 329 332 343 345 346 355 354 350 349 348 346 344 343 343 345 345 346 342 343 342 343 335 331 334 337 340 338 339 342 344 344 344 344
319 321 323 322 320 319 319 321 320 320 322 330 333 335 341 344 350 352 351 350 349 348 348 348 346 345 344 345 344 341 342 344 339 337 338 339 340 341 341 342 342 344 344 343
320 320 320 322 323 321 320 321 324 325 322 328 332 334 335 337 342 346 350 350 350 349 348 348 348 347 346 345 345 342 342 344 344 340 340 341 341 341 342 342 342 342 342 343
321 319 320 321 323 324 322 323 323 326 323 321 327 333 334 333 332 339 344 347 349 350 349 349 349 347 345 344 343 343 343 344 342 342 341 341 342 343 343 342 342 342 342 339
321 321 318 319 319 322 324 324 323 323 326 326 323 329 331 333 335 334 336 345 348 350 349 349 349 348 346 345 343 342 342 343 343 343 341 341 342 343 344 343 342 343 343 340
314 314 317 318 319 321 323 324 325 325 324 326 325 326 330 335 335 336 336 342 346 348 350 350 349 349 347 344 343 342 341 340 342 343 341 339 341 342 344 344 342 342 343 341
314 312 313 316 322 323 323 324 325 326 326 326 325 327 329 332 337 337 337 337 340 345 348 349 349 349 348 346 343 343 344 342 342 341 341 340 341 342 344 345 343 342 343 343
313 313 313 314 318 318 319 323 325 328 329 329 328 326 329 332 334 335 335 337 338 342 346 348 349 349 349 348 346 344 344 345 343 342 341 342 342 343 344 345 346 343 342 343
314 313 313 310 314 318 320 319 321 323 326 331 329 327 328 330 329 332 333 334 339 343 346 348 348 348 349 349 347 347 346 345 346 346 344 343 343 344 344 345 345 344 343 343
312 312 312 313 312 313 317 317 317 319 326 329 331 330 329 328 330 331 329 329 331 337 343 346 347 347 347 348 348 347 346 346 346 347 346 346 345 345 345 345 345 344 343 343
311 310 309 309 309 310 312 313 316 317 322 326 328 330 331 332 332 331 331 330 330 330 333 342 344 344 345 346 346 347 346 345 345 346 346 346 345 346 346 346 345 344 343 343
311 309 310 309 309 311 312 313 314 316 318 320 322 325 325 330 335 335 337 339 340 340 340 335 344 345 344 344 344 344 346 345 344 345 345 345 346 346 346 346 346 345 344 344
310 310 309 308 313 314 316 315 316 318 320 320 325 326 328 333 337 333 332 332 335 338 340 342 336 344 340 341 342 343 344 345 345 345 345 345 345 346 346 346 345 345 344 344
308 308 310 309 310 317 317 320 320 321 320 320 322 324 328 337 334 330 328 328 330 333 336 339 340 335 341 341 346 345 346 345 345 345 345 345 345 345 346 346 346 345 345 344
308 309 309 309 315 319 322 320 321 323 321 317 318 319 320 325 334 334 324 324 327 333 338 341 340 335 332 342 344 344 345 345 345 345 345 345 345 345 346 346 346 345 345 344
308 309 311 309 315 322 319 315 314 318 325 315 316 318 319 331 340 330 322 324 331 336 340 345 341 338 333 339 345 344 344 345 344 344 345 345 343 343 343 343 344 344 344 343
309 309 310 310 312 315 311 310 313 325 322 314 315 315 317 321 320 319 322 327 332 336 341 349 342 346 340 343 346 344 345 344 344 345 345 342 342 344 344 346 347 347 346 346
309 310 311 310 313 315 308 310 318 315 313 313 314 315 315 316 317 317 319 322 327 333 338 346 348 346 346 344 344 344 344 345 346 346 346 344 345 346 347 348 348 348 348 348
314 312 314 314 314 309 309 310 311 313 313 312 314 315 314 314 315 317 317 318 318 319 328 335 343 347 347 346 347 346 346 346 346 346 346 346 347 348 348 348 349 350 350 350
307 307 309 308 310 310 311 312 313 314 313 312 314 314 315 314 314 314 317 317 317 316 316 320 344 349 349 347 346 347 346 346 346 347 347 348 348 349 349 349 350 350 350 351
308 307 307 309 310 309 309 312 313 315 314 314 314 314 314 316 316 314 314 316 316 316 315 315 315 318 340 347 350 354 352 349 349 348 348 349 349 350 351 351 354 352 353 355
307 310 310 311 311 313 309 309 310 313 315 315 314 314 315 316 317 315 315 313 314 314 314 314 314 315 316 332 344 344 343 348 356 355 353 353 354 353 353 354 354 354 354 354

GFSCGP_850_thetae_060.txt.gz
Theta_e
319 323 323 324 324 325 327 329 330 339 346 348 350 350 354 350 351 351 351 350 348 347 346 346 345 344 343 344 345 345 344 344 340 340 343 344 346 348 349 349 346 345 344 343
321 321 323 323 323 323 324 329 332 332 341 347 349 349 348 353 350 350 351 350 348 348 347 345 346 345 343 344 345 346 345 344 331 340 342 344 347 348 348 350 344 344 344 342
322 323 321 321 322 322 323 324 329 332 335 340 347 350 348 349 351 350 350 350 349 348 348 346 346 345 344 345 346 346 345 340 329 340 341 346 349 350 351 350 348 347 344 345
323 323 322 321 321 322 323 322 323 329 333 339 343 352 349 348 353 352 350 350 349 348 347 346 346 346 345 345 347 348 346 335 330 329 341 346 347 345 345 348 347 349 344 345
325 324 324 322 322 322 322 322 322 323 330 333 338 346 346 347 351 354 351 349 349 348 347 346 346 348 347 346 347 349 349 341 338 329 337 343 343 343 345 347 350 351 346 345
324 325 325 325 324 323 322 322 322 322 322 329 334 340 345 346 347 349 351 350 349 348 347 346 346 347 348 347 347 349 350 339 336 335 329 338 342 343 345 348 349 349 349 350
321 322 324 324 325 325 323 323 326 325 323 321 328 335 339 341 345 345 348 349 350 350 348 347 346 346 348 348 348 349 350 345 338 338 336 330 333 345 349 349 347 347 347 348
320 321 321 324 326 326 324 325 326 328 326 324 323 329 335 337 338 341 344 348 350 351 350 350 348 347 347 348 349 349 348 345 342 339 339 330 333 345 348 347 348 348 346 346
319 319 322 322 323 326 327 326 326 326 327 328 325 324 329 334 336 337 340 344 346 348 349 350 351 351 349 348 348 348 349 346 342 344 342 333 337 341 347 347 347 348 348 347
316 316 318 322 322 323 326 327 327 327 328 330 329 328 325 333 336 337 339 338 343 345 349 350 351 351 352 350 349 350 350 349 347 346 345 341 338 340 341 348 346 348 349 344
314 314 315 315 322 323 324 326 327 327 327 329 330 329 328 328 331 336 338 338 339 345 348 349 350 351 352 351 349 350 350 351 349 346 348 346 344 342 340 343 343 344 344 343
313 314 315 315 317 323 323 325 327 329 330 328 330 329 328 329 329 332 335 336 338 339 344 348 349 350 351 352 350 349 350 350 350 348 344 342 344 340 346 341 342 343 344 343
314 312 314 314 314 316 319 323 326 326 329 331 331 330 329 330 333 330 332 334 337 338 340 345 347 349 351 351 351 350 349 349 349 349 349 346 344 346 345 340 342 343 344 345
311 311 312 314 314 314 319 323 323 325 329 330 331 332 331 330 331 333 335 335 335 338 341 344 347 347 351 351 351 351 350 349 349 349 349 348 339 340 340 341 342 343 345 345
313 312 312 312 311 311 312 314 317 320 325 328 329 330 332 331 330 331 331 335 334 332 336 341 346 348 350 352 352 352 352 351 350 350 350 350 341 341 341 342 343 344 344 344
312 313 311 311 310 310 310 312 314 316 321 323 325 328 330 332 332 336 335 339 339 339 339 337 343 346 349 351 353 354 352 352 351 351 350 350 344 343 343 343 344 344 345 345
311 312 311 311 310 311 313 315 317 318 320 322 325 327 329 331 333 337 336 336 336 337 339 342 343 342 345 349 351 353 353 352 352 351 350 349 347 346 345 344 345 345 345 345
311 312 311 311 311 311 311 314 317 319 320 322 323 325 328 331 336 336 335 335 336 338 339 340 341 343 343 345 346 352 353 353 352 352 350 348 345 346 346 346 345 346 346 346
309 311 311 311 311 311 315 320 320 321 321 323 325 325 326 327 337 339 334 333 335 339 341 342 343 344 346 345 346 349 352 354 353 352 347 345 345 345 346 347 346 346 346 346
309 311 312 311 312 315 318 315 314 318 328 322 322 325 326 328 335 336 328 329 335 339 342 345 347 349 349 349 345 347 351 352 353 351 346 347 346 346 346 347 346 346 346 345
311 311 313 312 312 313 315 313 313 324 324 320 321 322 325 332 329 324 321 324 327 331 338 345 352 353 351 351 345 347 351 351 351 354 354 353 350 346 346 346 346 346 346 348
311 313 313 312 313 314 313 314 315 314 315 315 317 319 320 322 320 319 319 321 323 325 329 344 354 352 350 346 343 349 351 352 354 354 354 354 349 351 353 346 346 347 347 346
312 311 313 312 314 312 311 311 311 311 314 315 314 317 317 318 317 317 318 319 319 321 323 330 346 353 354 351 351 354 352 353 355 356 356 355 349 353 352 346 347 348 347 356
305 306 312 309 312 310 311 311 313 314 315 315 315 316 316 318 318 317 316 317 315 315 315 320 325 342 352 355 355 355 355 356 356 357 358 358 352 355 357 358 358 358 358 358
304 304 306 307 308 309 310 310 312 314 316 316 316 317 317 318 318 317 316 314 314 313 314 314 319 325 333 342 350 353 357 357 357 358 359 359 359 358 359 359 360 360 359 360
307 309 309 310 308 309 309 308 308 310 311 311 312 313 314 314 315 316 316 315 314 314 314 315 315 318 323 328 339 350 355 357 356 357 357 357 358 360 359 360 360 359 360 359

GFSCGP_850_thetae_063.txt.gz
Theta_e
325 327 326 328 329 328 328 329 332 336 348 349 350 352 354 351 351 353 352 350 350 349 348 346 345 344 343 343 344 345 345 345 346 348 347 346 347 348 349 350 352 350 353 352
324 325 326 326 327 326 326 328 330 333 340 348 349 351 351 352 351 352 353 351 349 349 349 346 345 344 343 344 346 345 345 345 346 346 345 346 346 348 348 347 352 352 351 353
327 326 325 326 326 326 326 327 329 333 334 345 348 352 351 355 351 351 352 352 349 349 350 348 346 345 344 345 346 346 346 345 344 344 344 346 347 348 347 350 351 351 352 353
326 326 325 325 325 326 327 326 326 329 335 339 344 354 354 349 353 352 352 352 351 348 349 349 348 347 345 344 346 347 346 345 344 342 343 345 347 346 347 348 348 350 352 352
326 325 325 325 325 325 326 326 326 325 327 335 338 344 353 351 356 352 352 351 351 350 348 349 349 349 347 345 346 347 347 347 344 336 342 344 347 346 346 347 349 349 351 353
325 326 326 325 326 325 326 325 326 326 325 327 334 340 347 348 348 351 351 350 351 351 350 349 348 349 349 347 346 348 348 347 343 338 334 343 345 346 344 345 351 348 352 351
320 322 325 326 326 326 326 327 327 327 327 326 327 335 340 345 346 347 350 350 350 350 350 350 349 348 349 348 347 348 349 348 340 340 331 340 343 341 346 348 349 347 346 347
320 322 322 323 326 328 327 327 329 331 329 328 327 327 334 338 342 344 342 348 349 350 350 350 349 349 349 349 349 348 350 351 348 342 336 330 333 344 346 348 348 347 346 346
318 319 323 323 323 326 328 328 327 329 330 331 329 327 327 333 337 343 342 347 349 349 350 349 350 349 349 350 350 350 350 352 352 349 343 334 331 333 344 347 345 351 347 347
317 319 322 321 323 325 326 328 328 328 331 332 331 331 328 328 333 337 341 343 345 349 350 350 350 349 349 350 351 351 351 353 354 352 348 343 334 332 337 347 350 350 349 347
316 317 318 318 321 324 324 327 329 330 329 331 333 332 332 330 330 334 338 340 343 348 348 349 350 351 350 350 351 351 352 353 354 353 352 349 348 345 330 346 348 350 351 351
317 316 317 318 319 319 320 323 323 330 332 330 330 332 332 332 330 332 336 337 338 340 345 347 348 351 352 353 351 351 351 352 353 354 353 350 349 348 346 337 345 349 348 349
316 316 317 317 317 318 318 322 325 326 327 332 331 331 332 331 331 330 331 333 337 339 343 346 348 350 351 353 354 352 351 350 351 354 353 352 352 351 347 346 340 344 344 344
312 316 317 317 318 317 319 318 322 325 328 328 330 331 331 332 332 333 332 332 335 337 340 342 346 348 350 352 354 353 352 351 351 352 352 352 352 352 349 347 342 341 341 342
313 314 314 314 315 315 315 317 321 323 327 330 329 331 332 332 332 333 334 334 336 337 338 339 341 346 350 352 354 354 353 351 351 350 350 351 353 352 351 346 347 340 341 341
313 313 314 316 315 314 314 315 316 320 323 325 327 330 331 330 330 331 333 335 340 340 337 338 343 346 349 352 355 355 354 353 351 351 350 350 352 353 350 350 346 344 341 341
314 316 314 315 314 314 314 314 314 316 319 321 324 328 329 330 332 335 335 338 339 339 340 342 342 344 347 351 354 355 355 354 353 353 352 351 351 349 349 346 345 341 341 341
314 315 315 317 314 315 315 314 316 317 317 319 321 323 326 327 328 330 339 339 339 339 340 341 341 342 345 348 350 354 356 355 355 353 356 353 353 352 348 349 344 340 340 342
311 312 315 314 314 313 314 320 322 323 324 319 321 323 324 324 325 329 338 338 338 341 343 344 344 344 344 345 347 349 354 358 355 357 354 357 355 356 353 348 346 345 344 344
311 312 314 312 313 314 315 319 317 321 325 326 322 324 326 326 329 330 331 332 335 337 340 343 347 348 349 349 348 347 351 354 357 357 357 357 357 358 358 354 349 345 345 345
315 315 315 313 314 313 313 316 315 323 323 320 321 323 326 329 330 327 328 330 332 334 335 335 344 354 355 354 351 348 348 352 355 357 359 359 358 358 359 359 358 351 348 357
314 315 315 315 314 314 316 316 316 319 316 317 319 320 321 322 323 322 325 325 325 330 332 332 338 354 361 356 355 354 348 352 354 356 358 359 359 358 359 358 358 357 354 354
312 313 315 314 313 314 314 313 314 314 315 314 318 317 318 320 320 319 320 321 321 324 328 329 333 343 356 358 353 354 352 355 354 355 357 358 359 360 359 359 359 361 358 358
311 307 312 312 312 311 308 311 311 312 315 314 317 317 318 318 320 318 318 318 319 321 325 326 330 337 351 355 357 356 359 357 357 356 358 358 359 359 359 361 362 361 360 360
305 303 307 310 308 306 307 309 308 310 313 315 316 316 316 317 318 318 318 318 320 322 322 319 323 328 336 347 355 357 357 358 358 358 359 359 360 360 358 360 360 360 358 358
306 307 308 309 306 306 308 306 306 308 310 311 312 312 313 314 314 316 318 319 319 321 320 315 316 320 324 337 347 355 356 358 358 358 359 360 360 361 360 360 359 358 359 358

GFSCGP_850_thetae_066.txt.gz
Theta_e
329 331 331 331 329 330 329 329 331 332 335 343 345 351 348 346 346 346 350 352 350 349 349 348 347 343 344 343 341 342 345 346 345 349 345 349 347 348 349 349 350 349 352 352
330 331 330 327 329 330 330 330 329 330 333 345 352 349 345 344 343 344 350 350 351 349 348 348 346 344 344 343 344 343 344 347 345 350 347 346 349 347 347 350 353 346 352 352
326 327 327 327 327 328 328 328 328 329 332 342 344 352 349 343 345 348 351 348 349 350 349 348 347 345 344 344 344 344 344 349 346 348 346 346 346 349 348 351 351 346 348 348
329 328 327 326 327 327 328 328 327 328 329 334 337 352 351 350 351 344 343 349 348 350 349 348 347 346 344 345 344 344 345 347 345 346 345 345 346 348 346 350 350 345 349 350
327 328 327 327 327 327 327 328 328 327 327 329 333 337 351 352 349 348 343 349 347 348 349 349 347 347 345 346 346 345 345 346 345 342 346 346 346 346 350 345 350 348 349 348
324 325 327 326 326 326 326 326 328 328 327 328 328 333 339 354 348 343 343 349 348 347 349 350 348 347 346 346 347 347 347 343 342 339 344 344 344 347 347 344 351 350 350 347
319 321 325 327 326 326 327 326 327 328 328 328 327 327 334 341 346 343 344 349 350 349 348 350 350 349 348 346 347 347 347 346 340 333 338 344 342 348 345 347 352 351 352 352
321 322 321 324 328 327 327 327 328 330 329 328 329 328 329 331 346 346 346 348 348 351 350 350 350 351 350 348 347 348 349 347 345 338 329 340 340 342 347 348 346 350 346 349
320 319 322 323 323 325 327 329 327 328 329 330 330 330 329 330 332 349 345 340 343 348 351 351 351 350 351 350 348 348 350 348 347 342 332 331 333 332 345 345 349 346 348 348
318 318 320 321 323 324 324 326 328 328 331 333 330 333 332 332 331 336 347 347 347 349 347 350 351 351 351 351 351 349 350 350 349 348 340 330 330 328 330 341 347 350 346 346
317 317 318 319 321 323 324 325 327 328 330 331 331 332 334 337 333 333 347 344 339 341 341 348 347 351 351 352 352 351 351 353 353 351 349 343 333 331 329 336 341 345 350 351
317 317 318 318 319 320 320 324 325 329 332 331 331 331 332 334 333 333 332 342 341 343 345 342 343 349 352 352 352 353 352 353 355 354 353 351 348 338 331 329 336 345 345 348
316 317 318 318 318 319 319 319 321 323 325 332 334 331 331 333 333 333 331 331 340 345 339 341 347 351 351 351 352 353 353 353 355 357 356 355 353 352 342 334 334 340 342 342
313 314 316 319 320 319 319 319 319 320 324 324 326 330 334 333 332 333 332 332 333 342 344 347 350 353 353 352 351 352 353 354 354 357 357 356 355 354 350 345 337 338 342 336
313 314 314 315 316 316 316 318 318 319 321 326 326 327 331 335 335 333 334 337 333 333 338 340 346 343 349 354 353 352 352 353 353 353 356 356 356 355 355 350 346 342 334 334
315 314 313 314 314 316 317 317 317 317 319 321 322 326 329 330 331 331 335 339 341 342 342 343 341 347 353 355 355 355 354 353 352 352 354 355 356 357 355 355 353 351 344 338
315 317 317 317 314 314 316 316 317 317 318 320 323 325 328 328 333 331 334 337 340 341 341 342 342 343 350 347 354 358 356 354 353 352 353 353 354 355 356 356 355 353 352 343
313 313 317 316 315 317 315 316 316 316 317 317 319 321 323 324 327 329 330 332 334 341 343 344 344 344 345 348 340 359 358 355 355 353 353 354 353 353 354 355 355 354 353 348
312 313 317 316 313 314 314 316 320 322 322 318 325 325 321 319 321 327 334 334 333 337 340 342 345 347 348 346 345 348 358 357 355 357 353 355 353 353 353 354 354 355 353 352
313 313 316 315 314 314 314 317 316 317 320 323 324 326 327 329 322 328 330 332 334 334 337 338 338 342 349 350 349 349 348 360 357 356 357 356 356 354 354 352 352 354 353 345
316 317 316 316 316 312 315 316 316 319 320 319 319 320 323 326 327 326 326 329 329 329 333 335 336 338 347 359 361 352 348 350 360 358 356 359 358 357 356 356 355 354 354 354
315 315 317 315 317 314 316 315 316 317 315 315 317 317 320 320 323 323 325 325 325 326 329 332 332 335 340 353 357 360 355 347 353 360 358 357 360 360 359 360 359 358 358 358
315 313 316 316 315 315 313 312 313 313 313 314 315 316 318 320 321 322 321 322 322 324 328 328 327 331 338 346 351 355 361 356 346 357 360 357 361 360 361 361 362 361 360 360
309 307 311 311 312 312 310 311 310 310 311 313 316 317 318 319 320 321 320 321 322 324 325 324 324 331 338 343 346 350 356 360 358 348 360 358 360 362 361 361 362 361 361 361
307 305 306 308 309 307 308 307 306 307 309 310 312 315 316 317 317 318 319 320 321 322 323 322 321 321 330 336 342 350 354 356 354 355 360 359 359 362 362 360 363 362 362 362
306 306 308 309 303 305 305 306 304 305 307 309 311 311 313 315 315 315 316 317 320 322 322 322 320 316 320 328 335 343 353 357 361 364 362 361 360 362 361 361 362 364 362 363

GFSCGP_850_thetae_072.txt.gz
Theta_e
323 322 324 326 326 325 325 325 325 326 327 326 351 355 353 350 349 352 350 349 347 347 347 346 340 339 340 343 343 342 340 339 339 345 344 348 347 348 346 348 349 345 344 344
325 325 324 326 327 327 326 325 324 324 327 345 354 355 348 349 351 351 351 349 348 348 348 348 342 340 339 341 342 343 342 340 337 344 343 345 347 347 346 346 347 347 345 344
326 327 327 327 327 328 326 325 325 324 339 346 349 352 347 344 349 351 351 349 349 348 348 349 343 340 339 340 341 341 341 339 336 344 342 344 346 346 348 347 347 344 345 347
324 324 324 326 327 326 325 322 324 324 322 322 339 355 350 346 349 351 351 347 348 349 347 348 345 341 340 340 340 340 340 340 337 340 340 342 345 347 347 347 347 347 346 345
320 324 325 325 324 324 326 325 322 323 321 321 322 322 335 345 348 351 350 346 348 348 348 348 348 343 341 341 341 340 340 340 337 343 338 344 345 347 346 347 347 349 343 342
315 318 321 322 324 323 324 322 319 318 318 320 320 320 332 345 346 346 350 350 349 348 348 348 348 345 343 342 341 341 341 341 339 344 340 345 346 348 348 347 348 348 343 343
316 317 316 318 319 321 322 317 318 321 319 319 318 320 320 340 343 342 347 349 348 348 348 348 348 344 343 342 342 342 342 342 341 339 344 339 346 346 347 349 348 350 347 347
315 316 315 316 316 320 323 317 318 322 321 321 319 322 322 328 341 342 342 346 348 345 347 348 347 344 344 343 343 343 343 343 342 337 341 338 342 346 346 349 348 348 348 347
313 316 316 317 316 316 322 322 318 318 318 319 320 321 322 323 335 343 341 343 345 345 347 348 347 346 344 343 343 343 343 343 343 342 335 340 336 344 346 347 348 348 346 346
314 314 314 317 315 315 313 315 319 315 322 323 321 323 322 323 331 338 342 342 345 347 347 348 348 347 346 345 345 344 344 344 344 343 342 335 337 336 345 346 349 344 347 347
310 311 313 314 312 314 313 313 312 315 317 321 321 321 325 327 334 336 340 343 342 346 348 348 349 348 347 347 346 346 345 344 344 344 344 343 334 335 338 344 347 348 349 351
311 308 311 313 313 314 314 312 309 312 314 317 321 323 323 327 329 337 341 340 342 346 348 348 349 348 348 347 347 347 347 346 345 345 344 344 342 332 334 338 344 346 349 350
312 308 310 311 311 310 312 311 311 310 308 314 317 317 319 326 333 338 341 342 344 344 346 346 344 346 348 349 348 347 347 347 347 346 346 345 345 341 330 331 340 343 346 348
312 306 309 310 311 310 311 311 311 310 310 311 313 314 314 318 325 330 339 341 343 342 344 344 340 339 340 338 347 349 349 349 348 348 347 346 345 345 342 329 328 337 344 345
308 308 310 310 312 313 313 313 312 311 312 314 313 312 313 315 317 332 336 341 342 344 345 345 345 342 340 341 338 348 348 350 349 349 349 348 346 346 346 345 334 327 330 341
309 311 311 312 313 312 312 312 313 313 313 313 313 314 323 325 333 335 336 338 338 338 339 340 344 346 345 343 342 339 350 350 349 350 350 350 349 348 347 347 347 343 330 328
308 309 310 311 312 311 310 310 312 312 312 319 324 321 321 322 326 324 327 333 336 337 335 335 335 343 345 347 346 345 344 351 350 353 353 352 351 350 350 349 349 349 348 340
307 306 308 308 310 313 309 309 311 314 319 318 319 319 319 319 322 322 324 327 329 332 335 332 333 333 339 344 345 346 344 346 348 350 351 355 355 354 353 353 352 351 349 349
306 306 308 309 310 310 311 310 310 316 317 316 316 316 316 317 324 321 321 322 324 328 331 330 330 331 331 333 344 346 346 346 346 344 349 353 356 356 355 355 354 353 352 350
307 306 310 309 309 312 310 314 314 314 317 314 314 314 314 315 319 318 319 321 321 326 326 326 327 327 327 331 337 346 346 345 343 352 353 353 351 354 355 355 355 354 353 351
307 309 308 309 311 312 311 311 314 314 312 311 312 312 313 313 315 316 318 320 321 322 324 324 324 325 327 328 332 343 345 342 340 344 348 349 348 354 355 355 354 353 353 353
309 310 310 308 309 312 308 312 313 310 309 309 309 309 310 311 315 316 317 319 320 320 320 323 323 323 323 326 330 334 342 343 341 341 338 345 350 354 357 356 355 353 353 353
310 306 303 309 314 308 309 308 307 306 306 306 306 307 308 309 311 314 317 318 317 319 318 320 321 321 321 321 326 333 336 338 342 340 337 340 350 353 356 357 356 354 354 353
307 305 305 304 306 306 306 305 304 305 304 304 305 305 307 308 310 311 314 316 316 316 317 320 321 320 320 319 321 324 333 337 338 341 339 338 346 351 357 356 357 355 354 354
303 305 303 305 304 305 305 306 304 305 304 304 305 305 306 307 309 311 312 313 315 315 316 319 320 320 319 318 321 321 325 333 335 337 342 342 351 350 355 357 358 358 357 356
306 303 303 301 304 305 304 304 304 304 304 304 303 304 306 306 307 309 310 312 312 315 316 317 318 319 318 317 318 321 321 326 333 336 341 348 355 355 352 356 358 357 359 358

GFSCGP_850_thetae_075.txt.gz
Theta_e
321 320 322 323 324 326 326 325 325 325 325 325 350 352 351 350 349 350 349 347 347 347 347 347 344 342 342 341 344 341 340 343 345 345 346 346 345 346 347 348 344 344 343 345
322 322 322 324 326 326 327 326 325 324 331 335 351 354 350 351 349 351 349 347 347 347 347 347 346 341 342 341 344 341 341 343 345 343 345 345 347 346 346 345 348 345 345 344
324 327 326 326 326 327 326 325 325 325 330 347 349 356 353 349 349 349 351 350 347 346 347 347 346 342 341 343 343 342 341 340 340 342 344 344 347 347 346 346 348 346 345 345
325 325 326 325 326 325 326 323 325 324 320 321 341 356 352 346 347 348 351 351 349 347 346 347 346 342 341 342 342 342 342 341 340 338 343 342 345 346 345 346 346 346 346 345
324 322 323 322 322 324 325 324 322 322 320 320 324 326 338 345 348 349 350 351 350 349 347 347 347 346 340 341 342 341 341 341 340 336 337 343 342 344 341 346 347 347 345 346
315 317 321 322 323 322 323 323 317 314 315 318 319 319 323 345 347 345 349 350 351 349 348 347 347 347 341 340 341 341 341 340 340 337 335 343 341 341 345 345 347 348 345 342
315 316 314 315 317 318 317 316 318 319 318 319 317 319 320 337 341 342 345 349 350 350 346 347 347 346 345 341 340 340 341 340 340 340 335 335 338 342 345 346 346 348 347 342
314 316 314 315 315 316 321 316 317 321 319 320 316 320 322 320 325 334 342 346 348 349 347 347 347 348 347 346 341 340 341 341 341 341 339 334 335 343 345 346 346 347 348 346
314 315 314 316 314 314 318 318 317 315 315 319 318 320 321 327 333 336 340 343 348 348 348 347 347 348 348 347 345 342 341 341 341 341 342 335 333 343 344 346 346 348 348 348
313 314 313 314 314 313 312 312 316 313 320 323 319 320 326 329 332 336 339 341 345 348 347 346 347 347 347 348 347 345 343 342 342 342 342 342 333 333 339 345 345 347 348 348
310 310 312 311 312 312 311 311 309 311 314 318 320 321 321 327 329 338 340 341 341 345 347 346 348 347 347 347 346 346 343 342 342 342 343 342 342 332 333 340 345 346 347 347
309 306 310 312 309 311 310 310 307 310 313 311 317 321 314 315 325 336 339 341 342 343 346 346 345 346 346 346 346 346 344 343 342 343 343 343 343 343 331 331 339 345 346 347
311 308 311 310 308 308 309 309 309 306 305 310 313 315 314 318 318 330 338 341 342 342 346 346 347 347 347 344 344 344 344 343 343 343 343 343 343 343 343 333 330 341 345 346
311 304 308 310 311 309 312 312 309 308 309 310 311 311 316 322 326 332 336 339 342 343 345 345 346 344 347 348 346 346 345 345 345 345 344 344 344 344 344 344 335 328 339 344
305 308 310 309 311 312 312 312 312 310 311 312 312 311 322 322 326 326 331 336 338 338 340 342 344 344 342 342 339 340 345 347 347 347 346 346 346 345 345 345 344 340 327 333
306 309 311 310 311 310 311 310 311 311 311 312 314 317 319 320 323 323 325 329 332 335 334 334 335 342 345 345 343 343 341 343 347 347 348 348 347 347 346 346 346 345 344 329
306 307 307 310 310 309 307 309 310 311 316 315 319 320 318 318 321 321 321 323 325 330 332 331 332 333 339 343 345 345 343 341 346 348 348 349 349 349 349 348 347 346 346 345
305 305 305 307 308 311 306 308 311 318 318 317 317 316 316 316 320 319 320 321 324 329 328 327 327 328 330 334 340 345 345 344 344 349 350 351 350 350 350 350 350 349 348 347
304 303 306 308 307 307 310 311 312 315 316 314 314 314 313 312 317 320 318 320 321 324 324 324 325 325 326 329 336 340 344 345 343 346 351 349 351 352 353 353 353 353 352 351
305 303 307 306 306 311 309 312 311 312 315 313 312 312 312 312 317 318 315 318 320 321 321 321 321 323 324 325 330 336 343 345 346 347 348 347 349 352 355 356 356 355 354 353
303 307 307 306 306 309 310 309 311 312 311 310 309 309 308 310 312 311 314 316 319 320 320 320 319 320 321 321 324 330 335 341 342 343 340 348 350 349 352 353 353 354 354 354
305 308 306 309 307 309 308 310 312 308 307 307 307 306 306 306 308 309 309 313 317 317 317 318 318 318 319 320 321 323 328 333 337 341 342 341 346 346 345 347 348 352 354 354
305 305 302 307 306 309 308 308 308 307 305 305 304 304 304 305 306 307 308 309 311 316 316 316 317 318 319 319 320 322 322 325 331 335 338 341 340 340 341 343 345 353 354 356
304 306 304 303 303 305 305 304 305 305 304 304 304 303 304 305 305 307 307 309 310 311 314 315 315 318 319 319 320 319 322 323 324 329 333 335 340 340 339 345 345 351 352 353
302 305 301 300 302 304 305 305 305 304 304 304 303 303 303 303 304 305 306 307 309 310 312 314 315 316 318 319 319 320 321 320 322 325 329 332 336 343 341 350 348 350 348 351
304 303 301 302 303 304 305 305 305 304 304 304 304 305 304 304 304 304 306 306 307 308 311 312 314 316 316 319 319 319 321 321 321 323 325 329 332 339 348 352 351 352 351 351

GFSCGP_850_thetae_078.txt.gz
Theta_e
319 317 319 320 323 326 326 324 325 324 324 326 343 349 351 351 350 350 349 347 346 346 346 345 345 344 340 340 339 340 339 340 342 344 345 344 345 345 345 347 346 345 343 342
319 319 320 321 324 326 326 326 326 325 331 333 350 352 349 348 349 350 349 348 347 346 346 346 343 343 343 340 342 341 340 341 340 341 341 344 343 344 346 347 345 343 342 343
321 324 322 324 325 326 326 325 325 326 326 346 347 351 353 350 348 349 349 348 347 346 346 347 346 343 342 343 341 342 341 341 340 340 344 345 345 346 346 343 345 345 344 343
323 325 326 326 327 324 326 323 325 325 319 320 340 341 349 348 348 347 348 350 348 346 346 347 347 346 343 342 342 341 342 341 341 342 344 344 343 344 346 344 344 347 346 343
326 322 324 323 322 323 325 322 323 323 319 318 324 330 337 343 345 345 346 347 350 347 346 346 346 347 347 343 342 341 343 342 341 342 342 343 343 342 346 345 345 346 345 344
317 315 320 322 322 322 322 318 313 312 313 318 319 321 319 344 345 343 343 346 348 350 348 346 346 346 346 344 341 341 343 342 341 341 340 340 341 341 342 342 345 346 347 346
314 315 313 314 316 318 317 316 316 318 317 319 314 318 322 319 325 334 337 345 348 350 349 346 346 346 346 344 341 341 343 342 341 341 339 337 339 340 339 341 342 345 347 346
312 315 313 313 314 317 317 316 316 320 318 319 316 319 324 327 333 337 339 339 347 350 350 348 346 346 347 347 344 341 342 342 341 341 340 337 336 340 340 339 342 345 346 346
312 314 313 314 312 313 318 315 314 313 314 317 317 323 322 321 328 336 339 340 344 348 350 349 348 347 346 347 347 343 340 340 341 340 340 339 336 338 334 338 343 344 344 346
311 313 312 312 312 312 311 311 316 314 320 322 318 323 321 316 316 324 337 338 339 341 348 349 348 347 347 346 346 347 344 341 340 340 341 340 340 336 334 338 342 343 343 345
309 308 312 310 309 309 309 309 308 310 312 318 322 320 315 314 319 319 334 338 341 341 342 348 348 347 346 347 347 347 347 344 340 341 341 341 341 338 335 337 338 342 343 345
309 306 309 311 309 308 308 308 306 312 314 310 315 315 311 320 326 330 335 338 341 342 343 347 347 347 347 346 346 347 347 346 345 342 341 341 341 342 337 335 334 336 343 344
311 307 308 311 309 308 310 309 306 304 305 310 317 316 313 323 326 326 329 336 337 342 346 346 345 345 346 346 344 343 344 345 344 344 342 341 341 341 342 337 333 331 335 342
309 306 308 308 309 308 312 311 309 306 309 309 310 312 318 322 324 323 325 330 336 336 338 343 343 344 345 345 344 344 343 343 343 343 343 342 341 342 342 342 341 333 331 333
304 309 309 309 310 311 311 311 311 311 310 311 309 314 321 319 322 321 321 325 329 332 332 335 337 343 344 343 342 342 344 345 344 344 344 343 343 342 342 342 343 343 340 330
304 310 310 310 310 310 310 309 310 310 311 310 312 317 317 319 321 321 321 322 325 327 327 327 329 334 339 344 344 342 343 342 344 346 346 346 346 345 345 344 343 343 343 343
305 306 306 309 309 308 308 309 309 311 314 312 312 316 316 316 319 318 319 321 322 324 324 324 324 325 329 335 342 344 344 343 341 343 346 347 346 346 346 346 346 345 345 344
304 304 303 307 307 308 305 307 309 315 318 317 316 315 314 313 312 316 316 318 320 321 322 322 321 323 323 327 335 341 345 344 343 343 345 346 347 347 348 348 348 348 347 347
302 303 304 307 307 307 309 312 313 314 315 313 314 313 312 311 312 317 317 315 317 319 320 321 320 319 320 321 326 336 343 345 343 344 347 349 348 348 348 349 349 349 349 349
304 302 305 305 307 310 307 311 310 310 313 311 311 310 308 309 310 317 316 310 313 318 318 319 319 318 318 320 320 326 336 342 342 344 345 345 347 350 351 351 350 350 351 352
302 304 306 306 305 308 309 308 310 312 310 309 308 307 306 307 308 308 308 309 309 311 316 317 317 316 317 319 320 319 323 329 338 341 341 342 346 348 352 351 350 350 351 352
304 303 308 308 306 309 308 309 312 308 307 307 306 305 305 304 304 305 306 306 307 308 309 312 316 315 316 316 319 319 318 320 325 333 337 341 341 343 347 348 350 352 352 351
303 302 303 304 305 308 308 306 306 307 306 304 304 304 304 304 304 304 304 307 306 306 307 308 310 314 314 315 317 319 319 318 321 323 327 332 335 340 340 343 344 345 346 350
302 303 299 301 302 303 305 304 304 305 305 304 304 304 304 304 303 303 303 304 306 305 306 307 308 310 311 312 315 317 318 318 318 320 322 323 325 331 334 341 339 342 342 347
301 303 302 299 301 303 304 304 304 303 304 304 304 304 304 304 304 303 304 304 304 305 305 306 307 308 310 313 314 316 317 317 317 318 319 320 323 323 328 335 341 340 343 348
303 301 300 302 304 304 304 305 305 304 304 304 304 305 305 304 304 304 303 304 304 304 304 305 306 307 309 312 314 315 316 317 316 317 318 319 320 323 325 329 337 345 348 349

GFSCGP_850_thetae_081.txt.gz
Theta_e
318 324 326 332 331 330 330 330 331 328 332 337 339 342 349 352 348 350 348 347 346 345 346 347 346 344 335 334 333 333 333 335 340 343 344 344 344 344 345 346 345 345 342 342
319 323 325 328 327 329 331 332 331 328 339 332 349 351 349 349 349 349 349 347 348 346 346 346 346 345 341 334 335 335 335 337 341 343 343 343 343 344 344 346 344 344 345 342
320 324 325 327 328 331 331 334 331 330 327 348 349 353 352 351 350 351 351 349 348 347 347 346 345 345 344 337 337 338 338 339 341 342 343 343 343 344 345 345 344 344 343 343
323 326 327 326 329 330 334 328 330 329 328 328 346 338 353 350 352 349 351 351 349 348 347 347 346 345 344 344 339 340 340 339 341 341 342 342 344 344 344 342 342 346 345 342
326 328 331 332 330 328 331 327 329 328 328 325 335 339 331 349 351 350 347 349 350 348 347 347 346 345 343 343 343 341 341 341 341 341 342 343 344 344 345 344 344 346 346 344
320 319 325 328 327 327 325 323 322 322 324 327 328 334 337 338 338 340 341 346 348 350 348 347 347 346 345 346 343 342 342 341 341 341 341 342 344 344 343 345 345 345 346 344
317 317 316 316 324 324 325 326 327 328 327 328 322 331 338 335 336 340 341 340 342 348 350 347 346 346 346 347 347 345 342 341 342 342 341 341 344 343 341 342 342 345 345 347
323 320 317 316 317 323 326 327 327 329 328 327 322 332 332 322 325 330 339 341 343 346 349 350 347 346 346 347 347 346 343 341 341 342 341 341 342 342 342 342 341 341 345 344
319 317 315 315 315 316 321 324 320 323 320 327 325 327 327 325 331 334 340 342 343 343 349 350 349 346 346 346 346 346 345 341 340 342 342 341 341 340 337 339 341 340 343 343
315 318 314 314 314 315 319 316 324 324 327 327 328 327 326 331 336 338 337 339 343 344 344 350 350 346 346 346 346 346 346 345 342 340 341 341 341 339 336 338 341 339 343 345
314 317 316 315 314 314 317 319 319 322 322 327 330 326 324 333 335 333 334 339 342 346 343 346 350 349 347 346 346 346 346 346 344 341 341 341 341 340 339 337 338 337 342 344
313 315 316 314 312 312 312 314 316 326 325 322 326 322 328 331 331 330 332 337 339 341 346 347 348 349 346 347 346 346 346 346 346 346 343 341 340 340 340 340 336 334 340 343
314 314 317 315 315 314 315 314 313 314 317 324 326 321 326 330 331 329 330 334 334 335 343 344 344 345 346 345 345 344 345 345 346 345 345 343 341 341 341 341 340 336 336 341
312 313 315 317 316 314 315 313 313 315 321 320 320 318 324 329 330 328 330 331 331 330 329 338 342 343 344 344 342 341 342 344 344 344 344 344 344 342 341 341 341 341 336 335
313 315 314 314 313 313 313 313 313 314 315 319 317 319 325 327 327 325 327 329 328 328 327 325 326 333 340 343 343 343 343 343 343 344 344 344 345 344 344 342 341 341 342 340
311 315 314 314 312 312 313 312 312 312 312 314 315 319 321 323 323 323 323 324 325 325 326 325 325 324 325 331 339 343 342 343 344 344 344 345 344 345 344 344 342 342 341 342
312 314 315 314 312 311 312 312 311 312 314 314 313 319 320 321 320 319 320 320 320 321 323 324 324 324 323 322 329 339 343 343 342 342 344 345 345 345 345 345 344 344 344 343
311 312 313 314 312 312 311 311 312 313 317 319 320 319 317 316 314 317 314 315 317 318 320 321 322 322 322 320 321 330 340 343 345 343 343 343 344 344 346 346 346 346 346 346
308 312 313 315 313 311 311 314 316 316 316 317 318 316 315 314 314 317 313 311 311 312 316 317 318 320 320 320 319 320 330 338 340 343 343 344 344 347 347 347 347 347 347 347
310 311 313 314 314 313 312 313 312 314 315 313 314 313 312 313 318 319 311 309 309 309 309 311 314 316 317 318 319 319 320 324 333 338 341 343 346 346 346 348 348 348 348 348
315 315 315 315 315 313 311 311 312 314 316 311 311 310 310 311 311 309 308 308 308 308 308 309 309 309 311 313 317 317 319 319 320 326 335 340 342 345 346 347 348 349 350 351
314 316 315 314 315 315 311 311 314 313 309 309 308 307 307 307 306 306 307 307 307 307 307 308 309 309 308 309 311 316 315 318 319 320 324 332 337 340 342 345 347 348 348 353
313 312 315 315 315 311 310 310 308 307 308 307 306 306 306 306 306 306 306 306 306 306 306 307 308 308 308 308 308 310 312 314 318 319 320 322 328 332 334 340 341 344 345 348
309 306 311 309 309 310 309 307 306 306 306 306 305 306 305 305 305 305 305 306 306 305 306 306 307 308 309 308 308 308 311 312 315 318 319 319 319 323 327 326 331 335 340 341
309 308 310 309 306 306 306 306 306 304 304 305 305 305 306 306 306 305 305 306 305 304 306 306 307 307 308 308 308 308 311 313 314 316 317 319 318 319 322 324 324 329 331 340
306 309 311 315 310 309 308 305 305 305 305 306 306 306 307 306 306 305 304 305 304 303 305 306 308 308 308 307 308 307 310 313 313 315 315 317 318 318 319 321 323 325 328 330

GFSCGP_850_thetae_084.txt.gz
Theta_e
320 325 326 329 332 338 340 341 341 347 348 343 343 349 356 354 353 350 349 348 346 341 342 346 346 344 341 341 342 345 346 344 343 347 348 349 350 351 351 351 346 343 346 341
321 325 325 330 334 336 338 338 336 337 336 334 339 340 353 353 351 352 351 349 347 342 345 347 347 346 343 341 341 344 346 341 338 347 348 349 351 351 349 345 347 348 345 342
323 324 326 330 336 335 338 339 335 337 334 339 343 347 348 350 349 350 349 350 349 344 345 348 348 346 345 340 343 344 344 344 340 348 349 347 350 351 351 351 351 349 345 343
323 326 327 330 334 334 336 337 334 332 333 343 343 357 354 350 352 351 351 350 351 349 346 346 348 348 346 343 342 345 342 340 340 343 350 351 348 348 349 350 350 351 349 347
325 326 330 332 332 332 333 334 335 333 333 331 336 342 351 351 352 353 350 351 351 350 349 348 348 348 346 347 345 344 342 339 345 340 346 349 346 348 349 348 351 351 344 342
328 325 331 332 332 332 331 332 332 333 333 334 334 339 343 345 346 345 344 346 350 351 350 349 348 348 347 346 347 347 347 340 340 340 341 344 350 350 350 349 351 350 350 348
325 327 324 325 334 332 330 331 333 336 334 334 333 336 343 337 335 340 344 344 343 350 351 351 350 349 348 346 347 348 349 346 341 341 341 342 342 347 351 348 346 349 349 350
324 323 323 320 327 332 330 330 331 335 334 333 331 338 334 333 337 342 344 346 345 346 351 351 349 349 349 348 348 349 349 348 343 342 342 341 342 349 348 349 347 349 350 350
327 322 319 319 320 323 330 331 328 329 332 332 332 333 331 334 338 340 343 344 348 347 347 351 351 350 349 349 349 350 350 348 347 342 341 342 342 342 348 348 350 348 349 350
323 322 319 318 319 321 327 328 329 328 332 333 331 336 336 338 339 340 341 342 346 349 347 350 351 352 350 349 349 350 351 349 346 345 344 342 342 341 341 348 349 349 348 350
320 323 320 320 322 323 324 327 327 328 329 331 335 333 332 338 337 338 339 339 341 344 348 350 352 352 351 350 350 350 350 351 351 347 348 348 348 342 341 340 342 346 349 351
319 322 323 321 317 317 320 325 327 330 330 330 331 331 332 336 335 336 338 336 336 338 343 348 350 351 351 350 350 350 349 350 351 352 349 348 347 350 349 341 340 340 343 347
319 321 322 320 319 318 322 321 322 325 328 330 329 330 332 334 335 336 336 336 332 332 334 341 344 347 348 348 349 350 350 349 349 350 350 350 351 350 342 343 341 341 340 337
316 320 322 323 323 321 320 319 319 323 328 330 329 331 333 334 334 335 335 335 332 329 329 330 332 336 342 344 346 348 349 349 349 350 350 349 346 345 345 343 342 344 341 341
319 321 320 319 318 318 317 317 317 322 324 327 327 330 331 331 331 331 332 332 332 332 330 327 327 327 328 336 340 342 343 345 347 348 349 350 351 350 346 345 344 341 343 342
317 320 319 318 316 316 317 316 315 316 319 322 325 328 327 327 328 327 328 328 328 329 329 329 328 327 327 326 330 338 342 342 343 345 348 350 351 351 352 351 347 344 344 343
318 319 319 319 316 315 316 317 316 316 317 319 323 326 324 326 325 325 325 325 324 325 325 325 326 326 326 327 326 328 336 341 343 343 347 348 348 349 351 352 351 350 345 345
317 318 317 318 317 315 317 316 315 316 319 319 320 321 321 321 320 321 319 319 318 317 319 321 322 323 324 324 326 326 326 333 339 344 344 344 346 349 350 350 350 352 350 350
315 317 317 318 316 316 315 315 316 316 319 319 321 319 319 318 319 321 317 316 316 315 315 315 316 317 320 321 322 325 325 324 326 333 339 342 343 344 348 348 349 349 352 351
314 316 317 316 319 317 318 317 315 315 319 318 318 318 318 318 320 322 316 314 314 314 314 314 314 314 316 317 317 320 324 324 323 322 327 332 337 342 345 346 347 349 351 349
317 316 317 317 318 317 317 315 315 316 321 316 316 316 316 317 317 315 313 313 312 312 312 312 313 314 315 315 315 317 320 321 321 319 320 323 329 337 340 344 346 345 346 350
319 320 319 319 319 319 315 315 317 318 315 314 313 313 313 313 312 311 311 312 311 311 311 312 312 312 313 314 314 316 317 319 315 313 318 320 321 324 333 340 342 344 345 346
318 317 319 318 319 317 314 316 315 313 312 312 311 311 310 310 310 310 310 310 310 310 311 310 311 311 312 312 314 314 315 315 317 312 310 316 320 320 321 326 333 338 340 342
314 312 315 315 315 315 313 310 310 310 310 310 309 309 309 309 309 310 309 309 309 310 309 309 310 310 311 311 312 313 313 314 316 317 312 312 315 319 320 320 325 328 333 332
316 313 315 316 312 312 312 310 310 309 309 309 308 308 308 309 309 309 308 308 307 307 307 307 308 309 310 311 312 312 312 313 314 316 317 316 316 320 319 319 322 323 326 331
312 315 317 319 313 312 312 310 310 309 309 309 309 308 308 308 309 308 307 307 306 306 306 306 305 306 307 309 310 312 312 312 313 315 315 315 315 316 318 319 319 320 320 323

GFSCGP_850_thetae_087.txt.gz
Theta_e
322 326 329 330 332 338 340 342 344 351 348 350 351 353 357 350 352 350 349 347 346 345 343 341 342 341 340 343 346 348 348 348 348 347 347 349 351 350 348 349 351 350 350 350
324 325 327 328 330 335 340 341 342 347 347 345 347 352 355 353 352 352 350 348 347 346 342 344 344 342 340 341 344 347 348 349 349 349 348 348 349 350 350 351 352 351 351 350
326 326 327 327 330 336 340 341 342 342 340 338 341 352 357 353 353 352 351 350 348 345 342 346 347 345 342 342 342 346 348 349 348 348 349 349 352 353 349 350 350 350 352 350
326 326 327 327 334 336 338 338 337 339 341 344 344 351 353 355 354 352 350 350 350 347 343 347 347 347 344 340 342 346 350 349 348 350 348 351 349 348 350 348 350 352 351 351
326 326 327 329 333 333 334 338 338 336 338 341 344 353 354 355 358 355 352 351 351 348 345 347 348 347 346 342 344 347 350 350 348 348 350 350 350 349 348 349 350 349 351 351
327 325 328 329 331 332 334 336 338 337 337 339 337 345 356 353 352 350 350 351 352 351 348 347 348 348 347 343 344 346 351 348 349 351 346 351 352 348 350 349 349 349 350 351
329 327 330 331 332 332 335 336 339 339 338 337 335 342 350 344 344 346 346 347 350 352 350 349 348 348 349 345 344 346 349 352 351 352 353 347 352 351 354 351 349 350 349 351
329 330 331 332 334 334 334 334 336 338 337 334 334 344 342 340 343 345 347 348 347 347 351 350 350 349 349 347 345 347 350 352 354 352 353 352 353 351 348 347 349 346 349 349
328 327 325 327 330 329 334 333 331 332 334 334 338 339 340 342 344 344 344 348 353 347 351 351 353 350 349 349 347 347 349 353 355 355 355 353 351 345 349 348 348 350 349 350
328 327 324 323 324 327 329 332 333 332 335 335 340 341 342 343 344 342 342 345 349 351 349 353 351 350 351 349 349 349 350 353 355 356 356 355 355 354 346 351 350 349 350 350
326 327 325 323 325 328 329 331 332 332 332 335 340 341 340 343 343 343 339 339 342 348 350 353 352 349 347 351 350 350 351 353 355 356 356 355 354 355 354 354 353 350 346 350
325 326 326 324 324 324 326 329 331 332 333 331 335 340 339 339 341 340 337 335 339 341 343 341 346 347 350 351 351 351 352 352 353 355 356 355 354 354 354 355 354 353 351 349
323 325 327 325 324 324 325 327 328 330 331 333 333 341 338 337 339 339 336 335 334 336 339 337 338 348 344 344 347 350 350 351 352 353 354 355 355 355 354 354 355 354 353 348
319 324 326 326 326 325 325 325 326 328 331 332 334 340 340 339 340 337 336 334 332 332 334 334 334 335 340 343 346 348 350 350 350 351 352 353 355 355 355 355 355 354 353 353
321 322 324 323 321 323 325 324 323 326 328 330 337 339 338 336 337 335 334 334 334 333 332 331 331 331 331 335 340 343 346 348 349 350 350 352 354 354 354 354 355 350 353 353
321 323 323 322 320 320 320 320 320 323 325 328 332 336 333 332 332 332 332 332 331 331 331 332 331 331 330 329 330 335 340 343 344 345 348 350 350 351 353 355 353 353 345 350
322 322 323 322 321 319 319 320 320 321 323 326 333 334 331 331 329 329 329 328 328 328 328 328 328 328 328 329 330 329 331 336 341 342 345 346 347 349 350 351 353 354 354 352
322 323 323 322 322 321 321 320 320 320 321 325 330 331 329 328 326 324 323 323 322 322 322 322 321 322 324 325 326 328 329 329 330 336 342 344 346 348 349 349 350 351 352 353
318 322 322 321 322 320 319 319 318 319 322 322 325 324 324 322 323 322 320 320 320 320 320 320 319 320 321 322 321 323 326 328 329 327 328 335 340 342 343 344 349 350 352 352
317 320 321 321 321 320 321 319 319 318 322 321 322 322 321 320 322 326 320 318 318 317 317 317 317 318 319 320 319 320 322 324 326 327 327 327 327 334 339 343 345 347 349 350
319 319 320 321 321 321 321 318 316 318 325 320 320 320 319 320 322 319 317 317 316 316 316 315 316 316 317 317 318 319 320 321 323 323 324 326 324 322 328 336 340 344 346 346
321 321 321 321 322 322 319 317 318 322 319 318 318 317 317 317 316 315 315 315 315 315 315 315 314 315 316 316 316 318 319 320 320 320 322 324 325 324 323 322 325 335 340 344
322 320 323 320 325 322 318 318 320 319 318 317 316 315 314 314 314 313 314 314 314 314 314 314 313 314 314 315 316 316 317 317 318 318 319 322 322 323 324 319 321 328 331 334
318 317 319 320 320 319 318 316 315 313 314 313 313 312 312 313 312 313 313 312 312 312 312 312 311 312 313 313 314 315 316 316 316 317 317 318 321 321 320 324 323 325 327 331
319 318 318 318 317 317 316 313 313 312 312 311 311 311 311 311 312 312 311 311 310 310 310 310 310 310 310 310 311 312 314 315 316 316 316 317 318 319 319 320 322 323 321 323
315 318 321 322 316 316 315 315 313 313 312 312 311 310 311 311 311 311 311 310 310 309 309 309 309 309 309 308 309 310 312 312 315 316 315 315 317 318 318 318 318 319 320 319

GFSCGP_850_thetae_090.txt.gz
Theta_e
325 325 327 329 334 339 341 343 349 347 351 354 356 355 352 350 347 346 345 344 344 343 343 342 341 340 343 346 347 348 346 345 349 346 346 347 347 346 348 348 349 348 349 350
325 324 327 329 331 335 339 340 349 346 343 350 356 356 353 351 349 348 347 345 345 344 344 342 341 340 342 346 347 348 348 345 350 344 349 347 351 348 348 349 351 350 348 349
326 325 326 328 329 331 335 339 347 348 345 346 351 358 355 352 353 350 349 347 346 345 345 342 344 342 341 344 346 347 349 347 347 345 348 349 346 346 350 349 352 348 348 348
326 326 326 327 328 330 333 338 343 347 339 349 349 364 357 356 355 353 351 349 348 347 346 345 345 343 341 342 343 347 349 347 343 348 346 348 350 348 350 348 351 350 348 349
326 327 327 327 328 330 334 339 341 342 340 339 342 356 354 339 355 354 352 351 348 346 347 346 348 346 345 343 343 345 348 348 340 345 345 347 346 350 348 350 347 351 347 349
326 326 327 328 329 334 335 335 340 340 339 341 343 343 359 348 345 352 351 350 350 349 346 347 347 346 348 342 341 345 348 347 346 341 347 349 349 345 351 348 349 348 346 341
327 327 327 327 330 332 333 335 341 340 338 338 341 343 355 345 343 341 353 351 351 351 349 345 348 347 346 343 344 346 348 344 342 342 344 346 348 352 349 348 347 352 350 351
326 331 327 329 330 333 332 336 339 340 338 336 336 350 348 339 347 349 350 350 343 342 352 348 348 349 347 348 344 346 347 345 341 342 341 341 340 341 349 350 353 347 351 352
328 329 328 331 333 334 332 335 335 336 335 336 343 344 344 347 347 347 348 351 353 350 352 352 348 349 349 348 346 345 344 345 343 341 347 346 344 346 345 348 347 347 349 350
329 330 330 329 329 331 332 332 335 336 338 337 345 347 351 349 348 345 345 345 348 349 354 353 352 352 349 349 349 349 347 346 347 347 347 348 346 343 348 349 350 351 350 349
327 329 327 326 328 330 331 332 333 334 334 336 345 346 345 348 346 344 343 344 344 344 345 349 351 349 350 350 347 349 351 349 350 354 356 356 351 348 344 345 342 349 349 353
327 327 328 326 325 326 330 331 332 334 338 340 348 349 342 343 342 341 340 341 342 340 340 341 339 346 347 346 342 340 347 352 354 356 357 356 356 355 355 347 344 343 341 341
324 327 329 327 325 325 327 328 330 331 333 339 339 344 341 342 341 340 338 337 337 338 337 337 340 335 335 336 342 347 346 344 350 355 356 356 355 355 356 355 353 353 349 344
322 324 328 328 327 326 326 327 329 329 331 334 341 343 343 341 340 338 337 335 335 335 336 334 335 338 340 343 344 345 343 339 348 351 351 355 356 355 355 354 354 355 354 352
321 323 325 327 324 324 325 325 327 327 329 340 343 342 343 340 338 337 336 336 335 335 334 333 334 333 332 333 337 340 344 345 347 348 350 350 352 356 357 356 355 353 355 354
321 322 324 324 323 322 324 324 324 325 326 332 338 341 338 337 335 335 334 333 333 333 332 332 332 332 332 332 331 331 337 341 344 345 346 347 342 351 354 353 353 356 354 353
322 322 322 325 323 322 321 322 322 323 325 336 340 336 334 336 334 334 332 331 331 329 328 327 328 328 328 328 330 331 330 332 339 341 341 345 346 348 351 352 353 354 354 352
324 325 324 325 323 324 323 322 322 322 323 331 336 335 333 331 329 329 327 326 325 325 324 324 324 324 325 324 325 329 330 331 329 330 335 337 341 344 346 348 349 351 353 353
320 323 323 323 323 324 322 321 320 321 322 329 333 331 330 328 326 324 324 323 323 322 322 321 320 321 323 322 322 324 326 327 328 328 327 325 329 337 342 343 345 348 348 351
318 319 323 324 323 323 324 321 320 319 322 324 328 328 327 326 328 325 321 320 320 319 319 319 319 319 321 320 321 322 323 324 325 325 325 326 326 322 325 332 340 342 343 344
319 319 320 322 322 323 322 319 318 319 324 322 324 324 323 324 325 323 321 320 319 318 318 317 317 318 319 318 319 320 321 323 322 320 318 321 319 320 326 323 323 326 336 343
321 321 321 320 321 322 321 319 319 325 323 321 323 322 322 321 320 319 318 318 317 317 317 317 316 317 317 317 318 319 319 319 319 317 316 314 316 317 317 317 320 321 324 327
323 322 325 324 326 322 320 322 321 321 320 320 320 319 319 318 317 317 316 316 316 316 316 315 315 315 316 317 317 317 318 317 318 317 315 315 313 314 317 318 316 322 325 327
320 319 322 323 324 322 320 320 320 320 319 317 317 316 315 315 315 315 315 315 315 314 313 313 313 313 313 313 313 314 314 315 315 316 317 317 317 317 318 319 321 323 324 326
322 320 320 321 320 319 319 317 316 315 315 314 313 313 314 314 314 314 314 313 312 312 312 312 312 312 312 311 311 311 311 311 312 315 317 317 317 317 317 319 320 320 321 321
318 318 322 323 318 319 318 316 315 314 313 313 313 313 313 313 313 313 313 313 312 311 311 311 311 311 310 310 310 308 309 309 309 310 312 315 316 317 317 317 318 318 318 318

GFSCGP_850_thetae_093.txt.gz
Theta_e
326 322 322 323 325 328 335 342 348 348 345 348 354 353 352 350 349 345 344 342 342 340 340 341 342 343 344 346 343 345 344 341 346 348 347 346 345 346 347 346 346 348 344 342
324 323 323 324 326 328 333 337 351 348 347 348 355 355 352 350 347 345 344 342 342 341 341 341 342 343 345 345 342 346 345 343 346 344 346 345 347 348 345 347 347 348 348 343
323 324 325 323 326 328 330 330 348 349 348 349 349 352 354 350 347 347 347 344 343 343 342 342 340 343 343 345 342 348 346 345 342 347 347 346 346 347 346 348 347 348 348 346
323 325 325 323 324 325 325 331 340 348 348 351 347 354 345 350 350 348 346 347 345 344 343 342 340 343 343 345 343 342 347 347 341 347 349 349 341 346 347 346 348 346 348 348
323 324 324 324 325 325 325 340 344 345 344 351 351 353 353 348 352 349 346 349 346 345 345 341 342 341 342 342 342 341 342 346 341 348 348 346 348 348 349 347 348 348 348 348
323 325 324 324 325 325 327 334 339 341 341 343 349 354 354 352 352 352 350 350 349 347 346 346 345 342 342 341 342 342 342 340 340 348 346 347 344 348 348 349 349 349 344 346
323 323 324 325 326 326 328 332 333 342 341 341 336 351 351 348 344 346 345 344 349 349 347 347 345 344 345 343 342 343 343 339 340 345 344 346 347 347 347 348 346 346 347 347
323 324 324 326 326 327 327 329 330 344 338 335 337 352 347 343 342 345 343 347 345 349 348 347 348 347 346 344 343 340 340 340 338 336 343 347 349 347 348 347 347 350 348 348
327 325 326 326 326 326 331 330 328 332 332 333 345 344 341 340 340 345 346 339 345 345 348 349 349 347 346 346 341 342 341 339 337 336 335 339 340 340 342 347 351 349 349 350
329 326 327 326 329 332 333 329 329 329 336 339 349 349 350 349 349 347 346 345 344 349 341 345 348 349 348 349 345 344 343 343 340 340 340 340 340 339 342 347 349 348 349 349
325 324 328 328 329 330 330 328 330 328 331 338 348 349 346 346 344 344 344 341 342 344 349 349 350 349 349 350 348 349 346 346 345 344 341 341 341 342 343 346 347 348 348 350
324 322 326 325 325 328 327 329 328 329 332 337 344 348 342 342 341 341 341 339 340 340 342 347 344 341 339 339 348 346 348 348 347 349 348 347 344 346 343 343 346 349 349 347
321 325 327 327 323 323 324 325 324 324 329 337 338 347 343 341 339 338 338 338 336 338 338 341 341 342 338 340 346 345 345 344 343 346 346 350 353 353 347 343 345 344 344 344
323 322 327 328 327 322 325 325 325 326 328 337 338 346 343 340 337 336 336 336 335 335 335 337 339 340 340 342 344 343 341 341 340 340 344 348 348 349 351 352 352 351 347 347
320 323 322 324 326 321 322 323 324 327 335 335 339 346 342 340 336 336 335 334 334 335 333 333 332 332 335 340 343 343 340 337 338 340 340 342 345 348 348 349 350 351 352 352
320 322 320 323 323 322 321 323 324 324 337 335 338 344 338 337 336 335 335 334 333 333 332 333 333 332 332 330 331 333 339 343 342 339 342 339 337 346 337 333 348 351 351 353
322 322 322 320 323 323 321 321 321 321 333 338 342 338 336 335 334 333 332 330 328 327 327 327 326 326 327 330 331 331 329 331 338 341 344 346 345 342 341 340 345 347 351 353
322 323 322 323 324 324 322 320 321 322 332 337 337 337 336 335 333 330 327 326 325 323 323 324 324 323 323 327 327 331 328 328 327 328 330 336 343 344 345 346 348 348 349 350
317 321 323 322 320 322 324 321 320 323 337 335 336 335 329 326 325 325 324 324 323 321 320 320 322 322 321 321 323 325 326 326 324 325 325 326 324 328 336 341 343 344 347 348
316 319 318 322 327 324 322 320 319 320 335 330 329 327 326 325 325 322 322 321 320 320 319 319 319 320 319 319 320 322 323 323 321 318 318 318 318 321 323 324 326 331 339 342
317 318 318 318 323 323 322 319 318 320 325 331 329 327 326 323 325 321 320 319 318 318 317 317 318 318 318 317 317 319 320 320 320 316 314 315 315 316 316 316 318 320 323 325
322 320 321 319 321 325 322 319 324 325 322 325 325 324 322 322 321 320 319 318 318 317 317 316 316 316 317 317 317 317 316 317 316 315 314 312 312 312 313 314 315 316 320 324
322 322 323 324 325 323 322 322 321 321 321 320 321 321 321 320 319 318 317 316 316 316 316 315 315 315 316 316 315 314 314 313 312 313 314 315 316 313 312 314 316 319 323 323
321 320 320 322 323 322 321 320 320 320 318 318 318 318 318 317 317 316 316 316 315 314 313 313 313 313 311 310 309 310 310 310 310 311 314 316 317 318 318 317 318 319 321 321
322 321 319 320 321 320 319 319 318 318 317 316 316 315 316 316 316 315 314 313 313 312 312 311 311 311 311 310 308 308 306 307 306 307 308 312 315 316 317 317 317 318 319 319
320 319 320 321 319 319 320 316 315 315 314 314 313 313 314 314 314 314 314 313 312 311 311 311 310 310 310 309 308 307 306 306 306 306 306 306 307 308 309 311 314 316 318 319

GFSCGP_850_thetae_096.txt.gz
Theta_e
326 320 321 321 321 323 325 328 350 349 350 349 352 353 352 350 349 347 343 342 342 344 345 345 346 346 346 343 344 344 341 342 345 344 344 345 343 345 346 346 346 344 343 342
320 321 321 322 323 324 326 333 352 349 347 350 348 354 350 349 348 348 343 342 340 342 344 345 346 347 345 344 343 343 343 342 343 344 344 345 344 347 346 347 345 347 341 342
321 322 323 324 323 323 322 325 349 351 343 342 346 351 351 350 348 345 343 343 340 342 343 344 345 346 346 345 342 343 343 343 340 345 345 346 345 345 345 347 346 346 346 344
321 322 324 324 323 321 320 324 343 351 349 355 345 353 345 345 349 346 346 344 340 340 342 343 343 344 343 344 344 341 344 344 339 343 346 346 345 346 346 345 346 346 347 344
321 322 322 323 323 320 322 325 342 347 344 349 348 346 347 342 350 348 348 346 343 340 340 342 343 343 343 343 342 341 343 345 341 345 346 348 348 345 346 346 348 349 347 346
320 323 321 321 323 322 323 340 340 342 339 345 346 351 354 349 349 349 347 346 346 344 342 341 342 341 342 343 342 341 340 341 343 342 346 347 346 346 347 346 346 347 348 346
323 322 321 322 321 322 325 324 332 344 343 341 344 351 347 347 347 347 347 345 348 347 346 344 342 343 342 343 342 342 341 339 342 345 345 343 345 344 348 348 350 347 347 345
324 325 321 323 321 323 325 325 328 342 338 337 344 351 345 346 349 346 348 347 347 347 347 344 346 343 342 341 342 342 342 342 338 340 347 345 346 344 344 348 348 345 346 347
325 323 323 325 324 322 324 328 324 330 328 336 346 344 342 343 344 348 347 345 346 347 348 347 347 344 342 342 342 341 342 338 336 336 343 344 345 347 344 346 347 346 347 348
324 325 322 325 325 327 324 327 328 324 333 342 347 346 346 342 347 347 344 343 345 346 347 348 348 346 345 345 344 343 342 340 339 338 335 337 345 341 341 346 347 349 349 348
322 321 323 324 326 327 327 327 325 324 326 343 349 349 347 347 347 346 343 342 344 345 346 347 348 348 347 345 344 345 343 343 342 342 337 336 336 338 338 342 347 347 347 348
319 318 322 324 321 326 325 326 323 326 330 336 339 351 343 342 341 340 340 341 342 345 344 347 348 349 348 348 346 345 345 344 343 341 343 341 341 341 341 341 347 346 346 348
317 318 323 324 319 318 321 324 320 320 327 332 339 348 342 340 340 339 338 338 339 341 342 342 344 346 348 341 342 343 342 345 345 344 342 343 343 342 342 342 341 346 346 349
322 316 323 324 321 321 319 321 323 320 331 334 339 346 343 340 339 338 336 336 336 337 338 340 340 340 344 344 343 341 340 344 345 344 343 343 344 344 345 345 343 343 344 344
318 318 319 320 321 321 319 319 323 330 330 331 344 345 338 337 337 336 335 334 334 333 332 334 338 340 341 342 343 343 341 342 344 343 342 342 342 345 344 344 345 346 346 345
314 322 318 322 320 322 319 320 326 332 335 339 341 344 336 335 334 334 334 334 333 333 333 331 330 330 330 333 339 341 341 340 340 340 341 339 339 342 343 343 340 343 347 349
317 316 320 322 321 319 318 318 318 329 334 340 343 340 336 336 335 334 333 330 328 327 327 327 330 330 331 330 329 333 336 339 342 341 341 339 337 338 339 342 340 337 342 345
316 317 316 320 321 322 317 316 321 336 337 336 338 337 335 334 333 330 328 328 326 325 325 324 324 325 329 331 328 327 328 332 335 339 341 341 342 340 336 341 342 341 344 344
313 313 317 317 320 322 322 318 318 329 336 336 336 334 332 327 326 324 324 324 323 323 323 323 322 322 323 327 326 326 325 325 326 326 326 327 331 334 339 341 342 341 343 343
311 311 314 316 321 321 321 319 317 326 337 335 335 330 326 326 325 322 322 322 321 320 321 321 321 320 321 321 322 323 323 322 319 320 321 320 323 324 325 323 324 325 332 337
311 313 315 316 319 321 319 319 319 321 324 329 326 326 325 324 323 321 322 321 320 319 318 318 319 319 318 317 318 320 320 319 318 316 314 315 316 317 318 317 317 318 322 326
318 314 315 315 317 319 322 321 324 321 324 327 325 324 325 323 320 319 319 318 317 317 317 317 317 317 317 317 316 316 316 315 315 314 312 311 311 311 311 313 315 317 322 324
319 317 319 320 319 320 320 320 321 323 328 326 325 323 322 319 318 318 317 317 317 316 316 316 316 315 315 315 315 314 312 312 311 311 312 312 313 313 313 312 313 317 321 322
316 317 317 318 319 319 319 319 319 321 322 322 321 320 320 319 318 317 316 316 316 316 315 315 315 313 312 310 308 306 306 306 306 306 308 311 313 314 316 317 317 318 320 319
317 317 315 315 319 319 319 318 317 317 318 317 318 319 318 317 316 316 316 315 315 315 314 313 312 310 308 308 306 306 305 305 305 306 306 306 307 308 310 314 315 316 317 318
318 315 314 313 317 318 318 318 317 316 315 315 315 316 316 316 316 315 315 315 313 312 310 309 308 308 307 307 306 304 304 304 304 304 303 304 304 304 305 305 307 308 311 315

GFSCGP_850_thetae_099.txt.gz
Theta_e
323 321 321 321 321 323 325 327 352 351 351 349 352 352 347 347 347 342 341 341 343 345 345 344 346 345 346 345 344 344 345 345 344 343 344 344 345 345 343 344 345 344 343 343
319 321 319 321 322 324 325 340 352 349 346 350 352 352 349 348 347 343 342 343 343 345 347 346 346 344 346 344 342 341 342 343 345 344 344 345 344 345 346 345 345 344 341 340
322 322 321 323 323 323 322 325 351 352 347 345 349 351 353 349 347 347 344 341 343 344 345 347 345 345 346 343 343 341 342 341 343 344 344 345 343 345 345 346 345 343 344 340
321 322 323 323 323 321 321 323 338 348 344 349 343 352 346 348 347 347 346 340 343 343 345 346 347 346 345 344 343 343 342 342 342 342 345 344 345 343 343 345 346 347 344 345
321 322 322 322 322 320 321 325 341 345 346 342 344 346 346 341 345 347 345 344 339 342 344 345 345 345 345 344 343 342 342 343 340 339 343 346 345 345 345 346 345 345 346 344
319 321 320 320 321 320 323 337 339 338 340 346 343 346 350 346 346 347 346 346 341 340 343 344 344 344 344 344 343 342 342 344 342 338 343 345 347 345 345 346 345 346 346 344
320 322 321 321 321 319 321 335 342 344 344 343 339 347 344 345 343 347 346 346 344 340 342 344 345 345 344 344 343 343 342 342 341 338 341 344 346 346 345 346 345 346 346 345
322 323 321 319 319 319 319 327 333 342 340 340 343 348 346 344 344 345 345 346 345 343 341 341 343 344 344 343 343 343 342 341 339 339 338 342 344 344 344 347 347 348 346 344
321 323 322 321 320 321 323 323 323 329 326 337 344 342 342 346 348 346 346 347 347 346 345 345 341 343 344 344 343 342 342 341 341 337 338 341 342 343 344 345 347 347 345 346
319 323 322 323 323 324 321 322 326 322 330 339 345 346 344 348 350 345 343 344 344 346 346 347 345 344 344 345 344 344 342 343 343 340 338 340 343 341 345 346 346 346 346 346
319 319 323 322 323 326 327 325 321 321 327 335 344 346 345 341 345 344 343 343 343 345 345 347 347 346 345 345 345 345 344 344 345 343 340 339 340 343 345 343 345 347 348 348
318 317 323 324 321 319 324 324 322 323 331 334 339 346 344 344 341 341 340 341 343 344 344 346 347 346 345 344 345 345 345 344 343 342 342 338 338 339 340 341 339 345 346 347
317 318 323 323 319 318 317 319 320 319 325 336 340 347 343 341 340 341 340 340 342 343 342 344 347 347 345 345 345 343 344 342 343 343 341 341 341 341 340 341 342 343 348 345
318 315 321 321 320 320 319 318 320 320 323 332 338 347 345 342 341 338 338 336 337 338 340 341 343 345 347 346 343 339 344 341 344 343 342 343 343 342 341 341 343 342 342 345
315 318 319 320 319 320 318 318 321 323 325 331 340 345 343 339 338 336 335 335 334 334 336 339 340 342 344 344 342 341 341 341 344 343 343 342 341 341 342 343 343 343 342 342
312 319 319 323 321 320 318 319 321 334 338 339 341 343 339 337 335 334 334 333 331 331 331 332 336 338 340 341 342 342 342 342 342 342 343 338 337 340 340 341 341 342 344 345
317 314 320 322 320 319 319 317 316 332 338 339 342 338 336 335 335 334 333 333 332 331 330 329 329 330 335 338 339 340 340 339 340 340 339 341 340 340 335 337 339 340 341 340
314 316 315 323 323 324 318 316 331 337 337 336 336 336 335 334 333 333 330 330 329 330 328 327 330 329 329 329 332 334 334 335 336 336 339 340 340 336 336 336 339 339 339 338
310 312 315 317 322 324 323 319 317 329 337 335 336 335 334 332 327 326 326 326 325 324 323 324 329 330 327 326 326 326 327 329 330 330 331 334 336 339 338 337 340 338 337 340
309 309 314 315 319 324 322 319 320 329 339 336 335 334 328 328 328 324 325 325 323 323 322 322 323 327 327 325 325 324 322 320 322 322 323 324 326 327 327 334 335 329 330 332
310 310 312 314 317 318 319 321 321 322 321 334 334 328 327 327 325 321 322 322 322 321 321 321 320 320 320 320 321 320 319 319 318 316 315 316 317 318 319 318 319 318 323 326
316 312 313 312 314 318 319 320 320 318 328 334 331 327 326 325 323 319 320 320 321 321 320 319 319 317 317 316 315 314 314 313 313 312 312 311 311 311 312 313 315 316 320 323
317 314 317 316 316 317 318 318 321 322 327 326 327 326 325 323 320 319 318 318 318 318 317 317 316 315 315 314 314 313 312 311 310 309 310 310 311 312 312 311 312 314 317 320
316 315 316 317 318 318 318 322 324 324 325 324 325 324 324 322 320 318 317 317 317 316 316 316 316 315 314 312 310 307 305 305 305 305 306 308 311 312 313 314 314 315 316 317
314 314 313 314 318 317 317 319 321 324 325 324 323 322 321 320 318 317 317 316 316 316 315 315 314 313 311 308 305 305 305 305 305 305 305 306 306 306 308 309 312 314 315 315
315 313 312 313 315 316 317 317 318 320 321 322 322 320 320 320 318 317 316 316 316 315 314 313 310 307 306 305 305 304 304 303 303 302 302 302 302 302 303 303 303 304 305 306

GFSCGP_850_thetae_102.txt.gz
Theta_e
320 321 325 320 320 322 324 342 352 348 350 348 350 350 345 346 343 344 344 343 343 344 345 345 345 344 344 345 345 344 343 343 343 342 343 344 343 343 342 343 343 343 342 343
318 323 321 321 320 324 328 347 352 349 347 349 349 351 346 346 343 343 341 343 344 344 344 344 344 344 345 345 344 345 344 343 344 342 342 343 345 345 344 343 344 343 342 342
321 323 320 321 321 322 324 333 349 351 349 348 349 352 349 347 344 342 342 341 343 344 344 344 345 345 345 345 342 343 342 341 344 342 344 343 344 344 345 344 345 343 343 341
322 322 320 322 322 322 322 323 347 347 346 351 345 352 351 348 348 346 343 342 342 344 344 344 344 345 344 344 342 340 341 341 343 343 343 343 343 342 344 344 346 344 344 342
322 320 321 322 322 319 323 324 344 346 345 342 345 345 344 348 350 347 344 344 341 344 345 344 344 345 344 345 343 342 340 341 342 341 343 343 344 344 344 345 345 346 345 346
320 320 320 320 320 320 324 340 337 337 339 346 341 343 343 346 348 347 343 341 341 343 344 344 344 344 344 345 343 343 341 341 342 341 340 343 344 344 345 345 345 344 346 343
319 320 320 319 319 319 322 330 339 344 344 345 337 345 340 343 342 346 346 344 342 342 343 345 345 345 345 345 343 343 342 342 342 341 336 341 344 346 343 344 345 345 345 342
320 322 320 318 319 318 321 324 335 341 341 340 341 346 343 342 344 345 346 345 340 340 343 344 345 345 345 345 344 343 342 342 342 342 338 336 343 344 345 345 345 346 346 344
319 323 321 318 317 319 321 326 326 329 326 341 343 341 340 345 344 346 346 346 342 340 340 343 343 344 345 345 344 344 343 342 342 343 342 338 342 343 343 343 345 347 346 345
318 321 321 322 322 323 321 319 325 320 331 339 343 343 342 350 349 345 345 346 346 342 341 342 341 342 344 344 344 344 344 343 343 343 343 341 340 341 342 344 345 346 345 346
318 319 322 321 322 324 324 324 319 320 324 334 342 341 341 343 347 346 344 344 345 346 344 343 342 343 342 343 342 344 344 345 342 345 344 342 340 340 344 345 346 346 346 347
316 316 322 323 321 318 323 323 320 324 330 331 333 340 341 343 343 343 342 342 342 343 345 345 346 345 342 342 343 344 345 345 343 344 346 344 342 341 342 343 344 341 345 345
315 316 322 323 317 318 317 318 319 319 327 335 335 338 342 341 341 341 341 342 343 344 342 344 345 346 345 344 345 346 345 345 344 344 343 342 344 342 338 339 338 341 340 345
317 315 320 321 319 317 321 316 319 318 323 330 332 344 346 341 338 339 339 338 339 340 343 345 346 346 345 344 343 339 341 344 342 340 343 342 344 344 343 340 340 340 342 342
313 318 319 319 318 319 317 317 318 322 322 333 334 342 342 339 338 337 336 335 336 338 340 341 343 344 345 340 334 336 335 342 342 343 343 342 342 342 342 342 342 341 341 342
311 318 318 323 320 318 318 322 319 333 331 337 338 342 336 338 335 336 335 334 334 335 336 338 342 342 344 344 344 343 342 341 342 342 343 340 338 341 340 340 340 341 341 342
316 315 317 322 319 320 319 318 322 322 337 338 341 336 336 335 334 334 333 331 331 331 334 335 338 339 339 339 339 341 341 340 340 340 341 342 342 338 337 336 336 339 339 340
317 315 313 321 320 324 322 317 325 336 336 335 335 337 336 334 333 333 332 330 329 329 330 333 334 335 336 336 337 337 338 339 338 338 339 339 339 340 339 336 334 336 337 339
310 314 318 320 321 323 322 317 317 328 335 334 335 335 333 330 330 327 331 330 330 330 329 330 330 331 331 332 332 334 334 334 335 335 336 336 338 337 335 336 334 337 337 338
309 309 316 315 320 326 324 320 320 326 324 335 334 333 328 331 332 325 325 330 328 328 330 329 326 325 325 324 323 324 324 325 325 325 326 328 331 334 335 336 334 332 331 335
311 309 311 315 317 317 317 318 320 322 319 334 334 332 330 329 328 324 325 324 323 324 327 329 326 325 324 323 322 321 319 318 316 315 315 316 318 320 319 319 319 320 324 328
316 312 313 310 314 317 317 319 320 317 321 334 333 328 329 325 325 323 323 322 321 322 322 322 321 319 318 316 315 313 313 312 312 312 312 312 312 312 312 313 315 317 322 324
316 313 316 315 313 315 317 317 321 321 322 330 331 327 326 324 324 322 321 320 320 320 319 319 318 316 314 314 313 312 311 311 310 309 309 310 310 311 311 311 311 313 316 319
314 313 316 316 317 317 318 322 323 324 323 329 329 327 325 322 320 321 322 320 319 318 318 317 316 315 315 313 310 308 306 305 305 305 306 307 309 310 311 312 312 312 312 313
313 313 313 313 316 317 317 321 322 324 325 326 326 325 324 323 319 321 320 319 318 317 316 315 315 314 313 310 306 304 304 304 305 305 305 305 305 306 306 307 308 309 310 311
314 312 312 315 315 315 316 316 321 323 324 325 325 323 323 323 321 320 319 319 320 317 316 315 315 313 309 306 304 304 303 304 304 304 303 303 303 302 302 302 302 302 303 303

GFSCGP_850_thetae_105.txt.gz
Theta_e
321 330 337 336 327 328 339 340 352 354 349 350 351 353 349 343 344 347 346 346 347 346 346 347 347 343 342 343 344 344 344 343 342 340 342 342 343 342 340 343 343 341 343 342
323 330 331 327 324 327 346 352 352 349 346 349 349 351 350 348 347 346 346 346 345 346 346 347 344 345 343 343 344 344 343 343 342 342 343 343 343 344 342 342 343 343 342 343
323 327 327 325 325 328 330 339 350 351 348 348 347 351 349 347 345 345 343 345 345 345 346 347 345 344 344 343 344 344 343 343 343 343 343 344 344 345 344 344 343 343 342 341
329 323 327 324 326 326 331 328 348 347 347 350 345 352 351 349 347 345 344 342 344 345 346 347 344 344 343 343 344 344 344 344 344 343 343 343 342 341 342 343 344 344 344 340
326 325 325 325 325 324 328 328 347 347 348 349 349 350 350 349 351 347 344 344 343 344 345 346 346 343 344 344 344 342 343 343 344 344 343 342 343 343 342 343 344 344 344 342
323 321 324 326 324 325 337 342 345 345 347 351 349 350 350 353 352 349 345 344 343 343 345 346 344 344 344 344 344 342 341 341 342 344 344 343 343 344 344 345 344 343 344 343
323 323 322 321 323 323 333 339 344 345 348 342 341 350 346 347 346 348 346 345 344 343 344 346 347 345 344 344 344 343 342 341 341 343 342 342 343 344 345 345 345 344 345 343
324 324 323 322 323 324 330 334 337 343 344 343 344 351 347 344 343 344 346 345 344 343 343 346 347 344 344 344 344 344 343 341 341 342 343 340 343 344 344 343 344 346 345 344
324 324 323 321 323 323 324 325 329 336 338 343 349 346 343 346 348 345 346 347 343 342 343 345 346 346 344 344 343 344 343 343 341 342 343 341 340 344 344 344 345 345 347 346
323 324 324 324 321 322 325 325 327 332 341 342 349 349 349 351 348 347 347 347 344 343 344 344 343 345 345 345 344 344 344 343 343 342 343 341 340 342 344 343 344 345 346 345
322 324 326 324 325 325 325 326 327 331 333 339 345 348 344 348 349 350 348 347 346 344 343 342 343 344 345 345 344 345 344 343 344 342 343 342 341 341 341 343 344 346 345 345
320 325 328 328 323 322 326 327 328 329 335 338 342 346 345 345 346 345 346 347 348 346 345 342 342 343 343 343 344 345 344 343 343 344 343 343 343 341 341 341 343 345 345 347
321 324 329 328 323 322 325 322 326 330 334 340 336 342 345 346 345 345 345 345 345 345 345 344 343 342 342 343 343 342 342 343 344 345 344 343 343 343 340 341 342 343 341 340
319 322 328 328 326 324 324 321 324 330 331 335 336 346 347 345 345 343 344 342 342 342 343 344 345 346 345 344 344 343 344 344 344 345 343 343 343 342 343 341 337 338 338 340
320 325 323 322 321 321 323 331 323 327 329 334 338 346 346 343 341 340 340 339 341 342 343 343 345 344 345 344 340 340 343 340 342 342 343 342 342 342 344 344 341 340 340 340
319 325 323 325 323 321 322 329 330 331 331 337 337 344 343 339 340 339 338 337 337 339 340 341 343 345 343 340 338 336 336 339 341 342 342 342 341 341 341 340 340 341 341 341
323 326 326 326 324 325 324 323 334 336 337 339 342 342 342 339 338 337 336 336 336 334 337 339 341 342 341 337 335 337 339 339 342 342 341 342 340 341 339 340 339 336 339 339
322 324 322 328 327 329 324 320 327 338 339 339 339 340 340 338 336 335 335 333 332 333 335 335 338 339 341 341 342 341 342 342 342 341 341 341 341 340 335 339 337 334 334 336
317 322 323 324 327 327 324 321 323 327 331 338 339 338 336 335 333 332 332 333 333 331 333 335 336 337 337 337 338 338 338 339 339 339 338 338 339 339 338 338 337 337 335 337
316 320 322 323 324 328 326 322 321 327 329 337 336 335 334 332 335 328 327 328 329 333 333 332 331 331 331 331 331 333 332 332 334 332 334 335 336 335 334 334 335 335 333 334
320 319 321 322 323 322 321 321 321 326 327 330 336 334 332 336 335 326 329 329 330 330 329 327 325 324 322 321 320 320 320 322 323 323 323 325 326 326 326 326 327 329 329 331
323 320 320 318 321 321 320 322 325 324 323 329 336 334 334 327 326 325 328 327 330 328 326 325 323 322 320 318 317 316 315 315 314 314 314 314 314 315 315 316 317 320 326 328
323 320 324 321 322 320 319 320 320 320 321 327 332 330 326 324 324 326 323 325 329 328 325 323 321 318 316 314 313 312 311 311 311 311 311 311 311 311 312 312 313 317 320 322
319 316 323 323 321 320 319 320 322 323 324 325 328 326 326 324 323 321 321 323 324 324 321 318 317 315 314 313 311 310 309 308 307 307 308 309 310 310 311 312 312 312 313 313
319 318 322 323 321 320 318 320 322 322 324 326 327 325 325 324 321 321 320 320 320 319 318 316 315 315 314 312 308 306 305 305 305 305 305 306 307 307 308 309 310 310 310 310
318 321 324 324 319 320 319 316 320 321 322 324 326 324 323 324 323 322 322 321 323 320 316 315 315 314 312 308 305 304 304 304 304 304 304 304 303 303 303 303 303 302 302 302

GFSCGP_850_thetae_108.txt.gz
Theta_e
320 327 340 342 337 335 345 348 352 353 351 352 353 352 348 344 347 345 345 345 345 345 346 347 346 345 347 348 349 350 349 347 348 348 347 346 347 347 348 347 341 341 345 342
323 325 332 340 335 332 341 346 354 352 349 349 348 353 345 344 345 346 345 344 344 345 346 347 348 347 346 348 349 349 349 345 346 348 348 347 348 347 347 349 341 342 345 342
324 324 335 336 332 333 344 347 350 353 349 346 346 349 352 344 344 345 345 345 344 345 346 347 348 348 347 348 350 350 349 345 341 349 349 345 346 346 344 345 346 346 344 343
324 326 331 336 333 333 337 338 347 350 351 352 345 355 351 347 345 347 346 346 345 345 346 347 347 348 348 348 350 351 350 348 344 343 349 349 346 343 347 346 349 349 343 342
327 327 332 335 335 330 333 331 341 345 345 347 347 350 347 350 350 348 346 345 345 345 345 346 348 348 347 348 349 351 351 342 349 342 346 344 347 347 347 347 349 347 343 342
327 328 330 330 330 327 331 334 339 344 344 344 347 350 350 350 353 345 344 345 344 344 345 345 346 348 348 347 348 350 351 342 346 343 343 345 348 348 346 344 349 349 349 349
327 327 328 327 330 330 333 340 345 345 346 346 343 348 346 346 347 349 344 344 345 343 344 345 346 348 349 348 348 349 351 346 343 345 348 346 343 344 346 345 349 349 349 348
326 327 327 326 328 329 332 338 341 347 346 345 344 349 348 344 346 347 347 345 345 345 344 343 346 347 347 349 349 349 351 351 350 347 346 344 341 347 344 348 350 349 348 348
325 326 326 326 326 326 331 334 336 338 340 343 345 345 346 345 347 346 348 348 346 345 344 344 346 347 349 349 349 349 350 351 350 349 347 342 338 341 347 345 344 351 351 350
325 326 325 325 325 325 327 331 335 336 339 342 347 345 343 351 350 348 347 348 347 346 346 345 346 348 349 349 349 349 350 350 350 349 350 347 348 345 340 344 344 346 351 348
325 326 327 326 325 325 326 328 329 330 334 338 343 344 346 349 349 349 347 347 348 347 345 345 347 349 350 349 347 347 351 351 346 349 349 349 349 347 348 344 348 346 345 345
326 327 329 327 326 325 327 326 328 329 333 335 337 347 347 347 348 349 350 349 348 348 345 345 344 343 345 348 347 345 345 347 348 346 346 350 349 347 346 348 348 347 345 344
326 327 329 329 328 327 327 327 328 328 329 333 335 337 348 348 349 349 349 350 349 348 347 347 345 343 345 345 345 344 344 348 350 350 349 350 349 347 348 348 348 343 346 345
321 326 328 329 329 328 328 327 328 329 331 331 333 337 350 350 350 348 348 349 350 350 350 351 350 344 343 344 343 344 343 343 343 344 344 349 346 346 349 348 342 344 342 345
325 327 327 327 327 327 328 327 327 329 329 331 331 333 338 349 348 347 346 345 347 347 345 346 349 348 345 343 343 342 343 340 341 344 345 346 345 345 347 341 340 341 338 342
324 328 328 327 326 326 327 330 329 328 329 330 332 334 344 346 345 344 344 344 344 342 342 342 343 348 346 345 343 341 340 341 344 340 340 343 343 343 343 343 344 342 341 341
325 327 329 328 327 327 327 329 334 334 335 336 333 342 345 346 343 342 342 343 341 341 340 341 344 344 345 346 338 340 340 340 340 342 342 341 341 341 340 341 340 340 341 341
325 326 326 328 329 330 327 327 329 337 338 338 340 342 344 343 342 340 340 340 339 337 338 340 341 343 345 343 340 338 338 338 343 343 342 341 341 341 340 340 340 339 336 339
323 326 325 326 328 329 327 326 327 331 334 339 341 341 341 339 338 337 338 337 337 334 336 338 339 340 342 335 336 338 338 341 342 341 342 342 341 341 339 337 336 336 335 337
321 324 325 326 326 331 329 325 324 326 335 338 339 340 339 336 342 336 337 336 333 334 336 336 336 337 338 339 340 340 340 339 340 340 340 339 339 339 337 337 337 335 335 337
323 323 323 324 326 326 325 324 324 330 331 327 336 337 337 338 338 335 334 334 329 332 331 331 330 331 332 331 332 334 334 335 336 335 336 336 335 335 334 333 333 333 333 337
325 324 322 323 324 326 324 326 330 328 327 328 336 337 335 333 332 331 330 328 326 326 325 327 326 323 320 320 321 323 324 323 322 321 322 323 322 321 321 321 324 329 334 334
324 324 326 325 326 325 324 324 326 327 328 328 334 335 333 332 331 329 328 325 326 325 322 322 322 320 317 316 315 314 315 315 315 314 314 314 315 316 318 320 322 326 328 326
323 322 325 325 325 324 323 324 324 326 329 331 332 333 332 331 328 327 327 324 324 323 323 322 319 316 314 313 314 312 311 311 311 311 312 313 313 313 314 315 317 318 319 319
323 323 323 323 324 323 323 323 324 325 327 329 330 330 331 330 328 327 327 326 325 322 320 318 317 316 315 313 311 308 307 307 308 308 309 310 311 312 312 312 312 312 312 313
321 322 323 324 325 325 324 322 322 323 325 327 328 328 328 328 326 323 322 322 321 319 318 316 316 315 313 310 307 305 305 305 309 309 309 309 309 309 307 306 306 306 305 304

GFSCGP_850_thetae_111.txt.gz
Theta_e
322 326 334 342 343 339 344 348 353 351 352 349 349 350 343 347 348 344 343 343 345 345 345 344 343 343 345 346 347 346 347 349 350 348 346 346 345 347 346 348 349 347 349 347
324 325 330 338 341 339 338 353 353 352 350 346 348 352 346 345 348 346 344 344 345 345 344 344 343 344 344 346 348 349 349 349 349 347 347 346 346 346 347 348 349 351 350 350
326 326 328 336 342 338 339 351 355 356 349 347 345 351 348 344 347 347 344 343 344 345 345 344 347 344 345 345 348 348 349 350 348 349 349 349 349 348 347 349 348 349 350 350
326 326 327 335 340 338 339 346 349 352 352 355 347 354 347 347 347 346 347 344 344 345 344 344 347 347 346 346 347 351 350 351 348 351 349 349 346 345 348 348 348 350 350 350
325 326 328 335 339 337 338 337 353 349 348 349 349 352 349 344 345 345 347 345 345 344 345 346 346 347 348 347 346 348 349 351 351 350 349 350 348 348 348 348 349 349 351 351
327 327 329 332 336 335 335 337 343 345 345 351 348 349 352 352 348 346 345 346 344 345 344 345 347 348 347 346 345 348 349 350 353 351 350 345 348 349 349 349 351 349 349 350
328 329 329 331 334 332 334 340 351 354 351 351 347 349 348 348 345 345 346 346 346 346 342 345 347 347 346 346 344 347 350 351 350 350 350 351 353 350 351 350 349 348 347 348
327 329 330 329 332 332 336 339 349 352 351 350 345 348 351 343 344 345 344 344 345 345 346 345 345 345 347 346 346 345 350 352 351 350 349 350 350 350 350 348 350 347 350 347
326 327 328 328 328 331 333 338 341 344 341 347 349 347 349 347 347 347 346 345 344 347 344 345 345 347 346 348 348 348 352 352 351 349 349 349 350 349 351 351 351 351 350 348
328 328 328 327 327 327 329 333 337 340 343 345 350 350 345 351 350 349 349 346 344 346 346 346 343 344 349 346 349 349 350 351 350 349 349 349 349 350 350 351 345 349 350 352
327 327 328 326 327 328 327 329 333 335 337 341 345 351 348 350 349 349 348 348 346 346 346 347 343 345 347 348 349 350 350 353 352 351 351 349 347 347 348 350 350 351 351 347
326 327 327 328 327 327 327 328 329 331 336 335 335 345 341 348 348 348 347 347 348 348 346 346 345 349 350 352 353 353 352 353 354 352 352 351 351 348 347 348 349 350 350 351
328 327 329 328 328 327 326 327 328 328 330 332 334 347 348 348 349 349 349 349 349 349 349 348 348 351 353 352 353 351 351 352 354 353 353 351 350 350 349 347 347 349 353 352
324 327 329 330 332 331 329 327 329 328 329 330 331 351 351 351 352 352 351 351 350 351 350 349 347 346 350 350 348 349 350 349 348 352 351 351 352 352 351 348 347 348 349 352
326 328 327 328 329 331 330 328 327 329 330 331 331 332 345 350 351 350 350 352 353 353 352 350 351 351 348 344 343 344 345 343 342 344 343 346 349 350 351 351 350 348 347 350
326 327 327 330 328 329 329 329 329 328 328 329 330 331 339 347 349 349 350 350 351 350 349 352 352 351 350 349 344 344 343 343 343 339 342 342 344 347 350 348 346 347 349 350
327 327 329 330 327 327 329 328 329 329 329 328 332 342 338 351 348 347 346 346 346 347 344 345 347 350 351 349 347 348 344 343 341 342 341 341 345 346 346 346 348 347 347 349
326 327 329 331 332 333 329 330 331 333 336 336 338 341 346 347 346 344 345 346 345 344 340 342 343 345 349 348 346 346 345 344 343 342 342 342 342 342 342 343 345 344 345 345
325 327 327 329 335 329 329 329 330 332 338 338 339 342 345 345 343 343 342 343 342 341 336 339 342 344 344 344 343 342 341 339 342 343 343 342 341 341 340 340 339 335 335 339
325 325 328 330 331 332 330 329 326 328 336 331 338 341 342 341 343 342 341 339 338 336 332 337 340 340 340 340 340 338 337 338 340 341 342 341 341 341 340 338 338 337 336 336
323 325 325 326 330 331 328 324 325 329 335 330 335 340 339 340 341 341 337 337 332 330 335 336 335 335 335 336 336 339 340 340 339 340 338 338 338 337 336 336 337 337 337 336
327 328 325 326 328 331 326 327 331 331 330 329 334 338 338 335 339 337 332 331 331 332 332 331 332 330 329 330 331 333 333 332 333 334 333 332 331 329 332 334 334 333 333 336
322 324 330 327 331 326 325 326 326 328 330 332 331 337 337 336 335 332 331 328 327 327 326 325 326 324 320 319 320 322 323 323 321 322 322 322 323 323 326 327 328 332 331 330
324 323 323 326 326 325 325 325 326 326 329 332 332 334 335 334 333 331 329 328 326 325 323 321 320 318 316 315 313 313 314 316 315 315 315 316 317 319 322 323 324 324 325 324
324 325 323 324 327 325 325 325 324 326 327 330 332 333 333 333 331 328 325 324 323 322 321 320 319 318 314 315 313 312 313 314 316 317 317 317 315 319 315 316 316 319 320 319
322 322 324 325 327 326 326 324 323 324 326 328 330 331 331 330 329 328 325 323 322 320 318 316 316 315 314 313 311 313 314 314 315 315 315 315 315 314 312 311 311 311 312 312

GFSCGP_850_thetae_114.txt.gz
Theta_e
325 326 327 332 342 342 343 349 354 351 349 348 346 346 347 346 347 345 342 342 345 344 343 342 344 347 346 345 348 344 347 345 344 346 344 344 347 348 347 348 347 348 344 347
325 325 327 331 340 342 343 349 353 352 348 346 345 348 346 345 347 348 343 344 344 342 344 342 344 347 346 344 345 345 349 344 345 346 348 347 347 347 347 349 346 350 347 340
326 325 326 330 337 343 345 346 352 353 349 345 345 347 344 341 345 346 347 344 345 344 345 344 343 345 347 346 347 349 347 344 348 350 348 346 346 348 347 347 346 345 348 346
325 327 327 328 337 342 344 350 349 352 350 354 346 353 347 343 345 345 347 346 346 345 345 344 344 344 346 348 349 345 350 343 347 348 348 347 348 349 349 350 348 349 347 346
323 326 327 327 331 342 340 343 350 349 351 349 351 352 351 343 344 346 346 346 346 347 342 346 342 346 345 344 349 348 344 346 348 347 348 347 347 346 348 348 349 350 345 348
325 326 327 328 334 337 337 345 343 344 349 356 350 350 350 349 345 344 345 346 346 343 345 344 347 341 347 345 348 349 342 346 347 345 348 349 348 349 349 349 347 345 347 345
324 328 328 329 331 337 336 341 353 355 357 356 349 351 349 347 346 342 343 345 345 345 345 344 347 347 348 347 349 349 347 344 345 348 348 346 347 343 348 347 347 351 348 349
325 328 329 329 332 337 335 336 346 351 354 353 348 352 351 344 343 342 342 344 344 345 346 345 344 348 346 348 349 349 348 343 343 346 346 348 349 351 350 346 351 346 350 348
328 325 329 330 331 332 333 336 337 346 347 350 348 348 344 345 344 342 343 344 345 347 341 346 349 347 347 347 348 350 348 342 347 349 348 347 349 348 350 349 343 345 349 351
328 330 328 329 328 329 331 332 336 344 350 349 352 352 355 349 346 347 346 346 346 345 345 345 345 345 344 344 346 349 348 345 346 349 347 346 346 345 350 348 347 351 349 344
327 328 329 329 328 328 328 329 331 333 341 349 349 350 347 348 342 351 347 346 345 341 342 347 346 347 345 348 348 351 350 344 347 350 347 347 346 346 349 348 347 348 347 340
326 327 329 329 328 328 328 328 328 330 336 337 340 340 340 345 347 348 348 346 347 345 346 348 347 347 343 347 348 352 349 345 346 348 346 348 346 347 348 347 348 350 350 345
329 328 327 329 329 329 327 327 328 328 329 334 333 346 343 344 347 347 348 348 347 346 346 347 344 350 350 346 347 348 339 352 348 348 350 349 350 349 346 347 346 347 351 347
324 328 329 330 332 332 333 332 326 327 328 329 330 344 341 342 351 348 349 349 348 347 348 347 352 351 346 341 352 347 353 352 353 351 351 352 350 352 349 348 347 345 348 348
325 327 327 327 329 330 331 332 332 327 329 330 329 343 346 347 350 351 351 351 350 349 349 348 350 353 352 352 350 351 349 350 350 349 348 349 351 349 349 351 349 345 348 345
326 326 326 327 327 330 330 330 331 329 327 328 329 331 340 345 344 336 352 354 354 350 349 350 350 352 349 346 344 343 346 345 342 343 342 346 348 346 345 347 349 349 346 346
327 329 330 330 328 329 330 330 331 331 329 330 331 348 342 337 332 330 350 353 352 351 351 350 352 352 351 347 344 343 341 344 344 343 342 340 341 342 343 344 347 349 347 349
327 328 328 331 331 336 331 331 331 332 339 339 342 348 346 336 330 342 348 349 348 347 346 347 348 350 349 349 348 347 345 344 344 343 342 342 342 346 346 347 348 346 345 343
325 327 327 331 332 332 330 331 329 330 332 334 337 345 332 343 343 344 346 347 344 342 342 342 344 348 349 349 349 348 346 346 346 344 342 342 341 340 340 342 344 344 342 344
325 327 327 329 330 334 332 329 328 327 336 332 332 339 333 341 345 344 344 342 338 335 337 340 342 343 344 346 345 345 344 344 341 341 342 342 341 341 341 337 340 340 339 336
328 329 325 327 331 333 328 328 326 331 337 331 332 338 335 338 340 341 339 336 334 333 336 337 339 340 341 343 343 342 340 338 341 341 341 341 341 340 340 339 338 337 336 336
326 328 330 329 329 332 326 328 331 332 330 331 331 338 339 340 339 338 335 331 331 333 333 334 335 336 337 337 337 336 337 338 339 337 339 338 337 335 336 336 337 337 337 336
324 326 328 330 331 327 326 327 327 327 330 330 330 338 332 337 335 334 330 329 328 329 329 330 331 329 329 329 332 334 332 331 333 333 333 333 332 332 333 334 335 333 334 334
323 323 324 324 327 326 326 326 326 326 327 327 331 334 336 335 334 331 329 326 324 323 323 322 322 321 318 317 317 322 323 321 323 323 323 323 323 325 326 326 329 329 329 329
326 327 324 323 326 327 326 326 324 325 326 327 331 333 335 334 332 330 327 325 324 323 321 320 319 316 314 314 313 313 313 313 313 315 316 316 317 320 323 324 324 326 326 325
323 323 323 326 328 328 327 326 324 324 324 325 328 333 333 333 329 328 326 326 324 322 321 320 318 316 315 312 311 311 315 317 314 312 314 317 318 317 317 319 319 317 322 321

GFSCGP_850_thetae_117.txt.gz
Theta_e
325 323 322 323 326 330 346 352 353 350 348 347 349 346 343 342 345 346 344 339 342 342 342 342 347 346 346 346 345 343 343 343 344 346 347 346 346 346 346 346 344 341 344 346
324 322 324 325 337 342 344 351 351 349 346 347 346 346 343 344 344 347 347 342 343 343 343 346 347 347 342 347 346 343 344 340 344 345 344 346 346 347 346 348 345 344 343 345
321 323 325 324 330 343 345 348 350 352 348 345 344 347 346 344 342 343 345 346 344 343 343 347 347 346 341 347 345 343 344 342 344 346 346 347 347 347 347 348 344 347 346 345
321 324 325 324 325 335 349 348 349 351 349 353 345 352 347 344 343 342 344 346 344 344 343 346 347 345 342 342 343 342 346 343 346 348 347 346 346 345 347 348 346 344 342 344
319 322 323 325 325 341 348 345 347 346 346 349 347 351 348 345 345 343 343 345 346 344 341 345 346 345 345 344 343 345 344 341 347 347 348 345 345 347 348 348 346 346 343 346
320 324 324 325 329 339 345 348 345 346 349 352 348 351 351 347 344 342 342 343 346 345 343 345 345 346 347 346 348 343 342 339 347 344 347 346 345 345 349 349 349 347 344 345
321 322 324 326 337 339 341 343 348 351 354 356 348 351 351 344 341 341 341 342 345 345 345 344 345 347 347 347 347 347 343 344 343 346 348 347 346 348 349 349 346 344 345 346
322 322 327 328 327 338 343 342 346 350 354 353 345 354 349 341 341 340 341 341 346 346 344 345 345 345 346 350 349 348 346 340 342 344 343 344 345 341 348 347 346 349 349 347
325 325 326 327 327 330 334 333 330 344 345 348 349 346 342 340 344 339 340 342 345 346 344 345 344 343 349 346 346 349 347 343 337 343 345 344 345 348 347 347 344 347 348 348
325 327 326 327 328 327 329 329 337 341 349 350 352 345 347 344 344 343 340 342 345 345 344 344 346 346 346 347 346 350 347 345 340 334 340 344 346 347 345 349 347 344 348 350
324 326 326 327 327 326 325 324 325 332 339 347 347 351 344 344 345 345 344 341 343 346 345 345 345 346 346 344 348 350 349 347 341 335 340 342 341 342 347 346 347 345 346 347
324 324 323 324 327 326 325 326 324 323 325 336 341 342 343 341 345 344 344 345 343 345 345 343 346 348 346 344 345 348 351 347 342 342 346 341 343 342 342 345 346 345 345 345
324 326 325 326 328 329 329 327 325 322 321 323 330 343 342 344 340 337 342 346 345 344 345 342 340 346 348 345 343 349 348 345 345 345 348 345 347 344 346 344 344 342 346 345
323 323 326 326 330 329 331 329 329 328 321 324 324 345 341 340 342 343 346 347 346 345 342 344 346 347 348 346 345 350 348 344 345 345 349 346 348 347 348 348 347 345 341 347
322 323 325 324 327 328 329 329 329 330 337 331 334 340 344 344 345 343 351 348 347 347 345 348 348 348 346 345 349 348 346 342 346 344 347 347 347 347 348 347 347 347 346 344
324 326 327 328 328 330 329 331 331 336 337 338 338 348 343 344 346 344 347 352 349 349 351 351 350 348 347 345 343 339 347 348 345 343 345 346 347 347 347 347 348 348 346 347
326 327 328 328 329 329 333 331 331 333 335 336 347 342 335 336 337 336 344 346 347 350 351 350 351 349 347 346 345 339 347 347 347 346 345 345 342 342 344 346 346 345 344 346
326 328 328 328 328 330 332 328 329 333 334 338 339 343 334 332 332 333 341 349 348 348 347 349 349 347 349 347 348 345 346 347 345 344 343 342 342 341 341 342 342 343 344 346
325 326 326 331 332 330 331 329 329 329 336 333 340 339 338 341 343 344 347 345 344 344 344 345 348 350 349 348 347 345 344 344 344 344 343 342 341 341 341 345 343 344 343 346
325 323 326 326 330 332 330 328 327 327 338 333 337 333 333 335 339 341 341 343 342 340 341 341 344 348 347 349 348 348 346 346 345 344 343 341 339 339 340 337 340 342 340 341
324 325 326 326 331 332 330 327 327 331 335 331 336 335 334 333 340 337 339 339 338 336 337 336 340 341 347 348 347 348 346 345 345 343 341 341 340 340 340 340 339 338 338 338
324 325 329 328 329 332 327 328 329 329 329 331 334 336 336 339 338 335 335 333 332 334 335 334 336 338 339 341 343 343 343 342 341 341 341 340 339 340 340 338 339 338 337 336
328 325 328 327 326 328 327 328 327 326 327 329 336 332 328 332 335 335 334 334 333 333 332 332 333 335 335 335 336 337 337 337 337 338 339 338 338 338 337 337 337 336 335 335
328 326 323 327 327 327 327 326 326 327 327 329 333 335 333 331 333 332 331 328 330 329 328 328 328 330 331 331 331 333 332 331 333 333 334 334 334 333 333 334 334 333 332 330
328 327 325 324 326 327 326 325 324 325 326 327 332 334 333 333 332 330 330 326 323 322 321 319 319 319 319 318 320 322 323 323 321 321 322 325 326 327 329 330 330 329 329 328
325 327 325 329 329 328 327 325 323 324 324 325 330 330 331 331 329 327 326 325 323 321 320 319 316 314 314 313 313 314 314 313 313 314 314 316 317 322 323 324 324 324 325 326

GFSCGP_850_thetae_120.txt.gz
Theta_e
321 319 320 321 321 330 348 349 351 348 346 345 347 348 346 341 343 345 344 340 342 342 342 345 345 345 343 344 342 339 339 342 345 345 345 344 344 343 345 343 339 340 344 342
320 321 320 321 323 332 346 348 350 348 345 346 347 347 344 342 343 345 346 341 341 342 343 345 345 344 344 344 342 341 342 341 342 345 345 345 345 345 345 345 344 338 345 347
320 322 323 324 323 339 344 346 348 350 347 344 345 346 345 343 343 342 344 345 341 342 344 345 345 345 344 343 343 341 342 340 345 346 346 345 346 345 345 343 341 338 344 344
319 321 322 324 324 340 348 346 347 349 349 352 344 351 346 344 344 343 343 345 343 344 344 346 346 344 343 343 344 342 343 341 343 345 345 346 346 346 343 344 343 346 345 338
317 319 321 322 323 340 347 345 347 347 345 347 347 349 345 344 345 344 343 344 345 343 345 346 346 345 342 343 343 342 343 341 343 344 346 346 346 344 347 348 346 345 342 346
317 320 319 323 333 340 343 344 344 344 345 348 348 349 348 345 344 343 343 344 345 344 346 346 346 344 342 341 343 343 343 342 343 347 347 346 346 345 346 347 347 346 344 346
318 319 328 343 345 343 342 342 347 349 350 351 347 350 347 344 342 342 343 343 344 345 343 345 346 344 343 342 342 344 344 342 342 344 346 345 344 346 347 346 348 347 345 344
320 319 324 334 340 340 340 336 341 345 351 351 346 350 344 341 338 340 341 343 343 344 344 344 345 345 344 345 343 344 342 342 339 342 342 346 344 344 347 347 347 344 344 344
321 324 324 325 331 335 337 339 334 339 341 346 348 346 343 340 342 340 340 342 343 345 345 344 346 346 345 346 345 344 344 342 343 342 344 346 345 347 344 347 345 348 347 347
323 325 324 324 327 333 329 328 335 337 345 347 350 345 346 341 343 339 340 340 341 342 345 344 345 346 347 346 345 345 346 345 340 342 344 341 341 345 347 347 344 345 346 348
320 321 323 322 324 323 322 322 321 328 335 344 350 348 341 340 343 341 339 340 339 340 342 345 344 345 346 347 346 346 346 346 344 337 340 340 341 345 345 346 348 346 345 347
322 319 322 322 321 326 321 322 317 319 322 335 337 340 338 337 343 342 341 339 339 338 341 345 344 345 344 346 347 347 347 348 345 341 338 338 340 342 343 345 346 346 344 346
321 320 322 322 324 324 328 327 325 317 315 321 330 326 339 338 342 343 343 342 339 341 344 345 344 343 344 344 347 347 346 348 347 342 341 341 340 338 339 343 342 342 342 344
321 316 322 322 324 325 326 327 327 325 332 331 323 325 343 341 341 341 340 344 344 341 344 345 345 345 346 340 346 346 347 348 349 343 343 346 342 345 343 346 346 344 343 339
318 320 324 324 326 329 330 332 334 335 336 340 341 342 340 340 342 344 350 348 345 343 343 344 345 345 345 346 346 346 345 347 347 343 343 349 348 348 346 345 347 348 347 346
318 320 324 326 327 329 330 331 335 335 336 338 342 342 336 337 338 343 347 346 348 345 343 344 344 344 344 347 347 346 345 346 345 345 344 344 346 346 346 346 347 346 347 346
320 320 322 325 325 326 331 329 334 334 339 340 345 342 332 330 335 340 339 345 347 348 346 346 347 346 345 347 346 345 343 341 342 345 344 344 343 343 343 344 345 344 346 347
319 321 321 323 321 328 328 326 329 333 335 338 337 340 337 335 342 345 341 339 344 346 347 347 347 346 346 346 346 345 343 346 346 344 342 344 342 341 344 342 342 342 344 345
318 319 321 326 325 328 330 327 329 331 334 337 336 334 332 330 339 338 341 343 343 344 343 345 345 347 346 345 346 344 342 344 344 342 343 344 344 343 341 341 341 341 342 343
317 317 323 321 328 328 327 327 326 327 333 333 334 333 333 330 332 336 335 339 339 339 341 342 344 345 346 347 345 342 343 344 345 344 344 343 342 341 340 342 342 341 340 343
318 318 322 325 327 329 327 327 326 328 327 330 335 334 333 333 335 335 336 336 336 336 337 339 341 343 346 345 343 345 345 344 344 344 343 341 340 339 339 338 337 337 340 339
318 319 323 322 325 326 326 327 328 326 328 330 334 336 337 335 335 336 335 335 334 334 335 338 339 340 341 345 345 345 345 344 344 342 342 339 340 339 339 339 338 337 335 336
322 319 322 321 321 323 327 326 326 327 331 333 334 334 332 333 335 334 333 331 332 333 333 334 336 338 339 339 339 341 341 340 340 340 340 340 339 339 339 338 338 337 337 336
324 321 322 321 322 324 327 326 326 327 332 331 331 332 328 330 332 332 329 327 327 329 332 332 334 335 336 335 336 337 336 336 336 336 337 337 337 337 337 336 335 336 336 335
323 322 318 321 323 324 326 326 325 326 331 329 329 328 329 331 331 329 328 329 328 327 326 326 330 332 333 331 331 331 332 332 333 333 333 333 334 333 334 334 334 333 331 328
323 320 318 322 324 325 325 323 323 324 329 328 326 326 326 330 329 329 327 326 325 325 324 323 321 319 320 322 322 322 323 323 326 327 327 327 327 328 328 329 329 327 327 327